[[{"header":{"parameterUnit":"m.s-1","parameterCategory":1,"la1":30.6,"la2":28.766,"lo1":-90.7593,"lo2":-88.6598,"dy":0.0162,"dx":0.0183,"nx":116,"ny":114,"refTime":"2023-04-05T06:00:00:Z","depth":0,"parameterNumber":2,"parameterNumberName":"U-component_of_WINDS"},"data":[0.0,0.0,0.0,0.0,0.0,0.0,0.0,0.0,0.0,0.0,0.0,0.0,0.0,0.0,0.0,0.0,0.0,0.0,0.0,0.0,0.0,0.0,0.0,0.0,0.0,0.0,0.0,0.0,0.0,0.0,0.0,0.0,0.0,0.0,0.0,0.0,0.0,0.0,0.0,0.0,0.0,0.0,0.0,0.0,0.0,0.0,0.0,0.0,0.0,0.0,0.0,0.0,0.0,0.0,0.0,0.0,0.0,0.0,0.0,0.0,0.0,0.0,0.0,0.0,0.0,0.0,0.0,0.0,0.0,0.0,0.0,0.0,0.0,0.0,0.0,0.0,0.0,0.0,0.0,0.0,0.0,0.0,0.0,0.0,0.0,0.0,0.0,0.0,0.0,0.0,0.0,0.0,0.0,0.0,0.0,0.0,0.0,0.0,0.0,0.0,0.0,0.0,0.0,0.0,0.0,0.0,0.0,0.0,0.0,0.0,0.0,0.0,0.0,0.0,0.0,0.0,0.0,0.0,0.0,0.0,0.0,0.0,0.0,0.0,0.0,0.0,0.0,0.0,0.0,0.0,0.0,0.0,0.0,0.0,0.0,0.0,0.0,0.0,0.0,0.0,0.0,0.0,0.0,0.0,0.0,0.0,0.0,0.0,0.0,0.0,0.0,0.0,0.0,0.0,0.0,0.0,0.0,0.0,0.0,0.0,0.0,0.0,0.0,0.0,0.0,0.0,0.0,0.0,0.0,0.0,0.0,0.0,0.0,0.0,0.0,0.0,0.0,0.0,0.0,0.0,0.0,0.0,0.0,0.0,0.0,0.0,0.0,0.0,0.0,0.0,0.0,0.0,0.0,0.0,0.0,0.0,0.0,0.0,0.0,0.0,0.0,0.0,0.0,0.0,0.0,0.0,0.0,0.0,0.0,0.0,0.0,0.0,0.0,0.0,0.0,0.0,0.0,0.0,0.0,0.0,0.0,0.0,0.0,0.0,0.0,0.0,0.0,0.0,0.0,0.0,0.0,0.0,0.0,0.0,0.0,0.0,0.0,0.0,0.0,0.0,0.0,0.0,0.0,0.0,0.0,0.0,0.0,0.0,0.0,0.0,0.0,0.0,0.0,0.0,0.0,0.0,0.0,0.0,0.0,0.0,0.0,0.0,0.0,0.0,0.0,0.0,0.0,0.0,0.0,0.0,0.0,0.0,0.0,0.0,0.0,0.0,0.0,0.0,0.0,0.0,0.0,0.0,0.0,0.0,0.0,0.0,0.0,0.0,0.0,0.0,0.0,0.0,0.0,0.0,0.0,0.0,0.0,0.0,0.0,0.0,0.0,0.0,0.0,0.0,0.0,0.0,0.0,0.0,0.0,0.0,0.0,0.0,0.0,0.0,0.0,0.0,0.0,0.0,0.0,0.0,0.0,0.0,0.0,0.0,0.0,0.0,0.0,0.0,0.0,0.0,0.0,0.0,0.0,0.0,0.0,0.0,0.0,0.0,0.0,0.0,0.0,0.0,0.0,0.0,0.0,0.0,0.0,0.0,0.0,0.0,0.0,0.0,0.0,0.0,0.0,0.0,0.0,0.0,0.0,0.0,0.0,0.0,0.0,0.0,0.0,0.0,0.0,0.0,0.0,0.0,0.0,0.0,0.0,0.0,0.0,0.0,0.0,0.0,0.0,0.0,0.0,0.0,0.0,0.0,0.0,0.0,0.0,0.0,0.0,0.0,0.0,0.0,0.0,0.0,0.0,0.0,0.0,0.0,0.0,0.0,0.0,0.0,0.0,0.0,0.0,0.0,0.0,0.0,0.0,0.0,0.0,0.0,0.0,0.0,0.0,0.0,0.0,0.0,0.0,0.0,0.0,0.0,0.0,0.0,0.0,0.0,0.0,0.0,0.0,0.0,0.0,0.0,0.0,0.0,0.0,0.0,0.0,0.0,0.0,0.0,0.0,0.0,0.0,0.0,0.0,0.0,0.0,0.0,0.0,0.0,0.0,0.0,0.0,0.0,0.0,0.0,0.0,0.0,0.0,0.0,0.0,0.0,0.0,0.0,0.0,0.0,0.0,0.0,0.0,0.0,0.0,0.0,0.0,0.0,0.0,0.0,0.0,0.0,0.0,0.0,0.0,0.0,0.0,0.0,0.0,0.0,0.0,0.0,0.0,0.0,0.0,0.0,0.0,0.0,0.0,0.0,0.0,0.0,0.0,0.0,0.0,0.0,0.0,0.0,0.0,0.0,0.0,0.0,0.0,0.0,0.0,0.0,0.0,0.0,0.0,0.0,0.0,0.0,0.0,0.0,0.0,0.0,0.0,0.0,0.0,0.0,0.0,0.0,0.0,0.0,0.0,0.0,0.0,0.0,0.0,0.0,0.0,0.0,0.0,0.0,0.0,0.0,0.0,0.0,0.0,0.0,0.0,0.0,0.0,0.0,0.0,0.0,0.0,0.0,0.0,0.0,0.0,0.0,0.0,0.0,0.0,0.0,0.0,0.0,0.0,0.0,0.0,0.0,0.0,0.0,0.0,0.0,0.0,0.0,0.0,0.0,0.0,0.0,0.0,0.0,0.0,0.0,0.0,0.0,0.0,0.0,0.0,0.0,0.0,0.0,0.0,0.0,0.0,0.0,0.0,0.0,0.0,0.0,0.0,0.0,0.0,0.0,0.0,0.0,0.0,0.0,0.0,0.0,0.0,0.0,0.0,0.0,0.0,0.0,0.0,0.0,0.0,0.0,0.0,0.0,0.0,0.0,0.0,0.0,0.0,0.0,0.0,0.0,0.0,0.0,0.0,0.0,0.0,0.0,0.0,0.0,0.0,0.0,0.0,0.0,0.0,0.0,0.0,0.0,0.0,0.0,0.0,0.0,0.0,0.0,0.0,0.0,0.0,0.0,0.0,0.0,0.0,0.0,0.0,0.0,0.0,0.0,0.0,0.0,0.0,0.0,0.0,0.0,0.0,0.0,0.0,0.0,0.0,0.0,0.0,0.0,0.0,0.0,0.0,0.0,0.0,0.0,0.0,0.0,0.0,0.0,0.0,0.0,0.0,0.0,0.0,0.0,0.0,0.0,0.0,0.0,0.0,0.0,0.0,0.0,0.0,0.0,0.0,0.0,0.0,0.0,0.0,0.0,0.0,0.0,0.0,0.0,0.0,0.0,0.0,0.0,0.0,0.0,0.0,0.0,0.0,0.0,0.0,0.0,0.0,0.0,0.0,0.0,0.0,0.0,0.0,0.0,0.0,0.0,0.0,0.0,0.0,0.0,0.0,0.0,0.0,0.0,0.0,0.0,0.0,0.0,0.0,0.0,0.0,0.0,0.0,0.0,0.0,0.0,0.0,0.0,0.0,0.0,0.0,0.0,0.0,0.0,0.0,0.0,0.0,0.0,0.0,0.0,0.0,0.0,0.0,0.0,0.0,0.0,0.0,0.0,0.0,0.0,0.0,0.0,0.0,0.0,0.0,0.0,0.0,0.0,0.0,0.0,0.0,0.0,0.0,0.0,0.0,0.0,0.0,0.0,0.0,0.0,0.0,0.0,0.0,0.0,0.0,0.0,0.0,0.0,0.0,0.0,0.0,0.0,0.0,0.0,0.0,0.0,0.0,0.0,0.0,0.0,0.0,0.0,0.0,0.0,0.0,0.0,0.0,0.0,0.0,0.0,0.0,0.0,0.0,0.0,0.0,0.0,0.0,0.0,0.0,0.0,0.0,0.0,0.0,0.0,0.0,0.0,0.0,0.0,0.0,0.0,0.0,0.0,0.0,0.0,0.0,0.0,0.0,0.0,0.0,0.0,0.0,0.0,0.0,0.0,0.0,0.0,0.0,0.0,0.0,0.0,0.0,0.0,0.0,0.0,0.0,0.0,0.0,0.0,0.0,0.0,0.0,0.0,0.0,0.0,0.0,0.0,0.0,0.0,0.0,0.0,0.0,0.0,0.0,0.0,0.0,0.0,0.0,0.0,0.0,0.0,0.0,0.0,0.0,0.0,0.0,0.0,0.0,0.0,0.0,0.0,0.0,0.0,0.0,0.0,0.0,0.0,0.0,0.0,0.0,0.0,0.0,0.0,0.0,0.0,0.0,0.0,0.0,0.0,0.0,0.0,0.0,0.0,0.0,0.0,0.0,0.0,0.0,0.0,0.0,0.0,0.0,0.0,0.0,0.0,0.0,0.0,0.0,0.0,0.0,0.0,0.0,0.0,0.0,0.0,0.0,0.0,0.0,0.0,0.0,0.0,0.0,0.0,0.0,0.0,0.0,0.0,0.0,0.0,0.0,0.0,0.0,0.0,0.0,0.0,0.0,0.0,0.0,0.0,0.0,0.0,0.0,0.0,0.0,0.0,0.0,0.0,0.0,0.0,0.0,0.0,0.0,0.0,0.0,0.0,0.0,0.0,0.0,0.0,0.0,0.0,0.0,0.0,0.0,0.0,0.0,0.0,0.0,0.0,0.0,0.0,0.0,0.0,0.0,0.0,0.0,0.0,0.0,0.0,0.0,0.0,0.0,0.0,0.0,0.0,0.0,0.0,0.0,0.0,0.0,0.0,0.0,0.0,0.0,0.0,0.0,0.0,0.0,0.0,0.0,0.0,0.0,0.0,0.0,0.0,0.0,0.0,0.0,0.0,0.0,0.0,0.0,0.0,0.0,0.0,0.0,0.0,0.0,0.0,0.0,0.0,0.0,0.0,0.0,0.0,0.0,0.0,0.0,0.0,0.0,0.0,0.0,0.0,0.0,0.0,0.0,0.0,0.0,0.0,0.0,0.0,0.0,0.0,0.0,0.0,0.0,0.0,0.0,0.0,0.0,0.0,0.0,0.0,0.0,0.0,0.0,0.0,0.0,0.0,0.0,0.0,0.0,0.0,0.0,0.0,0.0,0.0,0.0,0.0,0.0,0.0,0.0,0.0,0.0,0.0,0.0,0.0,0.0,0.0,0.0,0.0,0.0,0.0,0.0,0.0,0.0,0.0,0.0,0.0,0.0,0.0,0.0,0.0,0.0,0.0,0.0,0.0,0.0,0.0,0.0,0.0,0.0,0.0,0.0,0.0,0.0,0.0,0.0,0.0,0.0,0.0,0.0,0.0,0.0,0.0,0.0,0.0,0.0,0.0,0.0,0.0,0.0,0.0,0.0,0.0,0.0,0.0,0.0,0.0,0.0,0.0,0.0,0.0,0.0,0.0,0.0,0.0,0.0,0.0,0.0,0.0,0.0,0.0,0.0,0.0,0.0,0.0,0.0,0.0,0.0,0.0,0.0,0.0,0.0,0.0,0.0,0.0,0.0,0.0,0.0,0.0,0.0,0.0,0.0,0.0,0.0,0.0,0.0,0.0,0.0,0.0,0.0,0.0,0.0,0.0,0.0,0.0,0.0,0.0,0.0,0.0,0.0,0.0,0.0,0.0,0.0,0.0,0.0,0.0,0.0,0.0,0.0,0.0,0.0,0.0,0.0,0.0,0.0,0.0,0.0,0.0,0.0,0.0,0.0,0.0,0.0,0.0,0.0,0.0,0.0,0.0,0.0,0.0,0.0,0.0,0.0,0.0,0.0,0.0,0.0,0.0,0.0,0.0,0.0,0.0,0.0,0.0,0.0,0.0,0.0,0.0,0.0,0.0,0.0,0.0,0.0,0.0,0.0,0.0,0.0,0.0,0.0,0.0,0.0,0.0,0.0,0.0,0.0,0.0,0.0,0.0,0.0,0.0,0.0,0.0,0.0,0.0,0.0,0.0,0.0,0.0,0.0,0.0,0.0,0.0,0.0,0.0,0.0,0.0,0.0,0.0,0.0,0.0,0.0,0.0,0.0,0.0,0.0,0.0,0.0,0.0,0.0,0.0,0.0,0.0,0.0,0.0,0.0,0.0,0.0,0.0,0.0,0.0,0.0,0.0,0.0,0.0,0.0,0.0,0.0,0.0,0.0,0.0,0.0,0.0,0.0,0.0,0.0,0.0,0.0,0.0,0.0,0.0,0.0,0.0,0.0,0.0,0.0,0.0,0.0,0.0,0.0,0.0,0.0,0.0,0.0,0.0,0.0,0.0,0.0,0.0,0.0,0.0,0.0,0.0,0.0,0.0,0.0,0.0,0.0,0.0,0.0,0.0,-3.7042,0.0,0.0,0.0,0.0,0.0,0.0,0.0,0.0,0.0,0.0,0.0,0.0,0.0,0.0,0.0,0.0,0.0,0.0,0.0,0.0,0.0,0.0,0.0,0.0,0.0,0.0,0.0,0.0,0.0,0.0,0.0,0.0,0.0,0.0,0.0,0.0,0.0,0.0,0.0,2.5858,2.7024,2.8174,2.6454,2.3299,1.905,0.0,0.0,0.0,0.0,0.0,0.0,0.0,0.0,0.0,0.0,0.0,0.0,0.0,0.0,0.0,0.0,0.0,0.0,0.0,0.0,0.0,0.0,0.0,0.0,0.0,0.0,0.0,0.0,0.0,0.0,0.0,0.0,0.0,0.0,0.0,0.0,0.0,0.0,0.0,0.0,0.0,0.0,0.0,0.0,0.0,0.0,0.0,0.0,0.0,0.0,0.0,0.0,0.0,0.0,0.0,0.0,0.0,0.0,0.0,0.0,0.0,0.0,0.0,0.0,0.0,0.0,0.0,0.0,0.0,0.0,0.0,-3.7878,0.0,0.0,0.0,0.0,0.0,0.0,0.0,0.0,0.0,0.0,0.0,0.0,0.0,0.0,0.0,0.0,0.0,0.0,0.0,0.0,0.0,0.0,0.0,0.0,0.0,0.0,0.0,0.0,0.0,0.0,0.0,0.0,0.0,0.0,0.0,2.5641,2.5523,2.568,2.8074,3.02,3.2005,3.1423,2.7667,2.1404,2.0738,0.0,0.0,0.0,0.0,0.0,0.0,0.0,0.0,0.0,0.0,0.0,0.0,0.0,0.0,0.0,0.0,0.0,0.0,0.0,0.0,0.0,0.0,0.0,0.0,0.0,0.0,0.0,0.0,0.0,0.0,0.0,0.0,0.0,0.0,0.0,0.0,0.0,0.0,0.0,0.0,0.0,0.0,0.0,0.0,0.0,0.0,0.0,0.0,0.0,0.0,0.0,0.0,0.0,0.0,0.0,0.0,0.0,0.0,0.0,0.0,0.0,0.0,0.0,-4.1406,-4.1557,-4.1557,-4.1749,-4.1866,-4.1924,-4.1989,-4.0845,-3.892,-3.8622,0.0,0.0,0.0,0.0,0.0,0.0,0.0,0.0,0.0,0.0,0.0,0.0,0.0,0.0,0.0,0.0,0.0,0.0,0.0,0.0,0.0,3.0588,3.055,3.0409,3.0287,2.9819,0.0,0.0,0.0,0.0,0.0,0.0,2.5268,2.6562,2.7495,2.7971,3.0544,3.1902,3.2097,3.2117,3.0787,2.8378,2.8434,2.6284,2.2535,0.0,0.0,0.0,0.0,0.0,0.0,0.0,0.0,0.0,0.0,0.0,0.0,0.0,0.0,0.0,0.0,0.0,0.0,0.0,0.0,0.0,0.0,0.0,0.0,0.0,0.0,0.0,0.0,0.0,0.0,0.0,0.0,0.0,0.0,0.0,0.0,0.0,0.0,0.0,0.0,0.0,-3.4381,-3.3151,0.0,0.0,0.0,0.0,0.0,0.0,0.0,0.0,0.0,0.0,0.0,0.0,0.0,-4.0769,-4.0773,-4.0982,-4.1077,-4.1039,-4.2605,-4.3353,-4.3411,-4.4919,-4.5585,-4.5604,-4.5605,0.0,-4.0559,-3.9103,0.0,0.0,0.0,0.0,0.0,0.0,0.0,0.0,0.0,0.0,0.0,0.0,0.0,0.0,0.0,0.0,0.0,0.0,0.0,0.0,0.0,3.1561,3.2506,3.1972,3.2361,3.203,3.0582,0.0,0.0,0.0,0.0,2.7558,2.7407,2.864,3.0518,3.3012,3.4043,3.5181,3.6375,3.6419,3.5954,3.504,3.5174,3.1748,2.5677,2.2617,0.0,0.0,0.0,0.0,0.0,0.0,0.0,0.0,0.0,0.0,0.0,0.0,0.0,0.0,0.0,0.0,0.0,0.0,0.0,0.0,0.0,0.0,0.0,0.0,0.0,0.0,0.0,0.0,0.0,0.0,0.0,0.0,0.0,0.0,0.0,0.0,0.0,0.0,0.0,-3.4275,-3.522,-3.3592,-3.4704,-3.4863,0.0,0.0,0.0,0.0,0.0,0.0,0.0,0.0,0.0,-4.0006,-4.1675,-4.2554,-4.2566,-4.3531,-4.4,-4.3995,-4.4782,-4.5155,-4.5194,-4.5957,-4.6308,-4.6308,-4.6308,-4.5428,-4.3857,-4.2138,-4.0815,-3.9784,0.0,0.0,0.0,0.0,-3.7494,-3.6748,0.0,0.0,0.0,0.0,0.0,0.0,0.0,0.0,0.0,0.0,0.0,0.0,3.033,3.2903,3.4446,3.3819,3.4336,3.3964,3.222,3.1307,0.0,0.0,2.8685,2.8577,2.8932,3.056,3.312,3.66,3.6899,3.7851,3.9383,3.9476,3.9352,3.9072,3.9141,3.5496,2.9097,2.5721,2.3338,2.1477,0.0,0.0,0.0,0.0,0.0,0.0,0.0,0.0,0.0,0.0,0.0,0.0,0.0,0.0,0.0,0.0,0.0,0.0,0.0,0.0,0.0,0.0,0.0,0.0,0.0,0.0,0.0,0.0,0.0,0.0,0.0,0.0,0.0,0.0,0.0,0.0,0.0,-3.5416,-3.6526,-3.4608,-3.6479,-3.699,0.0,0.0,0.0,0.0,0.0,0.0,-3.9158,-4.0782,-4.1728,-4.1769,-4.3454,-4.4374,-4.4372,-4.5644,-4.6308,-4.6308,-4.6308,-4.6308,-4.6308,-4.6308,-4.6308,-4.6308,-4.6308,-4.6308,-4.6152,-4.4413,-4.29,-4.1644,-4.1199,-4.0598,-4.0072,-4.0762,-4.02,-3.9286,0.0,0.0,0.0,0.0,0.0,0.0,0.0,0.0,0.0,0.0,0.0,3.208,3.2826,3.4488,3.5545,3.5562,3.5543,3.4803,3.3054,3.283,3.1721,2.9394,2.9986,2.9694,2.8281,3.1796,3.4616,3.6614,3.8249,3.8878,3.8585,3.8815,3.8855,3.873,3.8796,3.7124,3.4169,3.3277,3.053,2.6412,2.1559,0.0,0.0,0.0,0.0,0.0,0.0,0.0,0.0,0.0,0.0,0.0,0.0,0.0,0.0,0.0,0.0,0.0,0.0,0.0,0.0,0.0,0.0,0.0,0.0,0.0,0.0,0.0,0.0,0.0,0.0,0.0,0.0,0.0,0.0,0.0,0.0,0.0,0.0,-3.7284,-3.8584,0.0,0.0,0.0,0.0,-4.0642,-4.0788,-4.083,-4.0961,-4.2502,-4.3434,-4.3569,-4.5253,-4.6172,-4.6172,-4.6269,-4.6308,-4.6308,-4.6308,-4.6308,-4.6308,-4.6308,-4.6308,-4.6308,-4.6308,-4.6308,-4.6152,-4.4412,-4.365,-4.3396,-4.173,-4.1064,-4.1029,-4.1084,-4.1043,-4.0984,0.0,0.0,0.0,0.0,0.0,0.0,0.0,0.0,0.0,2.8208,3.0736,3.2331,3.1519,3.5424,3.7893,3.7357,3.8305,3.8215,3.6465,3.4746,3.3207,3.1867,3.0472,3.0673,3.2714,3.494,3.6818,3.8388,3.8887,3.8807,3.818,3.8535,3.8296,3.756,3.7843,3.7374,3.6286,3.454,3.2495,3.0094,2.6297,2.1885,0.0,0.0,0.0,0.0,0.0,0.0,0.0,0.0,0.0,0.0,0.0,0.0,0.0,0.0,0.0,0.0,0.0,0.0,0.0,0.0,0.0,0.0,0.0,0.0,0.0,0.0,0.0,0.0,0.0,0.0,0.0,0.0,0.0,0.0,0.0,0.0,0.0,-3.9669,-4.1253,0.0,-3.9875,-3.9984,-4.0424,-4.1058,-4.2093,-4.2728,-4.2761,-4.4388,-4.5329,-4.5371,-4.5976,-4.6308,-4.6308,-4.6308,-4.6308,-4.6308,-4.6308,-4.6308,-4.6308,-4.6308,-4.6308,-4.6308,-4.6308,-4.6308,-4.625,-4.5624,-4.5371,-4.5312,-4.4686,-4.4452,-4.4453,-4.4452,-4.4452,-4.4452,0.0,0.0,0.0,0.0,0.0,0.0,0.0,0.0,0.0,2.8962,3.1637,3.3459,3.3163,3.7235,3.973,3.9118,4.0137,3.982,3.7503,3.5723,3.4043,3.2435,3.1247,3.2288,3.5854,3.7126,3.8327,3.9546,3.956,3.9273,3.8652,3.8658,3.8169,3.7286,3.7485,3.7423,3.7051,3.5666,3.4735,3.3936,3.0563,2.5505,1.9683,0.0,0.0,0.0,0.0,0.0,0.0,0.0,0.0,0.0,0.0,0.0,0.0,0.0,0.0,0.0,0.0,0.0,0.0,0.0,0.0,0.0,0.0,0.0,0.0,0.0,0.0,0.0,0.0,0.0,0.0,0.0,0.0,0.0,0.0,-3.8797,-4.0422,-4.1335,-4.304,-4.3567,-4.2088,-4.2236,-4.2541,-4.2829,-4.3913,-4.4585,-4.4588,-4.5664,-4.6308,-4.6308,-4.6308,-4.6308,-4.6308,-4.6308,-4.6289,-4.6267,-4.6267,-4.6245,-4.6237,-4.6237,-4.6241,-4.6267,-4.6267,-4.6288,-4.6308,-4.6308,-4.6308,-4.6308,-4.6308,-4.6308,-4.6308,-4.6308,-4.6308,-4.6308,0.0,0.0,0.0,0.0,0.0,0.0,0.0,2.9904,3.0233,3.2869,3.3968,3.5468,3.7995,3.983,4.0868,4.081,4.079,3.9374,3.6001,3.571,3.4196,3.0884,3.2416,3.458,3.7204,3.8194,3.9053,3.9827,4.0302,4.033,3.9976,3.9206,3.8549,3.7942,3.779,3.7312,3.6609,3.7003,3.7571,3.7885,3.4229,2.9318,2.366,0.0,0.0,0.0,0.0,0.0,0.0,0.0,0.0,0.0,0.0,0.0,0.0,0.0,0.0,0.0,0.0,0.0,0.0,0.0,0.0,0.0,0.0,0.0,0.0,0.0,0.0,0.0,0.0,0.0,0.0,0.0,0.0,0.0,-3.6936,-4.0701,-4.3073,-4.2305,-4.3888,-4.4679,-4.3768,-4.4508,-4.5385,-4.6248,-4.6307,-4.6307,-4.6308,-4.6308,-4.6308,-4.6308,-4.6308,-4.6308,-4.6308,-4.6308,-4.6265,-4.6202,-4.6202,-4.6158,-4.6098,-4.6098,-4.6137,-4.6202,-4.6202,-4.6239,-4.6308,-4.6308,-4.6308,-4.6308,-4.6308,-4.6308,-4.6308,-4.6308,-4.6308,-4.6289,0.0,0.0,0.0,0.0,0.0,0.0,0.0,2.9908,2.9811,3.1229,3.3176,3.5211,3.7285,3.9485,4.0817,4.081,4.0771,3.9805,3.765,3.5788,3.3809,3.1652,3.485,3.7224,3.8397,3.9634,4.0522,4.1033,4.0708,4.0239,3.9629,3.9761,3.8903,3.7281,3.777,3.7481,3.6603,3.6395,3.6952,3.7771,3.6484,3.3158,2.8111,0.0,0.0,0.0,0.0,0.0,0.0,0.0,0.0,0.0,0.0,0.0,0.0,0.0,0.0,0.0,0.0,0.0,0.0,0.0,0.0,0.0,0.0,0.0,0.0,0.0,0.0,0.0,0.0,0.0,0.0,0.0,-3.8092,-4.0576,-4.1306,-4.1879,-4.2898,-4.4705,-4.5371,-4.5618,-4.5499,-4.5717,-4.5994,-4.6288,-4.6308,-4.6308,-4.6308,-4.6308,-4.6308,-4.6308,-4.6308,-4.6308,-4.6308,-4.6243,-4.6212,-4.6202,-4.6147,-4.6118,-4.6098,-4.6098,-4.6137,-4.6202,-4.6202,-4.6239,-4.6308,-4.6308,-4.6308,-4.6308,-4.6308,-4.6308,-4.6308,-4.6308,-4.6308,-4.6289,0.0,0.0,0.0,0.0,0.0,0.0,0.0,3.0435,3.0571,3.2608,3.4127,3.5992,3.8525,4.0038,4.0856,4.0804,4.0106,3.8975,3.7304,3.5113,3.4082,3.4477,3.6779,3.8558,3.9661,4.0768,4.1499,4.1866,4.1624,4.1193,4.061,4.0697,3.9656,3.7744,3.8175,3.7778,3.6843,3.6557,3.6995,3.7792,3.7523,3.4822,3.0309,2.4514,1.6295,0.7168,0.17,-0.3837,-0.8429,-0.6983,0.0,0.0,0.0,0.0,0.0,0.0,0.0,0.0,0.0,0.0,0.0,0.0,0.0,0.0,0.0,0.0,0.0,0.0,0.0,0.0,0.0,0.0,0.0,0.0,-3.9324,-4.2231,-4.3618,-4.3551,-4.3994,-4.5673,-4.5899,-4.5971,-4.6183,-4.6192,-4.6223,-4.6289,-4.6308,-4.6308,-4.6308,-4.6308,-4.6308,-4.6308,-4.6308,-4.6289,-4.6264,-4.6243,-4.6202,-4.6118,-4.6105,-4.6068,-4.5969,-4.5969,-4.6024,0.0,-4.6118,-4.6162,-4.6264,-4.6264,-4.6268,0.0,0.0,0.0,0.0,0.0,-4.6308,-4.6289,0.0,0.0,0.0,0.0,0.0,0.0,0.0,3.131,3.1984,3.5441,3.5892,3.7205,4.0649,4.0994,4.0943,4.0803,3.9257,3.7572,3.5879,3.4508,3.5067,3.7964,3.837,3.9306,4.1009,4.1713,4.224,4.259,4.2759,4.26,4.2109,4.1782,4.0637,3.8868,3.8894,3.8342,3.739,3.7223,3.7376,3.7792,3.7721,3.4771,3.0356,2.9922,2.0379,0.723,0.6517,-0.0241,-0.8795,-0.8582,0.0,0.0,0.0,0.0,0.0,0.0,0.0,0.0,0.0,0.0,0.0,0.0,0.0,0.0,0.0,0.0,0.0,0.0,0.0,0.0,0.0,0.0,0.0,0.0,-4.0037,-4.2186,-4.4473,-4.5185,-4.5539,-4.5689,-4.5805,-4.5966,-4.6167,-4.6183,-4.6217,-4.6289,-4.6308,-4.6308,-4.6308,0.0,0.0,0.0,0.0,-4.6267,-4.6209,-4.6264,-4.6195,-4.6017,-4.6044,-4.5969,-4.58,-4.58,-4.5861,-4.5997,-4.6017,-4.6084,-4.6202,-4.6206,-4.6241,-4.6308,-4.6308,-4.6308,-4.6308,-4.6308,-4.6308,-4.6288,0.0,0.0,0.0,0.0,0.0,0.0,0.0,3.2233,3.2668,3.5528,3.5848,3.7151,4.0696,4.0974,4.0897,4.081,3.9207,3.7489,3.5757,3.6637,3.7497,3.8067,4.0029,4.1555,4.2546,4.2936,4.3363,4.3942,4.3343,4.2754,4.218,4.2375,4.1556,3.9992,3.9985,3.9462,3.8525,3.77,3.7487,3.7739,3.7703,3.3335,2.6796,2.682,1.6133,0.1105,0.0835,-0.5358,-1.3209,-1.1713,-1.2362,-1.3322,-1.1333,-1.1285,0.0,0.0,0.0,0.0,0.0,0.0,0.0,0.0,0.0,0.0,0.0,0.0,0.0,0.0,0.0,0.0,0.0,0.0,0.0,-3.9091,-4.1845,-4.3999,-4.4719,-4.5185,-4.5539,-4.5689,-4.5783,-4.5894,-4.6105,-4.6125,-4.6147,-4.6209,-4.6267,-4.6308,-4.6308,-4.6308,-4.6308,-4.6308,-4.6308,-4.6289,-4.6288,-4.6195,-4.6118,-4.6076,0.0,0.0,-4.58,-4.58,-4.5861,-4.6007,-4.6063,-4.6125,-4.6206,-4.6264,-4.6289,-4.6308,-4.6308,-4.6308,-4.6308,-4.6308,-4.6308,-4.6288,0.0,0.0,0.0,0.0,0.0,0.0,0.0,3.2108,3.2061,3.4303,3.4569,3.5547,3.8155,3.8429,3.8362,3.8294,3.7525,3.6651,3.5709,3.7279,3.8562,3.9278,4.0908,4.2044,4.2578,4.309,4.36,4.4095,4.3642,4.3195,4.2716,4.3087,4.2449,4.09,4.0818,4.0247,3.9293,3.8323,3.8032,3.8234,3.8135,3.3214,2.6472,3.0694,2.1144,0.5524,0.5639,-0.3099,-1.4518,-1.345,-1.4149,-1.4986,-1.2308,-1.3071,-1.4753,0.0,0.0,0.0,0.0,0.0,0.0,0.0,0.0,0.0,0.0,0.0,0.0,0.0,0.0,-3.1756,-3.387,0.0,-3.8664,-3.973,-4.2425,-4.4438,-4.4572,-4.5123,-4.5541,-4.5669,-4.5766,-4.5866,-4.6033,-4.6091,-4.6131,-4.6179,-4.6265,-4.6308,-4.6308,-4.6308,-4.6308,-4.6308,-4.6308,-4.6288,-4.6243,-4.6175,-4.6118,-4.6054,-4.5944,-4.5861,-4.58,-4.58,-4.5841,-4.5898,-4.5936,-4.5998,-4.6105,-4.6167,-4.6239,-4.6289,-4.6234,-4.6241,-4.6308,-4.6265,-4.6243,-4.6237,0.0,0.0,0.0,0.0,0.0,0.0,0.0,0.0,3.1407,3.3087,3.3297,3.3929,3.5625,3.5857,3.5734,3.5347,3.5962,3.62,3.5722,3.7649,3.9326,4.0466,4.1351,4.199,4.2341,4.3042,4.3611,4.4036,4.3961,4.3679,4.3265,4.3734,4.322,4.1922,4.1497,4.0859,4.0102,3.8957,3.8566,3.867,3.8546,3.4535,2.9141,3.4286,2.5077,0.9477,0.9695,-0.041,-1.3838,-1.4045,-1.4743,-1.5136,-1.2995,-1.4704,-1.6975,-1.4033,-1.541,0.0,0.0,0.0,0.0,0.0,0.0,0.0,0.0,-2.6792,-2.8778,-3.2698,-3.3397,-3.3899,-3.5851,-3.7794,-3.94,-4.0228,-4.2632,-4.4383,-4.4383,-4.5039,-4.5526,-4.5648,-4.5742,-4.5861,-4.5979,-4.6033,-4.6112,-4.6186,-4.6241,-4.6289,-4.6308,-4.6308,-4.6308,-4.6308,-4.6308,-4.6268,-4.6212,-4.6199,-4.6125,-4.6008,-4.5986,-4.5898,-4.58,-4.58,-4.58,-4.5814,-4.5848,-4.5925,-4.6046,-4.6112,-4.6206,-4.6289,-4.6162,-4.6195,-4.6268,-4.6206,-4.6195,-4.6171,0.0,0.0,0.0,0.0,0.0,0.0,0.0,0.0,0.0,3.3145,3.325,3.3866,3.5603,3.58,3.5214,3.371,3.6363,3.7435,3.5817,3.878,4.059,4.0588,4.1435,4.222,4.2889,4.346,4.3995,4.4511,4.4402,4.4004,4.3406,4.3915,4.3892,4.3397,4.2195,4.1577,4.136,3.96,3.8619,3.8292,3.8518,3.7995,3.6453,3.0146,1.6973,0.1739,0.1174,-0.3927,-1.0779,-1.3297,-1.3311,-1.2692,-1.4223,-1.5425,-1.6156,-1.5449,-1.5535,-1.596,-1.6531,-1.9216,-2.1904,-2.2102,-2.5061,-2.8217,0.0,-3.0814,-3.254,-3.447,-3.4449,-3.49,-3.7594,-3.8689,-3.9631,-4.104,-4.3015,-4.4383,-4.4383,-4.4976,-4.5473,-4.5603,-4.5712,-4.5822,-4.5898,-4.5966,-4.6046,-4.6105,-4.6167,-4.6239,-4.6308,-4.6308,-4.6308,-4.6308,-4.6308,-4.6308,-4.6289,-4.6162,-4.6105,-4.6084,-4.5902,-4.5808,-4.58,-4.58,-4.58,-4.5814,-4.5979,-4.6118,-4.6171,-4.6243,-4.6289,-4.6289,-4.6212,-4.6202,-4.6206,-4.6137,-4.6147,-4.6171,0.0,0.0,0.0,0.0,0.0,0.0,0.0,0.0,0.0,0.0,3.1681,3.1974,3.2757,3.2834,3.2545,3.1843,3.4942,3.6601,3.5801,3.9,4.0818,4.0679,4.1461,4.2197,4.2813,4.3541,4.4195,4.4776,4.4726,4.4587,4.4353,4.4522,4.4233,4.3492,4.2556,4.1802,4.1157,3.9851,3.9237,3.9142,3.9182,3.9203,3.7747,2.4481,1.4887,0.7869,0.3175,-0.3878,0.0,-1.1745,-1.2494,-1.3271,-1.4188,-1.5758,-1.6997,-1.5802,-1.6404,-1.8056,-2.0914,-2.3178,-2.4987,-2.5988,-2.8839,-3.144,-3.156,-3.3128,-3.5124,-3.7266,-3.7757,-3.8313,-4.0249,-4.0793,-4.1323,-4.2426,-4.3618,-4.4402,-4.4346,-4.4891,-4.5302,-4.5362,-4.551,-4.5677,-4.5841,-4.5941,-4.6027,-4.6091,-4.6158,-4.6237,-4.6308,-4.6308,-4.6308,-4.6308,-4.6308,-4.6308,-4.6308,-4.6206,-4.6137,-4.6098,-4.5988,-4.588,-4.58,-4.58,-4.58,-4.5794,-4.5891,-4.5998,-4.6076,-4.6029,-4.6073,-4.6167,-4.6021,-4.6049,-4.6137,-4.608,-4.6052,-4.606,0.0,0.0,0.0,0.0,0.0,0.0,0.0,0.0,0.0,0.0,0.0,3.0582,3.0629,3.0634,3.0664,3.0698,3.3426,3.5346,3.5761,3.8569,4.0365,4.0706,4.128,4.1859,4.2485,4.3329,4.4077,4.4668,4.4941,4.5074,4.5049,4.4821,4.4349,4.361,4.2709,4.1863,4.1085,4.0122,3.9788,3.9895,3.9797,3.9777,3.8281,2.3593,1.6931,1.3965,0.3078,-0.4977,-1.0373,-1.0315,-1.1113,-1.2317,-1.3374,-1.5313,-1.6924,-1.5673,-1.6719,-1.9124,-2.32,-2.5429,-2.711,-2.9245,-3.2047,-3.428,-3.4036,-3.5395,-3.725,-3.9172,-3.9952,-4.0693,-4.199,-4.2198,-4.248,-4.3375,-4.4011,-4.4374,-4.4318,-4.4789,-4.5173,-4.5201,-4.5362,-4.5547,-4.5723,-4.5861,-4.5977,-4.606,-4.6137,-4.6202,-4.6267,-4.6289,-4.6308,-4.6308,-4.6308,-4.6308,-4.6308,-4.6212,-4.6147,-4.6098,-4.5978,-4.5886,-4.58,-4.58,-4.58,-4.5814,-4.5841,-4.5917,-4.5997,-4.5922,-4.5959,-4.6084,-4.5914,-4.5958,-4.6091,-4.6018,-4.5997,-4.5986,0.0,0.0,0.0,0.0,0.0,0.0,0.0,0.0,0.0,0.0,0.0,0.0,0.0,3.0521,3.0559,3.0692,3.2277,3.3997,3.5698,3.748,3.9169,4.0733,4.0812,4.1177,4.1904,4.2772,4.3522,4.4116,4.5052,4.538,4.5166,4.4531,4.4246,4.4185,4.2482,4.1742,4.1694,4.0502,4.0063,4.0195,4.0104,4.0171,3.9314,3.047,2.3482,1.5876,-0.3153,-0.873,-0.7338,-0.9247,-0.8792,-0.8026,-1.1587,-1.3789,-1.4996,-1.5106,-1.589,-1.7492,-2.0831,-2.3941,-2.7179,-3.0794,-3.4027,-3.6476,-3.7097,-3.8101,-3.9049,-3.9489,-3.9952,-4.0693,-4.199,-4.2198,-4.248,-4.3375,-4.4011,-4.4374,-4.4318,-4.4758,-4.5129,-4.518,-4.5322,-4.5475,-4.5596,-4.5723,-4.5848,-4.5997,-4.608,-4.6131,-4.6202,-4.6265,-4.6308,-4.6308,-4.6308,-4.6308,-4.6308,-4.6162,-4.6105,-4.6098,-4.5902,-4.5814,-4.58,-4.58,-4.58,-4.5814,-4.5941,-4.5997,-4.6007,-4.606,-4.6098,-4.6091,-4.6018,-4.6046,-4.6091,-4.6018,-4.5997,-4.5986,0.0,0.0,0.0,0.0,0.0,0.0,0.0,0.0,0.0,0.0,0.0,0.0,0.0,0.0,0.0,0.0,3.201,3.3328,3.4086,3.6777,3.8596,3.9174,4.0225,4.117,4.195,4.2251,4.2797,4.3578,4.3882,4.4056,4.4068,4.375,4.3385,4.295,4.228,4.1655,4.1102,4.0693,4.0532,4.0535,4.051,4.0535,3.9185,2.6358,2.0164,1.6227,0.0,-0.5941,-0.6049,-0.7487,-0.8468,-0.9473,-1.1756,-1.3413,-1.4564,-1.5246,-1.6937,-1.9267,-2.2525,-2.5836,-2.913,-3.2173,-3.476,-3.6646,-3.6707,-3.8149,-3.9454,-3.9558,-3.9109,-3.8938,-3.9682,-4.0032,-4.0402,-4.1027,-4.2962,-4.4374,-4.4318,-4.4808,-4.5129,-4.5065,-4.5301,-4.5457,-4.5475,-4.5661,0.0,-4.5997,-4.6052,-4.6131,-4.6202,-4.6265,-4.6308,-4.6308,-4.6308,-4.6308,-4.6308,-4.6209,-4.6142,-4.6098,-4.5902,-4.58,-4.58,-4.58,-4.58,-4.5814,-4.5854,-4.5929,-4.6007,-4.6018,-4.6052,-4.6098,-4.6068,-4.6076,-4.6098,-4.6068,-4.608,-4.6052,0.0,0.0,0.0,0.0,0.0,0.0,0.0,0.0,0.0,0.0,0.0,0.0,0.0,0.0,0.0,0.0,0.0,3.218,3.3099,3.5165,3.6834,3.7847,3.8903,3.9857,4.0665,4.0986,4.1427,4.197,4.2606,4.2954,4.3075,4.3002,4.2733,4.2288,4.1869,4.1371,4.0793,4.0793,3.9862,3.8378,3.8408,3.7304,3.4594,2.4781,1.938,0.0,0.5086,-0.1045,-0.4398,-0.6019,-0.7698,-0.9424,-1.1315,-1.3086,-1.4914,-1.6943,-1.8853,-2.1095,-2.5041,-2.7977,-3.0611,-3.3226,-3.5275,-3.66,-3.6707,-3.8149,-3.9418,-3.9558,-3.8589,-3.7895,-3.849,-3.8294,-3.8259,-3.9019,-4.0699,-4.2253,-4.3404,-4.3701,-4.4097,-4.49,-4.5237,-4.5381,-4.54,-4.5596,-4.578,-4.5929,-4.6035,-4.6118,-4.6158,-4.6243,-4.6308,-4.6308,-4.6308,-4.6308,-4.6308,-4.6209,-4.6118,-4.5988,-4.5854,-4.58,-4.58,-4.58,-4.58,-4.58,-4.58,-4.5854,-4.5941,-4.5941,-4.5947,-4.5988,-4.5988,-4.6026,-4.606,-4.606,-4.6076,-4.6098,0.0,0.0,0.0,0.0,0.0,0.0,0.0,0.0,0.0,0.0,0.0,0.0,0.0,0.0,0.0,0.0,0.0,0.0,3.2643,3.2842,3.4047,3.6671,3.6972,3.7446,3.8209,3.9085,3.9537,3.9532,4.1148,4.1955,4.2024,4.1992,4.1933,4.1813,4.0932,4.0474,4.0331,4.0292,3.7845,3.3996,3.3989,3.1041,2.6543,2.5683,2.0948,1.431,1.1137,0.4749,-0.2541,-0.4957,-0.6661,-0.8209,-1.0736,-1.3293,-1.6146,-2.0095,-2.1566,-2.3008,-2.7972,-3.0103,-3.1538,-3.3842,-3.5439,-3.6508,-3.7222,-3.8157,-3.9028,-3.9356,-3.8214,-3.7359,-3.8082,-3.6949,-3.6313,-3.747,-3.7667,-3.875,-4.1879,-4.1851,-4.2379,-4.4729,-4.5125,-4.5258,-4.54,-4.5528,-4.5661,-4.58,0.0,-4.6098,-4.6098,-4.6234,-4.6308,-4.6308,-4.6308,-4.6308,-4.6308,-4.6162,-4.5998,-4.58,-4.58,-4.58,-4.58,-4.58,-4.58,-4.58,-4.58,-4.5814,-4.5814,-4.5814,-4.5794,-4.5827,-4.5827,-4.5886,-4.6007,-4.6007,-4.6054,-4.6091,0.0,0.0,0.0,0.0,0.0,0.0,0.0,0.0,0.0,0.0,0.0,0.0,0.0,0.0,0.0,0.0,0.0,0.0,3.0906,3.2038,3.306,3.3916,3.5823,3.6971,3.7187,3.8096,3.8583,3.8634,3.8385,3.8228,3.8161,3.6842,3.6094,3.5851,3.4871,3.4347,3.4109,3.3422,3.2393,3.1146,3.0362,2.8855,2.649,2.1404,1.7087,1.2836,0.5745,0.0496,-0.3313,-0.49,-0.8728,-1.3398,-1.6464,-1.8811,-2.0841,-2.2877,-2.493,-2.6909,-2.8814,-3.1209,-3.333,-3.3665,-3.4846,-3.6039,-3.6523,-3.7499,-3.8123,-3.758,-3.6208,-3.467,-3.3145,-3.467,-3.6113,-3.5919,-3.9661,-4.2893,-4.3713,-4.4094,-4.4489,-4.5071,-4.5218,-4.5341,-4.5457,-4.5545,-4.5661,0.0,-4.5979,-4.6098,-4.6098,-4.6234,-4.6308,-4.6308,-4.6308,-4.6308,-4.6308,-4.6162,-4.5998,-4.58,-4.58,-4.58,-4.58,-4.58,-4.58,-4.58,-4.58,-4.5867,-4.5953,-4.5953,-4.5988,-4.6016,-4.6016,-4.6033,-4.6068,-4.6068,-4.6084,-4.6091,0.0,0.0,0.0,0.0,0.0,0.0,0.0,0.0,0.0,0.0,0.0,0.0,0.0,0.0,0.0,0.0,0.0,0.0,0.0,3.1,3.18,3.2647,3.3899,3.475,3.5119,3.5295,3.5591,3.6015,3.5058,3.4683,3.4896,3.3697,3.2869,3.2357,3.1661,3.1131,3.071,3.0076,2.8408,0.0,0.0,2.3397,2.0133,1.5796,1.2836,1.0098,0.3315,-0.2657,-0.7753,-1.0747,-1.4286,-1.7904,-2.0484,-2.2366,-2.4149,-2.6531,-2.8627,-3.0403,-3.1514,-3.3591,-3.531,-3.4851,-3.5793,-3.6698,-3.631,-3.6588,-3.6655,-3.5882,-3.3766,-3.1941,-3.1498,-3.3036,-3.4501,-3.4926,-3.852,-4.1844,-4.3459,-4.3615,-4.3994,-4.5058,-4.5194,-4.526,-4.5476,-4.5512,-4.5596,-4.5786,-4.5979,-4.6098,-4.6098,-4.6234,-4.6308,-4.6308,-4.6308,-4.6268,-4.6209,-4.6137,-4.5998,-4.58,-4.58,-4.58,-4.58,-4.58,-4.58,-4.58,0.0,-4.5835,-4.5898,-4.5898,-4.5925,-4.5959,-4.5959,-4.5959,-4.5959,-4.5959,-4.5959,-4.5949,0.0,0.0,0.0,0.0,0.0,0.0,0.0,0.0,0.0,0.0,2.782,0.0,0.0,0.0,0.0,0.0,0.0,0.0,0.0,0.0,3.0461,3.1946,3.1626,3.1802,3.257,3.1898,3.1907,3.2642,3.1602,3.1326,3.1768,3.1148,3.0457,2.9704,2.9203,2.8707,2.8142,2.7625,2.4757,2.0541,2.0275,1.7001,1.2151,0.0,0.9471,0.7461,0.264,-0.4774,-1.3114,-1.8465,-2.0952,-2.2176,-2.4158,-2.5711,-2.7469,-3.0909,-3.2606,-3.3722,-3.5156,-3.6384,-3.7243,-3.6798,-3.7435,-3.7785,-3.6187,-3.5694,-3.5214,-3.4102,-3.1505,-2.9843,-3.1175,-3.1787,-3.2641,-3.4388,-3.6438,-3.9047,-4.2581,-4.2409,-4.2752,-4.4965,-4.5103,-4.5151,-4.5476,-4.5438,-4.551,-4.5786,-4.5988,-4.6091,-4.6098,-4.6212,-4.6289,-4.6308,-4.6308,-4.6239,-4.6098,-4.6098,-4.5998,-4.58,-4.58,-4.58,-4.58,-4.58,-4.58,-4.58,0.0,0.0,-4.58,-4.58,-4.58,-4.58,-4.58,-4.58,-4.58,-4.58,-4.58,-4.58,0.0,0.0,0.0,0.0,0.0,0.0,0.0,0.0,0.0,0.0,2.4615,2.6632,0.0,0.0,0.0,0.0,0.0,0.0,0.0,0.0,0.0,2.9983,2.998,3.0111,3.0433,3.03,3.0254,3.0298,2.906,2.8307,2.7993,2.6222,2.5077,2.4516,2.297,2.2285,2.2153,2.0336,1.8865,1.7677,1.6455,1.4641,1.2656,1.2363,0.0,0.0,0.2135,-0.5333,-1.3264,-1.9622,-2.3623,-2.6703,-3.0863,-3.2886,-3.4053,-3.5925,-3.6717,-3.7162,-3.8008,-3.8406,-3.8532,-3.827,-3.828,-3.7719,-3.5585,-3.5429,-3.4868,-3.1679,-3.1094,-3.0495,-2.8307,-3.0658,-3.335,-3.4454,-3.7891,-4.1396,-4.4071,-4.4557,-4.48,-4.5239,-4.5213,-4.5277,-4.555,-4.5513,-4.5565,-4.5766,-4.5933,-4.6046,-4.6098,-4.6167,-4.6241,-4.6308,-4.6308,-4.6239,-4.6098,-4.6098,-4.5998,-4.58,-4.58,-4.58,-4.58,-4.58,-4.58,-4.58,-4.58,0.0,-4.58,-4.58,-4.58,-4.58,-4.58,-4.58,-4.58,-4.58,-4.58,-4.58,0.0,0.0,0.0,0.0,0.0,0.0,0.0,2.0994,2.0892,1.984,2.0917,2.2527,2.4454,2.5119,2.5742,0.0,0.0,0.0,0.0,0.0,0.0,0.0,0.0,0.0,2.7736,2.7475,2.7447,2.7623,0.0,2.459,2.4655,2.2272,2.0949,2.0432,1.9212,1.8616,1.8487,1.7086,1.6158,1.5492,1.4207,1.3044,1.1986,0.0,0.0,0.0,-0.0358,-0.7288,-1.4419,-2.1489,-2.7525,-3.2529,-3.5206,-3.6625,-3.737,-3.8255,-3.9047,-3.9603,-3.9614,-3.9783,-3.9983,-4.0271,-4.0192,-3.92,-3.6173,-3.5377,-3.4287,-3.0759,-2.9333,-2.8688,-2.8538,-3.0396,-3.2463,-3.3999,-3.8092,-4.157,-4.2933,-4.4374,-4.5297,-4.5297,-4.5235,-4.5319,-4.5568,-4.555,-4.5582,-4.5766,-4.5867,-4.5966,-4.6091,-4.6202,-4.6267,-4.6308,-4.6308,-4.6239,-4.6098,-4.6098,-4.5998,-4.58,-4.58,-4.58,-4.58,-4.58,-4.58,-4.58,-4.58,0.0,-4.58,-4.58,-4.58,-4.58,-4.58,-4.58,-4.58,-4.58,-4.58,-4.58,0.0,0.0,0.0,0.0,0.0,0.0,1.868,1.9118,1.9066,1.7766,1.7938,1.8757,2.0361,2.2169,2.3466,0.0,0.0,0.0,0.0,0.0,0.0,0.0,0.0,0.0,0.0,0.0,0.0,2.5014,2.2695,0.0,0.0,0.0,0.0,0.0,1.6942,1.6487,1.6024,1.5241,1.4435,0.0,0.0,1.1815,0.0,0.0,0.0,0.0,0.0,-0.9287,-1.5736,-2.3033,-3.0109,-3.6097,-3.7474,-3.8379,-3.9002,-3.9412,-4.0186,-4.0948,-4.0954,-4.1163,-4.1516,-4.2103,-4.1997,-4.074,-3.6754,-3.544,-3.4009,-3.0319,-2.8156,-2.7471,-2.9314,-3.0198,-3.1257,-3.307,-3.6747,-3.9814,-4.1132,-4.3005,-4.4516,-4.522,-4.5235,-4.5319,-4.5568,-4.555,-4.5582,-4.5766,-4.5848,-4.5928,-4.6091,-4.6234,-4.6308,-4.6308,-4.6308,-4.6239,-4.6098,-4.6098,-4.5998,-4.58,-4.58,-4.58,-4.58,-4.58,-4.58,-4.58,-4.58,0.0,0.0,-4.58,-4.58,-4.58,-4.58,-4.58,-4.58,-4.58,-4.58,-4.58,0.0,0.0,0.0,0.0,0.0,0.0,1.7792,1.8038,1.7717,1.5889,1.6871,1.7492,1.6791,1.8582,2.0766,0.0,0.0,0.0,0.0,0.0,0.0,0.0,0.0,0.0,0.0,0.0,0.0,2.2798,2.2095,0.0,0.0,0.0,0.0,0.0,0.0,1.562,1.4687,1.3552,0.0,0.0,0.0,0.0,0.0,0.0,0.0,0.0,0.0,-1.035,-1.6656,-2.3213,-2.882,-3.3596,-3.6667,-3.8252,-3.9118,-3.9749,-4.0031,-4.0519,-4.2414,-4.314,-4.3314,-4.3124,-4.2826,-4.1343,-3.6454,-3.5643,-3.4526,-2.977,-2.9204,-2.939,-2.8886,-2.955,-3.0486,-3.1478,-3.2766,-3.524,-3.9775,-4.0669,-4.1951,-4.4954,-4.5235,-4.5319,-4.5568,-4.555,-4.5582,-4.5766,-4.5959,-4.6084,-4.6098,-4.6234,-4.6308,-4.6308,-4.6308,-4.6239,-4.6098,-4.6098,-4.5998,-4.58,-4.58,-4.58,-4.58,-4.58,-4.58,-4.58,-4.58,0.0,0.0,-4.58,-4.58,-4.58,-4.58,-4.58,-4.58,-4.58,-4.58,-4.58,0.0,0.0,0.0,0.0,0.0,0.0,1.7306,1.7261,1.6652,1.4854,1.5506,1.579,1.4919,1.6014,1.7796,2.0233,0.0,0.0,0.0,0.0,0.0,0.0,0.0,0.0,0.0,0.0,2.1719,2.0336,2.002,0.0,0.0,0.0,0.0,0.0,0.0,1.3842,1.3616,1.2566,0.0,0.0,0.0,0.0,0.0,0.0,0.0,0.0,0.0,0.0,-1.7798,-2.5061,-3.0492,-3.4073,-3.3278,-3.4647,-3.715,-4.0329,-4.1249,-4.1655,-4.3483,-4.3952,-4.3855,-4.3684,-4.2474,-4.0463,-3.6945,-3.5368,-3.3753,-3.0469,-2.9615,-2.955,-2.9747,-2.9632,-2.9632,-3.0013,-3.1665,-3.3416,-3.4913,-3.6474,-3.867,-4.1951,-4.2298,-4.312,-4.5376,-4.555,-4.5582,-4.5766,-4.5956,-4.6063,-4.6098,-4.6234,-4.6308,-4.6308,-4.6308,-4.6239,-4.6098,-4.6098,-4.5998,-4.58,-4.58,-4.58,-4.58,-4.58,-4.58,-4.58,-4.58,0.0,0.0,-4.58,-4.58,-4.58,-4.58,-4.58,-4.58,-4.58,-4.58,-4.58,0.0,0.0,0.0,0.0,0.0,1.7271,1.6667,1.64,1.5712,1.4255,1.4694,1.4919,1.4326,1.4995,1.6084,1.7587,1.8269,0.0,0.0,0.0,0.0,0.0,0.0,0.0,0.0,0.0,2.0456,1.8685,1.8665,1.7832,0.0,0.0,1.4234,1.3216,0.0,0.0,0.0,0.0,0.0,0.0,0.0,0.0,0.0,0.0,0.0,0.0,0.0,0.0,0.0,0.0,0.0,-3.3961,-3.1497,-3.24,-3.5036,-3.8655,-4.0256,-4.128,-4.3081,-4.4012,-4.4456,-4.425,-4.2415,-4.0042,-3.7543,-3.5324,-3.3187,-3.0981,-3.0047,-2.9796,-3.0414,-2.9979,-2.939,-2.8916,-3.0318,-3.1437,-3.1325,-3.2891,-3.5239,-3.8539,-3.8862,-4.0219,-4.3772,-4.5004,-4.5648,-4.58,-4.591,-4.6027,-4.6098,-4.6206,-4.6288,-4.6308,-4.6308,-4.6239,-4.6098,-4.6118,-4.6024,-4.58,-4.5854,-4.5841,-4.58,-4.58,-4.58,-4.58,-4.58,0.0,0.0,-4.58,-4.58,-4.58,-4.58,-4.58,-4.58,-4.58,-4.58,-4.58,0.0,0.0,0.0,0.0,0.0,0.0,1.5789,1.538,1.4929,1.412,1.4694,1.5186,1.5093,1.5863,1.6142,1.5476,1.6828,0.0,0.0,0.0,0.0,0.0,0.0,0.0,0.0,0.0,1.9484,1.8207,1.8522,1.7625,1.5638,1.6146,1.4966,1.2424,0.0,0.0,0.0,0.0,0.0,0.0,0.0,0.0,0.0,0.0,0.0,0.0,0.0,0.0,0.0,0.0,0.0,0.0,0.0,-3.2723,-3.3154,-3.3867,-3.5961,-3.8526,-4.0733,-4.337,-4.5389,-4.4996,-4.2962,-4.0482,-3.8134,-3.5627,-3.3182,-3.1033,-3.0595,-3.0585,-3.0602,-3.0587,-3.0025,-2.8299,-2.8087,-2.8682,-3.02,-3.0492,-3.1757,-3.5072,-3.5393,-3.6748,-4.0298,-4.378,-4.58,-4.58,-4.591,0.0,-4.6098,-4.6158,-4.6237,-4.6308,-4.6308,-4.6239,-4.6098,-4.6162,-4.6059,-4.58,-4.5922,-4.5941,-4.58,-4.58,-4.58,0.0,0.0,0.0,0.0,-4.58,-4.58,-4.58,-4.58,-4.58,-4.58,-4.58,-4.58,-4.58,0.0,0.0,0.0,0.0,0.0,0.0,1.6611,1.6327,1.5858,1.5061,1.5583,1.5763,1.5087,1.5354,1.547,1.5224,1.5729,0.0,0.0,0.0,0.0,0.0,0.0,0.0,0.0,0.0,1.8191,1.6412,1.7078,1.6359,1.4368,1.3974,1.2918,1.1247,1.0251,0.9325,0.0,0.0,0.0,0.0,0.0,0.0,0.0,0.0,0.0,0.0,0.0,0.0,0.0,0.0,0.0,0.0,0.0,0.0,0.0,-3.141,-3.3867,-3.6894,-3.8694,-3.9911,-4.0532,-4.0094,-3.826,-3.6323,-3.5355,-3.3371,-3.1526,-3.0762,-3.0637,-3.0678,-3.0676,-3.0676,-3.0101,-2.8359,-2.8081,-2.7854,-2.7148,-2.9038,-3.1719,-3.5014,-3.9512,-4.2744,-4.3765,-4.504,-4.58,-4.58,-4.5854,-4.5925,-4.6091,-4.6118,-4.6171,-4.6308,-4.6308,-4.6239,-4.6098,-4.6125,-4.6024,-4.58,-4.5835,-4.5854,-4.58,-4.58,-4.58,0.0,0.0,0.0,0.0,-4.58,-4.58,-4.58,-4.58,-4.58,-4.58,-4.58,-4.58,-4.58,0.0,0.0,0.0,0.0,0.0,0.0,1.7109,1.6667,1.6146,1.5543,1.5612,1.5448,1.4735,1.4735,1.4659,1.433,1.4595,0.0,0.0,0.0,0.0,0.0,0.0,0.0,1.6148,1.7195,1.6861,1.5031,1.5766,1.521,1.347,1.2838,1.1834,1.0609,0.9885,0.8882,0.0,0.0,0.0,0.0,0.0,0.0,-1.0816,0.0,0.0,0.0,0.0,0.0,0.0,0.0,0.0,0.0,0.0,0.0,0.0,0.0,-3.1802,-3.4107,-3.6225,-3.7594,-3.8314,-3.8004,-3.6215,-3.4465,-3.4207,-3.2396,-3.0736,-3.0644,-3.0665,-3.0698,-3.0697,-3.0418,-2.9726,-2.8326,-2.7809,-2.7569,-2.7423,-2.9173,-3.1718,-3.4974,-4.0246,-4.3628,-4.3555,-4.4877,-4.5757,-4.58,-4.58,-4.5886,-4.6044,-4.6084,-4.6147,-4.6264,-4.6289,-4.6239,-4.6098,-4.6125,-4.6024,-4.58,-4.5835,-4.5867,-4.5847,-4.5814,-4.5814,0.0,0.0,0.0,0.0,-4.58,-4.58,-4.58,-4.58,-4.58,-4.58,-4.58,-4.58,-4.58,0.0,0.0,0.0,0.0,0.0,0.0,0.0,1.645,1.5774,1.5574,1.4995,1.4499,1.4252,1.4111,1.3785,1.312,1.3496,0.0,0.0,0.0,0.0,0.0,0.0,0.0,1.5477,1.6035,1.5581,1.4095,1.4599,1.4156,1.283,1.2353,1.1472,1.0287,1.0643,0.9399,0.6815,0.0,0.0,0.0,0.0,0.0,0.0,0.0,0.0,0.0,0.0,0.0,0.0,0.0,0.0,0.0,0.0,0.0,0.0,0.0,0.0,0.0,0.0,-3.5975,-3.7839,-3.7773,-3.6036,-3.4308,-3.4163,-3.2353,0.0,-3.0613,-3.0651,-3.0651,-3.0535,-2.9848,-2.9013,-2.8139,-2.7278,-2.7598,-3.0143,-3.0907,-3.2382,-3.5618,-3.8818,-4.0787,-4.0847,-4.3731,-4.5661,-4.58,-4.58,0.0,-4.5997,-4.6052,-4.6131,-4.6202,-4.6265,-4.6239,-4.6098,-4.6158,-4.6052,-4.58,-4.5929,-4.5941,-4.5893,-4.5827,-4.5827,0.0,0.0,0.0,0.0,-4.58,-4.58,-4.58,-4.58,-4.58,-4.58,-4.58,-4.58,-4.5752,0.0,0.0,0.0,0.0,0.0,0.0,0.0,0.0,0.0,0.0,1.4854,1.4828,1.5207,1.4206,1.3569,0.0,0.0,0.0,0.0,0.0,0.0,0.0,0.0,0.0,1.5256,1.541,1.4965,1.3968,1.3623,1.3041,1.2191,1.0266,0.922,0.8742,0.6041,0.3133,0.0107,-0.3032,0.0,0.0,0.0,0.0,0.0,0.0,0.0,0.0,-2.4967,-2.6484,0.0,0.0,0.0,0.0,0.0,0.0,0.0,0.0,-2.9678,-3.0007,-3.1025,0.0,-3.2376,-3.2452,-3.2086,-3.1678,0.0,-3.1203,-3.0565,-2.9862,-3.0203,-3.0234,-2.8946,-2.9028,-2.8807,-2.7283,-2.6299,-2.6834,-2.9976,-3.4807,-3.9212,-4.2468,-4.3637,-4.4192,-4.4303,-4.5101,-4.5661,-4.58,-4.58,-4.5867,-4.5997,-4.6052,-4.6131,-4.6202,-4.6265,-4.6239,-4.6098,-4.6118,-4.6016,-4.58,-4.5822,-4.5841,-4.5814,-4.5814,-4.5814,0.0,0.0,0.0,-4.58,-4.58,-4.58,-4.58,-4.58,-4.58,-4.58,-4.58,-4.5708,-4.5481,0.0,0.0,0.0,0.0,0.0,0.0,0.0,0.0,0.0,0.0,1.4156,1.3983,1.4126,1.3388,1.2916,0.0,0.0,0.0,0.0,0.0,0.0,0.0,0.0,1.3758,1.4132,1.4411,1.4047,1.3046,1.2982,1.2113,1.0531,0.943,0.8084,0.6359,0.207,-0.1794,-0.531,-0.7483,-0.9535,0.0,-1.3516,0.0,0.0,0.0,0.0,0.0,-2.5111,-2.627,0.0,-2.7504,-2.7749,-2.8023,0.0,0.0,0.0,0.0,-2.9025,-2.9263,-2.9538,-3.0012,-3.0496,-3.065,-3.0752,-3.08,-3.0793,-3.0785,-3.0502,-2.9583,-2.971,-2.9602,-2.8295,-2.8078,-2.7799,-2.685,-2.7319,-2.8825,-3.1761,-3.5192,-3.8628,-4.1871,-4.2657,-4.3579,0.0,-4.5494,-4.5596,-4.5786,-4.58,-4.5841,-4.5898,-4.6035,-4.6118,-4.6153,-4.6243,-4.6239,-4.6098,-4.6131,-4.6033,-4.58,-4.5848,-4.588,-4.5847,-4.5814,-4.5814,0.0,0.0,0.0,-4.58,-4.58,-4.58,-4.58,-4.58,-4.5737,-4.5658,-4.5658,-4.5274,-4.469,0.0,0.0,0.0,0.0,0.0,0.0,0.0,0.0,0.0,0.0,0.0,0.0,0.0,0.0,0.0,0.0,0.0,0.0,0.0,0.0,0.0,0.0,1.2736,1.2849,1.278,1.3325,1.3018,1.1822,1.2317,1.1381,0.9124,0.8894,0.6876,0.3254,-0.1273,-0.5425,-0.9151,-1.0927,-1.3001,-1.5219,-1.6375,0.0,0.0,0.0,0.0,0.0,0.0,0.0,0.0,-2.6519,-2.7047,-2.7332,-2.7187,0.0,0.0,0.0,0.0,0.0,-2.8574,-2.9653,-3.0674,-3.0386,-3.0459,-3.0599,-3.0605,-3.056,-3.0277,-2.9394,-2.9162,-2.8811,-2.7803,-2.7113,-2.6655,-2.6528,-2.9229,-3.2231,-3.4701,-3.5465,-3.6757,-3.945,-4.0441,0.0,-4.5113,-4.5419,-4.5528,-4.5786,0.0,-4.58,-4.58,-4.5988,-4.6098,-4.6098,-4.6237,-4.6239,-4.6098,-4.6162,-4.6079,-4.58,-4.5941,-4.5953,-4.5893,-4.5833,-4.5827,-4.5893,0.0,0.0,-4.58,-4.58,-4.5766,-4.5752,-4.58,-4.558,-4.5262,-4.5297,-4.4614,-4.3611,0.0,0.0,0.0,0.0,0.0,0.0,0.0,0.0,0.0,0.0,0.0,0.0,0.0,0.0,0.0,0.0,0.0,0.0,0.0,0.0,0.0,1.1331,1.2098,1.2377,1.2147,1.2499,1.2142,1.105,1.1082,1.0789,1.012,0.7441,0.3694,-0.0974,-0.3661,-0.6662,-0.9839,-1.2265,-1.4572,-1.666,-1.8274,0.0,0.0,0.0,0.0,0.0,0.0,0.0,0.0,-2.5514,-2.6062,-2.6556,-2.61,0.0,0.0,0.0,0.0,0.0,-2.7623,-3.0016,-3.1738,-2.9147,-2.9104,-2.9702,-2.9707,-2.9683,-2.9437,-2.8567,-2.8332,-2.7783,-2.6184,-2.6335,-2.6455,-2.5716,-3.0782,-3.5678,-3.8117,-4.1489,-4.3865,-4.4183,0.0,-4.4767,-4.5419,-4.5547,-4.5629,-4.58,0.0,-4.58,-4.58,-4.5988,-4.6098,-4.6098,-4.6237,-4.6239,-4.6098,-4.6162,-4.6079,-4.58,-4.5941,-4.5941,-4.5814,-4.5814,-4.5814,0.0,0.0,-4.58,-4.58,-4.58,-4.5708,-4.5558,-4.5737,-4.5131,-4.4173,-4.4397,-4.3714,-4.2496,0.0,0.0,0.0,0.0,0.0,0.0,0.0,0.0,0.0,0.0,0.0,0.0,0.0,0.0,0.0,0.0,0.0,0.0,0.0,0.0,1.0886,1.0825,1.0939,1.1029,1.1036,1.127,1.0738,0.9392,0.966,0.8692,0.6487,0.2956,-0.0523,-0.4033,-0.6354,-0.9256,-1.2513,-1.5009,-1.7247,-1.9262,0.0,0.0,0.0,0.0,0.0,0.0,0.0,0.0,0.0,0.0,-2.5459,-2.5768,-2.5173,0.0,0.0,0.0,0.0,0.0,-2.5346,-2.6362,-2.7565,-2.8468,-3.152,-3.4319,-3.4312,-3.4331,-3.3728,-3.1465,-3.0576,-2.9392,-2.6738,-2.771,-3.001,-3.3342,-3.4475,-3.6008,-3.9041,-3.9487,-4.0125,-4.181,0.0,-4.3455,-4.5355,-4.558,-4.5661,0.0,0.0,0.0,-4.58,-4.5988,-4.6098,-4.6098,-4.6237,-4.6239,-4.6098,-4.6206,-4.6098,-4.5814,-4.5968,-4.5958,-4.58,-4.58,-4.58,-4.58,0.0,-4.58,-4.58,-4.58,-4.5737,-4.5619,-4.516,-4.4549,-4.3788,-4.2785,-4.2037,-4.1405,0.0,0.0,0.0,0.0,0.0,0.0,0.0,0.0,0.0,0.0,0.0,0.0,0.0,0.0,0.0,0.0,0.0,0.0,0.0,1.1939,1.1078,1.0744,1.0315,1.0025,0.9938,1.0144,0.9444,0.7796,0.7629,0.5286,0.0927,-0.2393,-0.5069,-0.722,-0.9613,-1.2364,-1.5254,-1.7511,-1.961,-2.1617,0.0,0.0,0.0,0.0,0.0,0.0,0.0,0.0,0.0,0.0,0.0,0.0,0.0,0.0,0.0,-2.3783,-2.3353,-2.314,-2.331,-2.3779,-2.5032,-2.8377,-3.2341,-3.5878,-3.7683,-3.7523,-3.6464,-3.4687,-3.3566,-3.187,-2.843,-2.9441,-3.2791,-3.8877,-3.7654,-3.7167,-4.068,-3.882,-3.8003,-4.0491,-4.133,-4.2738,-4.5346,-4.5629,-4.5692,0.0,0.0,0.0,-4.58,-4.5988,-4.6098,-4.6098,-4.6237,-4.6241,-4.6125,-4.6234,-4.6128,-4.5814,-4.5998,-4.5988,-4.58,-4.58,-4.58,-4.58,-4.58,-4.58,-4.58,-4.58,-4.565,-4.5356,-4.4595,-4.3866,-4.3016,-4.1203,-4.0516,-4.0422,0.0,0.0,0.0,0.0,0.0,0.0,0.0,0.0,0.0,0.0,0.0,0.0,0.0,0.0,0.0,0.0,0.0,0.0,0.0,1.354,1.2528,1.1203,1.1015,1.0346,0.91,0.9415,0.8708,0.6996,0.4699,0.0348,-0.5935,-0.7891,-0.9737,-1.1442,-1.3812,-1.5618,-1.706,-1.8932,-2.0828,-2.2603,-2.3817,0.0,0.0,0.0,0.0,0.0,0.0,0.0,0.0,0.0,0.0,0.0,0.0,0.0,-2.3396,-2.2373,-2.1978,-2.2017,-2.2457,-2.5454,-2.8574,-2.9079,-2.7857,-2.8398,-3.5548,-3.4734,-3.3337,-3.6396,-3.6269,-3.4569,-3.1152,-3.0662,-3.1973,-3.5599,-3.8636,-4.1704,-4.5065,-4.5273,-4.5086,-4.5147,-4.526,-4.5395,-4.5594,-4.5708,0.0,0.0,0.0,0.0,-4.58,-4.5988,-4.6098,-4.6098,-4.6237,-4.6267,-4.6199,-4.6206,-4.6066,-4.5814,-4.5998,-4.5988,-4.58,-4.58,-4.58,-4.58,-4.58,-4.58,-4.58,-4.58,-4.521,-4.4314,-4.4295,-4.3063,-4.1165,-4.0094,-3.9695,-3.9695,0.0,0.0,0.0,0.0,0.0,0.0,0.0,0.0,0.0,0.0,0.0,0.0,0.0,0.0,0.0,0.0,0.0,0.0,0.0,1.309,1.2244,1.1183,1.1194,1.0538,0.9034,0.8891,0.7831,0.5821,0.1747,-0.2292,-0.6246,-0.8721,-1.0996,-1.3215,-1.5458,-1.7617,-1.9694,-2.1707,-2.3207,-2.4229,-2.5053,-2.5183,0.0,0.0,0.0,0.0,0.0,0.0,0.0,0.0,-2.2771,-2.2551,-2.2148,-2.1736,-2.1323,-2.0988,-2.0678,-2.0474,-2.069,-2.3973,-2.7503,-2.8157,-2.8097,-2.9931,-3.77,-3.8951,-3.884,-4.0199,-3.9756,-3.8084,-3.4604,-3.5734,-3.7614,-3.8825,-4.1955,-4.4682,-4.5944,-4.6075,-4.5986,-4.5854,-4.5835,-4.5814,-4.5723,0.0,0.0,0.0,0.0,0.0,-4.58,-4.5473,-4.5299,-4.5299,-4.4909,-4.4622,-4.4523,-4.4551,-4.4462,-4.4253,-4.5462,-4.5947,-4.58,-4.58,-4.5529,-4.5045,-4.5045,-4.4755,-4.4253,-4.4253,-4.4012,-4.3573,-4.2787,-4.1528,-4.0123,-3.9739,-3.9602,-3.9602,0.0,0.0,0.0,0.0,0.0,0.0,0.0,0.0,0.0,0.0,0.0,0.0,0.0,0.0,0.0,0.0,0.0,0.0,1.2848,1.3004,1.2488,1.1094,1.1577,1.1119,0.954,0.8548,0.7058,0.5027,0.012,-0.3946,-0.7288,-0.985,-1.2482,-1.5224,-1.7395,-1.9777,-2.2208,-2.3515,-2.4653,-2.561,-2.5788,-2.5956,0.0,0.0,0.0,0.0,0.0,0.0,0.0,0.0,-2.2254,-2.1707,-2.1645,-2.0918,-2.0065,-1.9989,-1.9764,-1.9564,-1.9707,-2.2198,-2.5244,-2.7275,-2.8723,-3.165,-3.9168,-4.061,-4.0961,-4.3127,-4.2259,-4.0363,-3.7984,-3.9491,-4.1089,-4.1011,-4.3938,-4.6192,-4.6203,-4.6111,-4.594,-4.5638,-4.5522,-4.5351,-4.504,0.0,0.0,0.0,0.0,0.0,0.0,-4.4618,-4.4384,-4.4384,-4.3933,-4.3667,-4.3567,-4.3567,-4.3494,-4.3369,-4.4583,-4.5098,-4.5007,-4.5007,-4.4717,-4.4194,-4.4194,-4.3846,-4.3305,-4.3305,-4.3057,-4.2587,-4.1399,-4.0388,-3.9602,-3.9602,-3.9602,-3.9602,0.0,0.0,0.0,0.0,0.0,0.0,0.0,0.0,0.0,0.0,0.0,0.0,0.0,0.0,0.0,0.0,0.0,0.0,1.2088,1.363,1.3461,1.1003,1.2181,1.2155,1.0607,0.8399,0.634,0.4511,-0.0057,-0.4922,-0.9987,-1.194,-1.4612,-1.7821,-2.0037,-2.2259,-2.4277,-2.3971,-2.4902,-2.6559,-2.5991,-2.5966,-2.6199,0.0,0.0,0.0,0.0,0.0,0.0,0.0,-2.2254,-2.1579,-2.0963,-2.0469,-1.9975,-1.9366,-1.9286,-1.9452,-1.9725,-2.0519,-2.2323,-2.6627,-2.9158,-3.2385,-3.9245,-3.8291,-3.789,-4.4695,-4.3465,-4.114,-4.1111,-4.1132,-4.1111,-4.1012,-4.3919,-4.6172,-4.619,-4.6065,-4.5666,-4.4792,-4.4621,-4.4253,-4.3382,0.0,0.0,0.0,0.0,0.0,0.0,-4.3421,-4.3487,-4.3494,-4.3601,-4.3672,-4.3672,-4.3548,-4.3468,-4.3468,-4.333,-4.3285,-4.3305,-4.3305,-4.3305,-4.3285,-4.3285,-4.3285,-4.3285,-4.3266,-4.2533,-4.1285,-4.0283,-3.9777,-3.9602,-3.9602,-3.9602,-3.9602,0.0,0.0,0.0,0.0,0.0,0.0,0.0,0.0,0.0,0.0,0.0,0.0,0.0,0.0,0.0,0.0,0.0,0.0,1.0697,1.1549,1.1682,1.0795,1.138,1.0867,0.9078,0.4703,0.0931,-0.2223,-0.6132,-1.1418,-1.7924,-1.7624,-1.8509,-2.0429,-2.1738,-2.3492,-2.5473,-2.609,-2.7067,-2.826,-2.7882,-2.7649,-2.7274,0.0,0.0,0.0,0.0,0.0,0.0,0.0,0.0,0.0,-2.0283,-1.9692,-1.9272,-1.9002,-1.9146,-1.9409,-1.9448,-2.4067,-2.8671,-2.7834,-3.2455,-3.7801,-4.0135,-4.0529,-4.1518,-4.5436,-4.5453,-4.4006,-4.154,-4.3099,-4.3746,-4.0652,-4.3032,-4.5077,-4.4456,-4.43,-4.4151,-4.3899,-4.3749,-4.3576,0.0,0.0,0.0,0.0,0.0,0.0,0.0,-4.2864,-4.261,-4.2646,-4.2181,-4.1913,-4.1863,-4.1774,-4.1726,-4.1671,-4.159,-4.2164,-4.3305,-4.3305,-4.2976,-4.2396,-4.2396,-4.2067,-4.1525,-4.1379,-4.095,-4.0321,-4.003,-3.9777,-3.9602,-3.9602,-3.9602,-3.9602,0.0,0.0,0.0,0.0,0.0,0.0,0.0,0.0,0.0,0.0,0.0,0.0,0.0,0.0,0.0,0.0,0.0,0.0,0.0,1.0131,1.0362,0.9811,1.0179,0.8909,0.5707,0.0906,-0.3724,-0.8148,-0.985,-1.4136,-2.0594,-2.032,-2.1307,-2.331,-2.4054,-2.5404,-2.7204,-2.7646,-2.8458,-2.9415,-2.8598,-2.8133,-2.7648,0.0,0.0,0.0,0.0,0.0,0.0,0.0,0.0,0.0,-2.0193,-1.9585,-1.9052,-1.8931,-1.9148,-1.9793,-2.1369,-2.5595,-2.9945,-3.158,-3.5775,-4.008,-4.2187,-4.3199,-4.4167,-4.5869,-4.6216,-4.5484,-4.3093,-4.4377,-4.4809,-4.1835,-4.3084,-4.4234,-4.3707,-4.3565,-4.3374,-4.3033,-4.2862,-4.2667,0.0,0.0,0.0,0.0,0.0,0.0,0.0,-4.1957,-4.1738,-4.1827,-4.1386,-4.1144,-4.1108,-4.1,-4.0941,-4.0907,-4.0831,-4.1332,-4.2318,-4.2318,-4.2028,-4.1525,-4.1434,-4.1137,-4.066,-4.0372,-4.012,-3.9892,-3.9823,-3.9703,-3.9602,-3.9602,-3.9602,-3.9602,0.0,0.0,0.0,0.0,0.0,0.0,0.0,0.0,0.0,0.0,1.0464,0.0,0.0,0.0,0.0,0.0,0.0,0.0,0.0,0.0,0.9037,0.8061,0.8265,0.5956,0.0607,-0.31,-0.7681,-1.3257,-1.2413,-1.4666,-1.9893,-2.1219,-2.3366,-2.6195,-2.6546,-2.7597,-2.9112,-2.8751,-2.9188,-3.0014,-2.8575,-2.7856,-2.749,-2.5721,0.0,0.0,0.0,0.0,0.0,0.0,0.0,0.0,-2.0425,-1.9814,-1.9168,-1.9053,-1.9504,-2.0859,-2.4561,-2.6172,-2.8689,-3.6611,-3.9013,-4.0537,-4.4804,-4.5786,-4.5848,-4.6033,-4.6013,-4.5761,-4.5094,-4.4926,-4.4585,-4.3727,-4.3572,-4.3554,-4.3471,-4.3358,-4.298,-4.2174,-4.1974,-4.1615,0.0,0.0,0.0,0.0,0.0,0.0,0.0,-4.096,-4.1047,-4.1111,-4.1091,-4.1108,-4.1108,-4.0979,-4.0907,0.0,-4.0831,-4.079,-4.079,-4.079,-4.079,-4.079,-4.0583,-4.0489,-4.0441,-4.006,-3.9892,-3.9848,-3.9656,-3.9602,-3.9602,-3.9602,-3.9602,-3.9602,0.0,0.0,0.0,0.0,0.0,0.0,0.0,0.0,0.0,0.0,0.0,0.0,0.0,0.0,0.0,0.0,0.0,0.0,0.0,0.0,0.5247,0.5174,0.345,-0.0255,-0.607,-0.7795,-1.1511,-1.7556,-1.8293,-2.0256,-2.3466,-2.499,-2.636,-2.7576,-2.7446,-2.8052,-2.9173,-2.9268,-2.9437,-2.9627,-2.952,-2.8633,-2.7234,-2.5784,-2.4758,0.0,0.0,0.0,0.0,0.0,0.0,0.0,-1.9469,-1.9093,-1.9117,-1.9018,-2.1443,-2.4301,-2.5144,-3.0143,-3.5683,-3.8026,-4.138,-4.4397,-4.5406,-4.5635,-4.5692,-4.5889,-4.5434,-4.4976,-4.4858,-4.4325,-4.3626,-4.2809,-4.2689,-4.244,-4.1757,-4.1585,-4.1451,-4.1208,-4.1148,0.0,0.0,0.0,0.0,0.0,0.0,0.0,-4.0967,-4.1033,-4.1114,-4.117,-4.1125,-4.1108,-4.1108,-4.0979,-4.0907,0.0,-4.0831,-4.079,-4.079,-4.079,-4.079,-4.079,-4.0583,-4.0406,-4.0251,-4.0,-3.9823,-3.9674,-3.9626,-3.9602,-3.9602,-3.9602,-3.9602,-3.9602,0.0,0.0,0.0,0.0,0.0,0.0,0.0,0.0,0.0,0.0,0.0,0.0,0.0,0.0,0.0,0.0,0.0,0.0,0.0,0.0,0.3058,0.2094,-0.05,-0.4147,-0.8877,-1.1311,-1.4814,-1.9478,-2.1708,-2.3713,-2.556,-2.72,-2.856,-2.9668,-2.8739,-2.8948,-2.9858,-2.9679,-2.9739,-2.993,-2.9611,-2.8599,-2.7187,-2.5985,-2.487,-2.3856,-2.3395,0.0,0.0,0.0,0.0,0.0,0.0,0.0,-1.918,-1.9119,-2.0747,-2.3401,-2.72,-3.144,-3.5821,-4.0228,-4.3393,-4.5419,-4.5419,-4.5513,-4.5519,-4.5206,-4.4841,-4.4381,-4.3633,-4.3163,-4.2629,-4.1871,-4.1737,-4.1576,-4.116,-4.1033,-4.0991,-4.0949,-4.0948,0.0,0.0,0.0,0.0,0.0,0.0,-4.0932,-4.1007,-4.1066,-4.1121,-4.1191,-4.1123,-4.1081,-4.1057,-4.0957,-4.0878,-4.0846,-4.0827,-4.079,-4.079,-4.079,-4.0746,-4.0646,-4.0441,-4.0251,-4.004,-3.9826,-3.9703,-3.9602,-3.9602,-3.9602,-3.9602,-3.9602,-3.9602,-3.9602,0.0,0.0,0.0,0.0,0.0,0.0,0.0,0.0,0.0,0.0,0.0,0.0,0.0,0.0,0.0,0.0,0.0,0.0,0.0,0.0,0.0,-0.1924,-0.4355,-0.7337,-1.1042,-1.4385,-1.7599,-2.0705,-2.377,-2.5785,-2.6837,-2.848,-3.0063,-3.1442,-2.9998,-2.9759,-3.0439,-2.9878,-2.9779,-3.0005,-2.9236,-2.8156,-2.6952,-2.5989,-2.4813,-2.3671,-2.3513,-2.3602,-2.3678,0.0,0.0,0.0,0.0,0.0,-1.9305,-1.9264,-1.984,-2.1961,-2.8584,-3.1525,-3.4587,-4.2361,-4.4726,-4.5118,-4.5118,-4.5187,-4.5015,-4.4187,-4.4145,-4.3802,-4.2343,-4.1937,-4.1664,-4.1057,-4.0981,-4.1011,-4.1074,-4.1033,-4.1013,-4.099,-4.0996,0.0,0.0,0.0,0.0,0.0,0.0,-4.0964,-4.1006,-4.1078,-4.1146,-4.1171,-4.1121,-4.1066,-4.0974,-4.0924,-4.0877,-4.079,-4.079,-4.079,-4.079,-4.079,-4.0687,-4.0489,-4.0286,-4.008,-3.9892,-3.9679,-3.9602,-3.9602,-3.9602,-3.9602,-3.9602,-3.9602,-3.9602,-3.9602,0.0,0.0,0.0,0.0,0.0,0.0,0.0,0.0,0.0,0.0,0.386,0.3455,0.0,0.0,0.0,0.0,0.0,0.0,0.0,0.0,0.0,-0.8419,-0.9035,-1.1646,-1.6678,-1.7534,-1.9638,-2.3159,-2.4987,-2.6449,-2.7578,-2.9138,-3.0479,-3.1548,-3.0387,-2.9946,-2.9946,-2.9488,-2.8894,-2.834,-2.8515,-2.7528,-2.5922,-2.5272,-2.4437,-2.3628,-2.3692,-2.3692,-2.3412,-2.1888,-2.1434,0.0,0.0,0.0,-1.9475,-1.9468,-2.1909,-2.4854,-2.5979,-3.1656,-3.8378,-4.3128,-4.4538,-4.4776,-4.4825,-4.4322,-4.3691,-4.3041,-4.3097,-4.3011,-4.2086,-4.1357,-4.0862,-4.083,-4.0914,-4.0994,-4.1006,-4.1062,-4.1072,-4.1012,-4.1001,0.0,0.0,0.0,0.0,0.0,-4.1033,-4.1078,-4.1081,-4.1146,-4.1151,-4.1116,-4.1091,-4.1033,-4.0906,-4.0897,-4.0877,-4.079,-4.079,-4.079,-4.079,-4.079,-4.0687,-4.0489,-4.0286,-4.008,-3.9892,-3.9679,-3.9602,-3.9602,-3.9602,-3.9602,-3.9602,-3.9602,-3.9602,-3.9602,0.0,0.0,0.0,0.0,0.0,0.0,0.0,0.0,0.0,0.0,0.0,0.0723,0.0,0.0,0.0,0.0,0.0,0.0,0.0,0.0,0.0,-0.9463,-1.1894,-1.4437,-1.7095,-1.9248,-2.1627,-2.4342,-2.5362,-2.6739,-2.8473,-2.9839,-3.0921,-3.1683,-3.1204,-3.0856,-3.0575,-2.9853,-2.9125,-2.8471,-2.8179,-2.8403,-2.8676,-2.6184,-2.5841,-2.6443,-2.4574,-2.3978,-2.3909,-2.3024,-2.2611,-2.224,-2.1078,0.0,0.0,0.0,-2.0741,-2.3087,-2.7577,-3.3543,-3.937,-4.2996,-4.4192,-4.443,-4.4457,-4.4002,-4.3317,-4.2598,-4.2176,-4.18,-4.1224,-4.0824,-4.0629,-4.0734,-4.078,-4.0849,-4.0882,-4.0986,-4.1023,-4.1004,-4.1035,0.0,0.0,0.0,0.0,0.0,-4.1081,-4.1108,-4.1108,-4.1168,-4.1169,-4.1091,-4.1108,-4.1047,-4.0907,-4.0907,-4.0877,-4.079,-4.079,-4.079,-4.079,-4.079,-4.0631,-4.0321,-4.0251,-4.002,-3.9727,-3.965,-3.9602,-3.9602,-3.9602,-3.9602,-3.9602,-3.9602,-3.9602,-3.9602,0.0,0.0,0.0,0.0,0.0,0.0,0.0,0.0,0.0,0.0,0.0,0.0,0.0,0.0,0.0,0.0,0.0,0.0,0.0,0.0,0.0,-1.0834,-1.4134,-1.6497,-1.7589,-2.039,-2.2783,-2.4755,-2.5323,-2.6708,-2.887,-3.024,-3.1064,-3.1405,-3.1556,-3.1355,-3.0815,-2.9919,-2.9345,-2.8966,-2.8535,-2.9622,-3.1048,-2.7448,-2.7319,-2.864,-2.5287,-2.4191,-2.4321,-2.3934,-2.3528,-2.3054,-2.2256,-2.1572,0.0,0.0,0.0,-2.1472,-2.8319,-3.2989,-3.6883,-4.1025,-4.2452,-4.3066,-4.3904,-4.3503,-4.2824,-4.2215,-4.1345,-4.0618,-4.0382,-4.0389,-4.0469,-4.0615,-4.0668,-4.0711,-4.078,-4.0871,-4.0961,-4.0994,0.0,0.0,0.0,0.0,0.0,0.0,-4.1138,-4.1138,-4.1138,-4.1152,-4.1144,-4.1074,-4.1074,-4.1006,-4.0868,-4.0868,-4.0846,-4.079,-4.079,-4.079,-4.079,-4.0765,-4.0519,-4.0196,-4.0196,-3.9958,-3.9602,-3.9602,-3.9602,-3.9602,-3.9602,-3.9602,-3.9602,-3.9602,-3.9602,-3.9602,0.0,0.0,0.0,0.0,0.0,0.0,0.0,0.0,0.0,0.0,0.0,0.0,-0.4904,-0.565,-0.6474,-0.7264,-0.7395,-0.8176,-0.9877,-1.1122,-1.278,-1.5073,-1.6173,0.0,-2.0319,-2.121,-2.2536,-2.4437,-2.5029,-2.6371,-2.8389,-3.0089,-3.0675,-3.0308,-3.0958,-3.0742,-2.9929,-2.9168,-2.903,-2.9347,-2.9995,-3.078,-3.1297,-2.8676,-2.8227,-2.8594,-2.5427,-2.4284,-2.4192,-2.3467,-2.3223,-2.3054,-2.2256,-2.193,-2.1826,0.0,0.0,0.0,-2.5834,-2.7415,-2.9587,-3.625,-3.8508,-3.9902,-4.3084,-4.2662,-4.1646,-4.18,-4.064,-3.9642,-3.9816,-4.0042,-4.0286,-4.0489,-4.0615,-4.0694,-4.0706,-4.077,-4.0863,-4.0972,0.0,0.0,0.0,0.0,0.0,0.0,-4.1191,-4.1191,-4.1191,-4.1144,-4.1074,-4.1019,-4.1019,-4.0941,-4.0803,-4.0803,-4.0803,-4.079,-4.079,-4.079,-4.079,-4.0598,-4.0389,-4.0196,-4.0196,-3.9958,-3.9602,-3.9602,-3.9602,-3.9602,-3.9602,-3.9602,-3.9602,-3.9602,-3.9602,-3.9602,0.0,0.0,0.0,0.0,0.0,0.0,0.0,0.0,0.0,0.0,0.0,0.0,0.0,-0.7745,-0.8443,-0.9475,-1.0109,-1.1199,-1.2888,-1.3431,-1.458,-1.6527,-1.8053,-1.9283,-2.0197,-2.1967,-2.3266,-2.4018,-2.4563,-2.5779,-2.7564,-2.8702,-2.9405,-2.9765,-3.15,-3.1283,-2.9564,-2.9349,-2.8763,-2.8049,-2.9206,-3.144,-3.366,-3.006,-3.1421,-3.4614,-2.9894,-2.7869,-2.7389,-2.715,-2.5708,-2.3888,-2.2987,-2.2711,-2.2567,-2.1806,-2.1861,-2.287,-2.6067,-2.7446,-2.9043,-3.352,-3.657,-3.8771,-3.9922,-4.079,-4.1391,-4.1475,-4.0291,-3.9324,-3.9561,-3.9794,-4.0023,-4.0269,-4.0336,-4.0419,-4.0545,-4.0662,-4.0749,-4.0791,0.0,0.0,0.0,0.0,0.0,0.0,0.0,-4.1142,-4.1142,-4.1074,-4.1019,-4.0941,-4.0941,-4.0898,-4.0803,-4.079,-4.079,-4.079,-4.079,-4.079,-4.079,-4.0583,-4.0389,-4.0196,-4.006,-3.9848,-3.9602,-3.9602,-3.9602,-3.9602,-3.9602,-3.9602,-3.9602,-3.9602,-3.9602,-3.9602,0.0,0.0,0.0,0.0,0.0,0.0,0.0,0.0,0.0,-0.7529,0.0,0.0,0.0,0.0,-1.0687,-1.1913,-1.2822,-1.3938,-1.5355,-1.5742,-1.6502,-1.7873,-1.9481,-2.0454,-2.0657,-2.244,-2.3504,-2.3909,-2.4302,-2.5272,-2.6745,-2.7813,-2.8549,-2.9015,-3.1169,-3.1166,-2.9551,-2.9288,-2.8621,-2.7934,-2.9813,-3.2374,-3.4686,-3.1663,-3.3309,-3.662,-3.2122,-3.0145,-2.9808,-3.0567,-2.9422,-2.7394,-2.5669,-2.4414,-2.3362,-2.2481,-2.2522,-2.3268,-2.498,-2.6054,-2.7368,-3.0384,-3.3121,-3.569,-3.784,-3.9227,-4.0283,-4.1114,-4.0359,-3.9491,-3.9406,-3.947,-3.9664,-4.0022,-4.0062,-4.0139,-4.0372,-4.0485,-4.0582,-4.0687,0.0,0.0,0.0,0.0,0.0,0.0,0.0,0.0,-4.107,-4.0994,-4.0941,-4.0877,-4.0877,-4.0854,-4.079,-4.079,-4.079,-4.079,-4.079,-4.079,-4.079,-4.0583,-4.0389,-4.0196,-3.9979,-3.9777,-3.9602,-3.9602,-3.9602,-3.9602,-3.9602,-3.9602,-3.9602,-3.9602,-3.9602,-3.9602,0.0,0.0,0.0,0.0,0.0,0.0,0.0,0.0,-0.9193,-0.9835,0.0,0.0,0.0,0.0,0.0,-1.452,-1.5359,-1.6219,-1.7207,-1.7877,-1.8614,-1.9394,-2.0547,-2.1429,-2.2016,-2.2539,-2.3266,-2.4116,-2.4232,-2.4896,-2.6051,-2.7666,-2.8264,-2.8114,-2.9804,-3.0283,-2.981,-2.8874,-2.8624,-2.9074,-3.1919,-3.3583,-3.4246,-3.3515,-3.3808,-3.4255,-3.1864,-3.097,-3.1262,-3.342,-3.402,-3.3301,-3.0079,-2.6829,-2.4154,-2.3878,-2.3628,-2.3231,0.0,0.0,0.0,-2.6616,-2.8016,-3.044,-3.6826,-3.7838,-3.8151,-4.0603,-4.0644,-4.0011,-3.925,-3.9101,-3.9253,-3.9709,-3.9797,-3.9882,-4.0139,-4.0196,-4.0319,-4.0655,0.0,0.0,0.0,0.0,0.0,0.0,-4.0961,-4.1007,-4.1007,-4.0932,-4.0877,-4.0803,-4.079,-4.079,-4.079,-4.079,-4.079,-4.079,-4.079,-4.079,-4.079,-4.0583,-4.0389,-4.0196,-3.9979,-3.9777,-3.9602,-3.9602,-3.9602,-3.9602,-3.9602,-3.9602,-3.9602,-3.9602,-3.9602,-3.9602,0.0,0.0,0.0,0.0,0.0,-0.815,-0.9344,-0.989,-1.0728,0.0,0.0,0.0,-1.4731,-1.5499,-1.5932,-1.5963,-1.7036,-1.8033,-1.8793,-1.9627,-2.0612,-2.1865,-2.2555,-2.2981,-2.3143,-2.3366,-2.3685,-2.4179,-2.4695,-2.5401,-2.6339,-2.7743,-2.8573,-2.8876,-2.8968,-2.9038,-2.9041,-2.8259,-2.768,-2.7631,-3.1178,-3.3334,-3.4589,-3.6037,-3.8405,-4.0658,-3.8497,-3.718,-3.6602,-3.7404,-3.4506,-2.9968,-2.6683,-2.5004,-2.4116,-2.3696,-2.35,-2.3287,-2.2705,0.0,0.0,0.0,0.0,0.0,-3.0373,-3.2209,-3.4248,-3.6685,-3.6632,-3.6662,-3.8442,-3.8748,-3.8847,-3.9234,-3.9464,-3.9679,-3.988,-4.0081,-4.0232,-4.0336,0.0,0.0,0.0,0.0,0.0,0.0,-4.0896,-4.0924,-4.0924,-4.0848,-4.0808,-4.079,-4.079,-4.079,-4.079,-4.079,-4.079,-4.079,-4.079,-4.079,-4.079,-4.0583,-4.0389,-4.0196,-3.9979,-3.9777,-3.9602,-3.9602,-3.9602,-3.9602,-3.9602,-3.9602,-3.9602,-3.9602,-3.9602,-3.9602,0.0,0.0,0.0,0.0,0.0,-1.0277,-1.1247,-1.2081,-1.3087,0.0,0.0,0.0,-1.7193,-1.7946,-1.8286,-1.8199,-1.8823,-1.9694,-2.0803,-2.1093,-2.1797,-2.3115,-2.32,-2.329,-2.3377,-2.3554,-2.3838,-2.4179,-2.4796,-2.5373,-2.596,-2.721,-2.8112,-2.8606,-2.8311,-2.8402,-2.8698,-2.7631,-2.6993,-2.6969,-3.0738,-3.2939,-3.4236,-3.687,-3.9443,-4.1551,-4.0775,-4.003,-3.9501,-4.0725,-3.67,-3.0825,-2.8887,-2.6401,-2.4097,-2.3592,-2.3414,-2.3294,-2.2825,-2.2764,-2.2816,-2.279,0.0,0.0,-2.9272,-3.1148,-3.3345,-3.6746,-3.7172,-3.7178,-3.815,-3.836,-3.8473,-3.8658,-3.8933,-3.9242,-3.9614,-3.9813,-3.9941,-4.0022,0.0,0.0,0.0,-4.0568,-4.0667,-4.0711,-4.0784,-4.0826,-4.0856,-4.082,-4.079,-4.079,-4.079,-4.079,-4.079,-4.079,-4.079,-4.079,-4.079,-4.0765,-4.0673,-4.0554,-4.0339,-4.006,-3.9937,-3.9777,-3.9602,-3.9602,-3.9602,-3.9602,-3.9602,-3.9602,-3.9602,-3.9602,-3.9602,-3.9602,0.0,0.0,-0.8849,-1.02,-1.1619,-1.2842,-1.3484,-1.4668,-1.5731,0.0,-1.6792,-1.7712,-1.9095,-1.9662,-2.0122,-2.0617,-2.0527,-2.1104,-2.2658,-2.2281,-2.2442,-2.3548,-2.3088,-2.2979,-2.326,-2.3523,-2.3919,-2.4394,-2.4917,-2.5294,-2.5547,-2.6677,-2.7398,-2.7794,-2.7688,-2.7941,-2.8309,-2.6918,-2.6565,-2.7236,-3.0688,-3.2574,-3.3683,-3.6961,-3.8758,-3.9649,-4.0705,-4.0886,-4.0852,-4.2773,-3.9412,0.0,-3.3521,-2.9614,-2.5032,-2.3786,-2.3664,-2.3762,-2.2937,-2.2842,-2.297,-2.297,-2.3095,0.0,-3.0313,-3.1667,-3.3027,-3.7542,-3.8528,-3.8258,-3.7122,-3.697,-3.7,-3.7065,-3.7593,-3.8335,-3.9275,-3.9458,-3.958,-3.975,0.0,0.0,-4.0196,-4.0408,-4.0569,-4.0607,-4.0654,-4.0733,-4.079,-4.079,-4.079,-4.079,-4.079,-4.079,-4.079,-4.079,-4.079,-4.079,-4.079,-4.0706,-4.0519,-4.0504,-4.0286,-3.9916,-3.9914,-3.9777,-3.9602,-3.9602,-3.9602,-3.9602,-3.9602,-3.9602,-3.9602,-3.9602,-3.9602,-3.9602,0.0,-0.9522,-1.083,-1.2263,-1.3243,-1.4202,-1.5221,-1.6268,-1.7189,-1.8079,-1.9357,-2.0345,-2.0895,-2.1005,-2.1084,-2.1167,-2.1671,-2.2136,-2.254,-2.2908,-2.3393,-2.4036,-2.3872,-2.3909,-2.4287,-2.4107,-2.4521,-2.5562,-2.6449,-2.6901,-2.6914,-2.7844,-2.8094,-2.7655,-2.6615,-2.6313,-2.6544,-2.5671,-2.6764,-2.9288,-3.1443,-3.3051,-3.4652,-3.9073,-4.1558,-4.2691,-4.3417,-4.3327,-4.2533,-4.0436,-3.8872,-3.6857,0.0,0.0,0.0,-2.5149,0.0,-2.6675,-2.3537,-2.2738,-2.2764,0.0,0.0,0.0,-2.4388,-2.4622,-2.5431,-2.8289,-2.8373,-2.8526,-3.0523,-3.0409,-3.0168,-3.0537,-3.2739,-3.5425,-3.8343,-3.9181,-3.9508,-3.9556,0.0,0.0,-4.0196,-4.025,-4.037,-4.0588,-4.066,-4.0733,-4.079,-4.079,-4.079,-4.079,-4.079,-4.079,-4.079,-4.079,-4.079,-4.079,-4.079,-4.0778,-4.0733,-4.0569,-4.0356,-4.0139,-3.9958,-3.9777,-3.9602,-3.9602,-3.9602,-3.9602,-3.9602,-3.9602,-3.9602,-3.9602,-3.9602,-3.9602,-0.9826,-1.1018,-1.2186,-1.3332,-1.4572,-1.5766,-1.6899,-1.7814,-1.8734,-1.972,-2.0911,-2.1695,-2.1808,-2.1907,-2.2014,-2.2156,-2.2249,-2.2618,-2.3289,-2.3363,-2.3716,-2.4554,-2.4149,-2.412,-2.4599,-2.4632,-2.4874,-2.5307,-2.6311,-2.6576,-2.6177,-2.6863,-2.7115,-2.6895,-2.5899,-2.5597,-2.5804,-2.5133,-2.6701,-2.9776,-3.1939,-3.433,-3.7021,-4.0577,-4.2678,-4.3795,-4.4231,-4.4202,-4.3677,-4.1738,-3.8958,0.0,-3.4412,-3.2776,-3.0779,0.0,-2.7036,-2.7486,0.0,0.0,0.0,-2.2712,0.0,0.0,0.0,-2.4837,-2.5459,-2.7805,-2.7992,-2.795,-2.8617,-2.8478,-2.8223,-2.8146,-3.0872,-3.31,-3.3361,-3.6666,-3.91,-3.9298,0.0,0.0,-3.9835,-3.9943,-4.0063,-4.0304,-4.0473,-4.0583,-4.0646,-4.0752,-4.079,-4.079,-4.079,-4.079,-4.079,-4.079,-4.079,-4.079,-4.079,-4.0746,-4.0646,-4.0441,-4.0251,-4.004,-3.9826,-3.9679,-3.9602,-3.9602,-3.9602,-3.9602,-3.9602,-3.9602,-3.9602,-3.9602,-3.9602,-3.9602,-1.1408,-1.2656,-1.3638,-1.4242,-1.5712,-1.7157,-1.8151,-1.897,-1.9837,-2.0952,-2.1751,-2.2262,-2.2199,-2.2774,-2.323,-2.3419,-2.3481,-2.3813,-2.465,-2.4237,-2.4164,-2.4618,-2.4016,-2.386,-2.4312,-2.4684,-2.477,-2.4641,-2.5513,-2.5616,-2.5034,-2.5359,-2.5691,-2.6,-2.5929,-2.5717,-2.543,-2.5546,-2.7473,-3.0567,-3.2571,-3.5653,-3.9258,-4.1588,-4.3156,-4.4109,-4.426,-4.4318,-4.4138,-4.2977,-3.9234,-3.5257,-3.645,-3.4219,0.0,0.0,0.0,0.0,0.0,0.0,0.0,0.0,0.0,-2.3241,0.0,0.0,0.0,-2.8459,0.0,-2.8322,-2.7124,0.0,0.0,0.0,0.0,0.0,0.0,-3.2925,0.0,-3.7054,0.0,0.0,0.0,-3.8697,-3.9157,-3.9925,-3.9602,-3.9698,-4.0434,-4.0646,-4.0765,-4.079,-4.079,-4.079,-4.079,-4.079,-4.079,-4.079,-4.079,-4.072,-4.0554,-4.0339,-4.0158,-3.9956,-3.975,-3.965,-3.9602,-3.9602,-3.9602,-3.9602,-3.9602,-3.9602,-3.9602,-3.9602,-3.9602,-3.9602,-1.2463,-1.4307,-1.5737,-1.5516,-1.6679,-1.7847,-1.8324,-1.9094,-2.0003,-2.1195,-2.1753,-2.2032,-2.1929,-2.4019,-2.5363,-2.515,-2.6901,-2.7607,-2.6582,-2.6384,-2.5424,-2.3407,-2.3214,-2.3196,-2.3251,-2.35,-2.3899,-2.4424,-2.4781,-2.504,-2.5164,-2.469,-2.4766,-2.5406,-2.7465,-2.7025,-2.4899,-2.7755,-3.0748,-3.3605,-3.3969,-3.6193,0.0,-4.2136,-4.3633,-4.4318,-4.4121,-4.4048,-4.354,0.0,-3.9221,-3.8138,0.0,-3.4045,-3.674,-2.6855,0.0,0.0,0.0,0.0,0.0,0.0,-2.2659,0.0,0.0,0.0,-2.2914,-2.3168,0.0,0.0,0.0,0.0,0.0,0.0,0.0,0.0,-2.6686,-2.8245,-2.9377,-2.9824,0.0,0.0,0.0,-3.5143,-3.6633,-3.9673,-3.7243,-3.7022,-4.0252,-4.0489,-4.0631,-4.079,-4.079,-4.079,-4.079,-4.079,-4.079,-4.079,-4.079,-4.079,-4.0765,-4.0569,-4.0356,-4.0158,-3.9937,-3.9754,-3.9602,-3.9602,-3.9602,-3.9602,-3.9602,-3.9602,-3.9602,-3.9602,-3.9602,-3.9602,-1.3413,-1.4707,-1.589,-1.5961,-1.6967,-1.8034,-1.8813,-2.0116,-2.1115,-2.136,-2.2241,-2.2867,-2.2927,-2.4116,-2.5349,-2.6436,-2.7366,-2.7602,-2.6808,-2.6781,-2.5971,-2.4151,-2.4193,-2.4426,-2.4769,-2.4947,-2.5095,-2.5212,-2.5411,-2.5426,-2.532,-2.5139,-2.5194,-2.5554,-2.7905,-2.8467,-2.7714,-2.9076,-3.163,-3.4755,-3.4989,-3.7026,0.0,-4.25,-4.3713,-4.4162,-4.4221,-4.4121,-4.3719,0.0,-3.9203,0.0,0.0,0.0,0.0,-2.9909,0.0,0.0,0.0,0.0,0.0,0.0,0.0,0.0,-2.288,0.0,-2.2225,0.0,0.0,0.0,0.0,0.0,0.0,0.0,-2.1756,0.0,0.0,0.0,-2.7926,0.0,0.0,0.0,0.0,0.0,0.0,0.0,-3.6564,-3.6311,-3.987,-4.0339,-4.0554,-4.0612,-4.0733,-4.079,-4.079,-4.079,-4.079,-4.079,-4.079,-4.079,-4.079,-4.0583,-4.0389,-4.0196,-3.9979,-3.9777,-3.9602,-3.9602,-3.9602,-3.9602,-3.9602,-3.9602,-3.9602,-3.9602,-3.9602,-3.9602,-1.4326,-1.5159,-1.6033,-1.6194,-1.7186,-1.8274,-1.9263,-2.0695,-2.1657,-2.1522,-2.2489,-2.3322,-2.3727,-2.4911,-2.6283,-2.7758,-2.871,-2.8734,-2.7464,-2.7315,-2.664,-2.5311,-2.4831,-2.511,-2.618,-2.5785,-2.5531,-2.5428,-2.5473,-2.5394,-2.5247,-2.533,-2.5482,-2.579,-2.8431,-2.9701,-2.9937,-3.0888,-3.3166,-3.6196,-3.6419,-3.8013,-4.0511,-4.2852,-4.386,-4.4036,-4.4221,-4.4121,-4.3698,-4.257,-3.9184,0.0,-3.9698,0.0,-3.2125,0.0,0.0,0.0,-2.5216,0.0,0.0,0.0,0.0,0.0,0.0,0.0,0.0,0.0,0.0,0.0,0.0,0.0,0.0,0.0,0.0,-2.0679,0.0,-2.2324,0.0,0.0,0.0,0.0,0.0,0.0,0.0,-3.7403,-3.4792,-3.5002,-3.9494,-4.0101,-4.0372,-4.0489,-4.0646,-4.0733,-4.079,-4.079,-4.079,-4.079,-4.079,-4.079,-4.079,-4.0646,-4.0473,-4.0269,-4.008,-3.987,-3.9679,-3.9626,-3.9602,-3.9602,-3.9602,-3.9602,-3.9602,-3.9602,-3.9602,-3.9602,-1.5173,-1.6233,-1.6905,-1.6393,-1.7337,-1.8531,-1.9537,-2.0229,-2.0926,-2.1686,-2.2233,-2.2867,-2.3806,-2.7081,-2.9307,-2.9406,-3.2317,-3.2698,-2.9315,-2.8687,-2.7806,-2.6409,-2.4358,-2.4337,-2.6639,-2.4956,-2.4196,-2.4435,-2.426,-2.443,-2.4919,-2.4849,-2.522,-2.6029,-2.9429,-3.0592,-3.0198,-3.3592,-3.6398,-3.8584,-3.8615,-3.9136,-4.0233,0.0,-4.4221,-4.4005,-4.4005,0.0,0.0,-3.99,-3.9239,0.0,0.0,0.0,0.0,0.0,0.0,0.0,0.0,0.0,0.0,-2.3416,0.0,0.0,0.0,0.0,-2.1827,0.0,0.0,0.0,0.0,0.0,0.0,0.0,0.0,0.0,0.0,0.0,0.0,0.0,0.0,0.0,0.0,0.0,0.0,-3.3456,-3.0937,-3.215,-3.9218,-3.9724,-4.0021,-4.0489,-4.0504,-4.0598,-4.079,-4.079,-4.079,-4.079,-4.079,-4.079,-4.079,-4.079,-4.0673,-4.0473,-4.0286,-4.008,-3.987,-3.9679,-3.9602,-3.9602,-3.9602,-3.9602,-3.9602,-3.9602,-3.9602,-3.9602,-1.5788,-1.6585,-1.7111,-1.6976,-1.7809,-1.8934,-2.0076,-2.1255,-2.2388,-2.3478,-2.4699,-2.6061,-2.7617,-2.9169,-3.0505,-3.1679,-3.3057,-3.2691,-2.9714,-2.9809,-2.9319,-2.7866,-2.6069,-2.6163,-2.8362,-2.6587,-2.5749,-2.5931,-2.5715,-2.593,-2.6511,-2.6437,-2.6648,-2.7204,-3.0006,-3.2036,-3.3405,-3.4951,-3.6942,-3.8984,0.0,-3.8306,-4.0215,0.0,0.0,-4.152,-4.3367,-4.3781,0.0,-4.2231,-4.0634,-3.9239,-3.9974,-3.8212,-3.5952,-3.6318,-3.5537,0.0,0.0,0.0,-3.2044,-2.6796,0.0,0.0,0.0,0.0,0.0,0.0,0.0,0.0,0.0,0.0,0.0,0.0,0.0,0.0,0.0,0.0,0.0,0.0,0.0,0.0,0.0,0.0,0.0,-3.3194,-3.2672,-3.4157,-3.8821,-3.9585,-3.9937,-4.01,-4.0356,-4.0519,-4.0598,-4.0733,-4.079,-4.079,-4.079,-4.079,-4.079,-4.079,-4.0687,-4.0489,-4.0286,-4.008,-3.9892,-3.9679,-3.9602,-3.9602,-3.9602,-3.9602,-3.9602,-3.9602,-3.9602,-3.9602,-1.61,-1.682,-1.7459,-1.7631,-1.8677,-1.9803,-2.0827,-2.1942,-2.327,-2.4881,-2.6082,-2.7623,-2.9763,-3.0541,-3.1442,-3.2809,-3.3716,-3.2901,-2.966,-3.0624,-3.0701,-2.9324,-2.8246,-2.8837,0.0,0.0,0.0,-2.7347,-2.647,-2.6384,-2.6935,-2.6615,-2.6753,-2.7397,-2.9183,-3.1698,-3.464,-3.5616,-3.7772,-4.0291,0.0,-3.684,0.0,0.0,-3.9076,-4.0351,0.0,-4.3682,-4.3497,-4.3497,-4.2121,-4.0763,-4.2837,-4.0616,-3.7583,-3.941,-3.8129,-3.5829,-3.4447,-3.514,0.0,-2.9916,-3.0137,0.0,-2.4985,0.0,0.0,0.0,0.0,0.0,0.0,0.0,0.0,0.0,0.0,0.0,0.0,-1.7167,0.0,0.0,0.0,-2.1703,0.0,-2.3982,-2.6542,-3.1135,-3.1637,-3.3323,0.0,0.0,-3.9628,-3.9892,-4.0158,-4.0356,-4.0489,-4.0569,-4.066,-4.079,-4.0733,-4.0733,-4.079,-4.079,-4.0733,-4.0583,-4.0321,-4.0139,-3.9979,-3.9703,-3.9602,-3.9602,-3.9602,-3.9602,-3.9602,-3.9602,-3.9602,-3.9602,-1.62,-1.7057,-1.7948,-1.8497,-1.9901,-2.1136,-2.1757,-2.2379,-2.3554,-2.5933,-2.6461,-2.7667,-3.0324,-3.1441,-3.2306,-3.2985,-3.4392,-3.3535,-2.9481,-3.1363,-3.2075,0.0,-3.0736,-3.1967,-3.4755,0.0,0.0,0.0,-2.6437,-2.5715,-2.6202,-2.5455,-2.5621,-2.6571,-2.7104,-2.9655,-3.3646,-3.5349,-3.8559,-4.1995,-3.7016,-3.5018,-3.5037,-3.5174,-3.7311,-4.0485,-4.2717,-4.3497,-4.3497,-4.3497,-4.3497,-4.3497,-4.3497,-4.3497,-4.341,-4.3032,-4.2595,-4.1474,-3.8135,-3.6824,-3.5717,-3.2668,0.0,0.0,0.0,0.0,-2.5899,0.0,0.0,0.0,0.0,0.0,0.0,0.0,0.0,0.0,0.0,0.0,-1.6841,0.0,0.0,-1.9052,-2.2073,-1.9863,-2.0952,-2.7502,-2.8002,-2.9846,0.0,0.0,-3.8968,-3.9851,-3.9892,-4.008,-4.0473,-4.0304,-4.0425,-4.0778,-4.0598,-4.0612,-4.079,-4.079,-4.079,-4.0778,-4.0392,-4.0214,-4.0177,-3.9777,-3.9602,-3.9602,-3.9602,-3.9602,-3.9602,-3.9602,-3.9602,-3.9602,-1.6744,-1.8094,-1.9622,-2.104,-2.1209,-2.1502,-2.2599,-2.2996,-2.4408,-2.7676,-2.8492,-2.9926,-3.3045,-3.3602,-3.3995,-3.4534,-3.5284,-3.4835,0.0,0.0,0.0,-3.3567,-3.2369,-3.266,-3.4771,-3.0514,-2.8293,-2.8351,0.0,-2.4808,-2.5328,-2.508,-2.5212,-2.5745,-2.6254,-2.7772,-3.0007,-3.1166,-3.3296,-3.5854,-3.5253,-3.5082,-3.5465,0.0,-3.9301,-4.0485,-4.2717,-4.3497,-4.3497,-4.3497,-4.3497,-4.3497,-4.3497,-4.3497,-4.341,-4.3032,-4.2595,-4.1937,-4.068,-4.0026,-3.8928,-3.5821,-3.5022,-3.4151,0.0,0.0,0.0,0.0,0.0,0.0,0.0,0.0,0.0,0.0,-1.6451,0.0,0.0,0.0,0.0,-1.7027,0.0,0.0,-1.8812,-2.0514,-2.3258,-2.7379,-2.7982,-3.0774,0.0,0.0,0.0,-3.9508,-3.98,-3.9937,-4.006,-4.0304,-4.0473,-4.0583,-4.0673,-4.0746,-4.079,-4.079,-4.079,-4.079,-4.0519,-4.0339,-4.0177,-3.9935,-3.9731,-3.9602,-3.9602,-3.9602,-3.9602,-3.9602,-3.9602,-3.9602,-1.7183,-1.8791,-2.0642,-2.2199,-2.3062,-2.3832,-2.4769,-2.4223,-2.509,-2.902,-2.9535,-3.0476,-3.3059,-3.3972,-3.4601,-3.5169,-3.5608,0.0,-3.3676,0.0,0.0,-3.4406,-3.4425,-3.5053,-3.6297,-3.2998,0.0,-2.9631,0.0,-2.5596,-2.4768,-2.4356,-2.4444,-2.4936,-2.5452,-2.6637,-2.8483,-3.1798,-3.3386,-3.3789,-3.5593,-3.652,0.0,-3.8713,-4.0325,-4.182,-4.307,-4.3497,-4.3497,-4.3497,-4.3497,-4.3497,-4.3497,-4.3497,-4.341,-4.3032,-4.2595,-4.2074,-4.1604,-4.1209,-4.0457,-3.8687,-3.8257,-3.7421,-3.423,-3.3447,-3.3054,0.0,0.0,0.0,0.0,0.0,0.0,-1.6955,0.0,0.0,0.0,0.0,0.0,0.0,-1.6977,0.0,-1.7408,-1.9437,-2.2089,-2.5359,-2.5746,-2.7585,0.0,0.0,0.0,-3.7069,-3.7431,-3.8329,-3.9873,-3.8594,-3.8795,-4.0489,-4.0539,-4.0631,-4.079,-4.079,-4.079,-4.079,-4.0583,-4.0441,-4.0304,-4.002,-3.9826,-3.9727,-3.9626,-3.9602,-3.9602,-3.9602,-3.9602,-3.9602,-1.7904,-1.9475,-2.1196,-2.2557,-2.4916,-2.6837,0.0,-2.6078,0.0,-3.0272,0.0,-3.0431,-3.2102,-3.3594,-3.4668,-3.5234,-3.5657,-3.5293,-3.3848,-3.6088,-3.66,-3.4547,-3.6384,-3.7743,-3.8181,-3.632,-3.4038,0.0,0.0,-2.7061,-2.4481,-2.3717,-2.3626,-2.4171,-2.4608,-2.5967,-2.82,-3.3789,-3.5202,-3.3927,-3.683,-3.8285,-3.8762,-3.9166,-4.1075,-4.3497,-4.3497,-4.3497,-4.3497,-4.3497,-4.3497,-4.3497,-4.3497,-4.3497,-4.341,-4.2957,-4.2498,-4.2074,-4.1561,-4.1163,-4.0888,-4.0888,-4.0888,-4.0181,-3.7394,-3.6732,-3.5951,-3.3265,-3.1693,-3.0588,0.0,0.0,0.0,0.0,0.0,0.0,0.0,0.0,0.0,0.0,0.0,0.0,0.0,0.0,0.0,-2.2735,-2.2503,0.0,0.0,0.0,0.0,-3.4711,-3.509,0.0,-3.9167,0.0,-3.6805,-3.9819,-4.0093,-4.0441,-4.079,-4.079,-4.079,-4.079,-4.0631,-4.0519,-4.0473,-4.012,-3.9956,-3.987,-3.9679,-3.9602,-3.9602,-3.9602,-3.9626,-3.9656,-2.0233,-2.0876,-2.1656,-2.3082,-2.5368,-2.773,-2.9912,-2.951,-2.9788,-3.2058,-3.1883,-3.2176,-3.382,-3.4211,-3.4787,-3.5737,-3.5849,0.0,0.0,0.0,0.0,-3.6884,-3.7275,-3.7524,-3.7642,-3.5639,-3.3541,0.0,0.0,0.0,-2.4406,-2.4214,-2.3829,-2.3337,-2.3732,-2.5446,-2.8126,-2.9189,0.0,-3.327,-3.6648,-3.8285,-3.9001,-4.1644,-4.3002,-4.3497,-4.3497,-4.3497,-4.3497,-4.3497,-4.3497,-4.3497,-4.3497,-4.3497,-4.3321,-4.2559,-4.2239,-4.205,-4.1209,-4.0965,-4.0888,-4.0888,-4.0888,-4.0733,-4.0198,-4.0077,-3.9876,-3.9221,-3.7922,-3.5949,-3.2866,0.0,0.0,0.0,0.0,0.0,0.0,0.0,0.0,0.0,0.0,-1.9509,0.0,0.0,0.0,0.0,0.0,0.0,0.0,0.0,0.0,0.0,-3.8552,0.0,0.0,0.0,-3.8003,-3.6151,-3.9065,-4.0569,-4.079,-4.079,-4.079,-4.079,-4.0746,-4.066,-4.0489,-4.0406,-4.0196,-3.987,-3.9679,-3.9602,-3.9602,-3.9602,-3.9703,-3.9848,-2.1425,-2.1782,-2.2627,-2.5077,-2.7495,0.0,0.0,-3.2961,-3.3308,-3.3427,-3.2559,-3.2247,-3.3059,-3.412,-3.5103,-3.5849,-3.618,-3.6646,-3.748,-3.748,-3.748,-3.748,-3.7786,-3.7927,-3.7927,-3.7521,-3.5562,-3.1991,0.0,0.0,0.0,0.0,-2.4585,-2.4235,-2.5729,-2.7023,-2.8297,0.0,0.0,-3.549,-3.8832,-4.0456,-4.1063,-4.2823,-4.3497,-4.3497,-4.3497,-4.3497,-4.3497,-4.3497,-4.3497,-4.3497,-4.3497,-4.3339,-4.3069,-4.24,-4.2032,-4.1692,-4.1088,-4.0888,-4.0888,-4.0888,-4.0888,-4.0888,-4.0888,-4.0888,-4.0776,-4.0402,-3.9286,-3.7079,-3.269,-2.7337,0.0,0.0,0.0,0.0,0.0,0.0,-2.4885,0.0,0.0,0.0,0.0,0.0,0.0,0.0,0.0,0.0,0.0,0.0,0.0,0.0,0.0,0.0,0.0,0.0,0.0,-3.7661,-3.9466,-4.0457,-4.0646,-4.0746,-4.079,-4.079,-4.079,-4.0752,-4.0646,-4.0441,-4.012,-3.9731,-3.965,-3.9602,-3.9602,-3.9727,-3.9892,-4.006,-2.2412,-2.2709,-2.3681,-2.692,-2.9291,-3.1474,-3.3523,-3.5047,-3.5604,-3.464,-3.327,-3.2463,-3.2496,-3.412,-3.5415,-3.5849,-3.6383,-3.6907,-3.7464,-3.748,-3.748,-3.748,-3.8171,-3.8505,-3.8505,-3.9804,-3.8275,0.0,0.0,0.0,0.0,0.0,0.0,0.0,0.0,0.0,0.0,0.0,-3.7303,-3.8507,-4.1037,-4.2378,-4.292,-4.3268,-4.3428,-4.3497,-4.3497,-4.3497,-4.3497,-4.3497,-4.3497,-4.3497,-4.3497,-4.3214,-4.2806,-4.2338,-4.1864,-4.1401,-4.1012,-4.0888,-4.0888,-4.0888,-4.0888,-4.0888,-4.0888,-4.0888,-4.071,-4.0053,-3.8916,-3.6525,-3.1558,-2.8699,0.0,0.0,0.0,0.0,0.0,0.0,0.0,0.0,0.0,0.0,-2.2264,0.0,0.0,0.0,0.0,0.0,0.0,0.0,0.0,0.0,0.0,-3.5315,-3.7389,0.0,-3.6726,0.0,-3.9757,-4.0304,-4.0504,-4.072,-4.079,-4.079,-4.079,-4.0778,-4.072,-4.0339,-3.9979,-3.9674,-3.9626,-3.9602,-3.9626,-3.9845,-4.002,-4.0214,-2.379,-2.3992,-2.4699,0.0,0.0,-3.105,-3.2763,-3.4123,-3.5224,-3.5981,-3.4936,-3.4138,-3.4138,-3.4802,-3.5415,-3.5849,-3.6383,-3.6907,-3.7464,-3.748,-3.748,-3.748,-3.8637,-3.9275,-3.9275,-4.1109,-4.0849,0.0,0.0,0.0,0.0,0.0,0.0,0.0,0.0,0.0,0.0,-3.6452,-3.8426,-4.1156,-4.1438,-4.2115,-4.2882,-4.292,-4.3178,-4.3497,-4.3497,-4.3497,-4.3497,-4.3497,-4.3497,-4.3497,-4.3497,-4.3214,-4.2806,-4.2338,-4.1864,-4.1401,-4.1012,-4.0888,-4.0888,-4.0888,-4.0888,-4.0888,-4.0888,-4.0888,-4.0662,-3.9817,-3.8133,-3.5432,-3.1073,-3.0011,-2.8895,0.0,0.0,0.0,0.0,0.0,-3.2941,-3.01,0.0,0.0,0.0,-1.9783,0.0,0.0,-2.1941,0.0,0.0,0.0,0.0,-3.3515,0.0,-3.3049,-3.0283,-3.6143,0.0,-3.5401,-3.8651,-4.0304,-4.0504,-4.072,-4.079,-4.079,-4.079,-4.0706,-4.0504,-4.0286,-4.008,-3.9848,-3.9656,-3.9602,-3.9626,-3.9845,-4.002,-4.0233,0.0,0.0,0.0,0.0,0.0,0.0,0.0,-3.4555,-3.5009,-3.5706,-3.4965,-3.4414,-3.4414,-3.5103,-3.5737,-3.5849,-3.6693,-3.7285,-3.748,-3.748,-3.767,-3.8081,-3.8959,-3.9632,-4.0037,-4.1472,-4.1153,0.0,0.0,0.0,0.0,0.0,0.0,0.0,0.0,-3.5382,-3.6572,-3.8443,-3.9961,-4.1163,-4.1401,-4.1735,-4.2074,-4.2378,-4.2577,-4.2732,-4.2732,-4.2732,-4.2732,-4.2732,-4.2902,-4.3142,-4.3142,-4.2655,-4.2032,-4.1821,-4.149,-4.1117,-4.0918,-4.0888,-4.0888,-4.0888,-4.0888,-4.0888,-4.0888,-4.0888,-4.0614,-3.9558,-3.7785,-3.5817,-3.3999,-3.1825,-3.0497,0.0,0.0,0.0,0.0,0.0,0.0,-3.0645,0.0,-2.5659,0.0,0.0,0.0,0.0,0.0,0.0,0.0,0.0,0.0,-3.0677,0.0,-3.5565,-3.2333,-3.7159,-3.8968,-3.7725,-3.929,-4.0139,-4.0321,-4.0539,-4.0944,-4.1525,-4.1525,-4.162,-4.1817,-4.1743,-4.1502,-4.1154,-4.1073,-4.1142,-4.1316,-4.1502,-4.1705,-4.1903,-2.785,0.0,-2.8381,0.0,-3.1351,-3.2011,-3.4346,-3.4467,-3.4568,-3.5119,-3.4737,-3.4414,-3.4414,-3.5285,-3.5913,-3.5913,-3.6892,-3.748,-3.748,-3.767,-3.8002,-3.8491,-3.9461,0.0,-4.0799,-4.2003,-4.1957,-4.0612,-3.8014,0.0,0.0,0.0,0.0,0.0,-3.7749,-3.8353,-3.8094,-4.006,-4.0888,-4.0918,-4.1209,-4.1401,-4.1516,-4.1864,-4.2074,-4.2198,-4.2198,-4.2198,-4.2198,-4.2198,-4.2338,-4.2498,-4.2634,-4.2157,-4.1472,-4.1472,-4.1209,-4.0888,-4.0888,-4.0888,-4.0888,-4.0888,-4.0888,-4.0888,-4.0888,-4.0888,-4.0563,-3.9359,-3.7653,-3.6274,-3.6026,-3.3614,-3.2067,-3.3317,0.0,0.0,0.0,-3.4352,0.0,-3.0645,-2.7555,-2.6075,-2.6945,-2.1407,0.0,0.0,0.0,0.0,0.0,0.0,0.0,0.0,0.0,0.0,0.0,-3.7791,-3.9602,-3.9602,-3.98,-3.9958,-4.012,-4.0321,-4.0827,-4.1556,-4.1494,-4.1649,-4.1991,-4.216,-4.1996,-4.168,-4.1897,-4.2178,-4.2382,-4.2351,-4.2449,-4.2598,-2.8665,-2.8607,-2.8986,-3.1424,-3.1305,-3.1447,-3.3453,-3.3477,-3.3719,-3.4696,-3.4586,-3.4414,-3.4414,-3.5285,-3.5913,-3.5913,-3.6892,-3.748,-3.748,-3.8128,-3.8507,0.0,0.0,-4.1484,-4.1484,-4.2818,-4.3789,-4.4434,0.0,0.0,-3.9526,0.0,-3.6749,-3.9595,-3.8905,-3.9836,-4.1871,-4.1181,-4.0888,-4.0888,-4.0935,-4.1163,-4.1472,-4.1534,-4.1778,-4.2198,-4.2198,-4.2198,-4.2198,-4.2198,-4.1906,-4.1604,-4.2074,-4.1864,-4.1472,-4.1472,-4.1209,-4.0888,-4.0888,-4.0888,-4.0888,-4.0888,-4.0888,-4.0888,-4.0888,-4.0888,-4.0521,-3.9255,-3.7719,-3.6448,-3.6075,-3.5363,-3.3859,-3.0853,0.0,0.0,0.0,0.0,0.0,-3.0645,-2.7555,-2.6896,-2.9929,-2.474,0.0,0.0,0.0,0.0,0.0,0.0,0.0,-3.3028,-3.3743,0.0,-3.3917,-3.7698,-3.9602,-3.9602,-3.98,-3.9914,-3.9914,-4.012,-4.0321,-4.0508,-4.0306,-4.0233,-4.0291,-4.087,-4.0981,-4.0891,-4.1698,-4.2178,-4.2325,-4.1644,-4.153,-4.1636,-3.0158,-3.0437,-3.0774,-3.1583,-3.1712,-3.2061,-3.2911,-3.3184,-3.348,-3.4041,-3.4257,-3.4414,-3.4414,-3.5285,-3.5913,0.0,-3.6892,-3.7686,0.0,-3.8397,-3.895,-3.9898,-4.0531,-4.134,-4.2229,-4.3037,-4.3823,-4.4502,0.0,0.0,0.0,-3.96,-4.0452,-4.2819,-4.2578,-4.2285,-4.1974,-4.1733,-4.1336,-4.0888,-4.0888,-4.0965,-4.1071,-4.1071,-4.1163,-4.13,-4.13,-4.13,-4.13,-4.13,-4.1209,-4.1134,-4.1255,-4.1209,-4.1071,-4.1071,-4.1012,-4.0888,-4.0888,-4.0888,-4.0888,-4.0888,-4.0888,-4.0888,-4.0888,-4.0597,-4.0169,-3.9816,-3.8588,-3.7446,-3.6887,-3.6158,-3.5181,-3.3694,-3.4239,0.0,0.0,0.0,-3.0553,-2.7522,-2.4401,-2.3751,0.0,-2.3614,0.0,0.0,0.0,0.0,0.0,0.0,0.0,0.0,-3.4752,0.0,-3.391,-3.7698,-3.9602,-3.9602,-3.9656,-3.9754,-3.9914,-4.012,-4.0519,-4.1109,-4.1036,-4.1284,-4.1708,-4.1908,-4.1855,-4.1642,-4.1897,-4.2257,-4.2578,-4.2353,-4.2501,-4.2767,-3.0555,-3.114,-3.1609,-3.1609,-3.1963,-3.2241,-3.2503,-3.2846,-3.3199,-3.3563,-3.3908,-3.4332,-3.4668,-3.5415,0.0,-3.5913,-3.6892,-3.7765,-3.8476,-3.8744,-3.9392,-4.0546,-4.0846,-4.1357,-4.2206,0.0,0.0,-4.4128,-4.3117,-4.2627,-4.2627,-4.2627,-4.3387,-4.4699,-4.4406,-4.3751,-4.2819,-4.2233,-4.1716,-4.1267,-4.0991,-4.0888,-4.0888,-4.0888,-4.0888,-4.0888,-4.0888,-4.0888,-4.0888,-4.0888,-4.0888,-4.0888,-4.0888,-4.0888,-4.0888,-4.0888,-4.0888,-4.0888,-4.0888,-4.0888,-4.0888,-4.0888,-4.0888,-4.0888,-4.0888,-4.0566,-4.0254,-4.0121,-3.916,-3.8202,-3.7599,-3.692,-3.6174,-3.5429,-3.5313,-3.4769,-3.3333,0.0,-2.9091,0.0,0.0,0.0,0.0,-2.6033,0.0,0.0,0.0,0.0,0.0,0.0,0.0,-3.2054,-3.6512,0.0,-3.5799,-3.8308,-3.9602,-3.9602,-3.9602,-3.9674,-3.98,-3.9914,-4.0286,-4.0843,-4.0762,-4.1,-4.1465,-4.1695,-4.1701,-4.1586,-4.1971,-4.2337,-4.266,-4.2431,-4.2544,-4.2763,-3.0006,-3.0863,0.0,0.0,-3.1963,0.0,-3.2182,-3.2503,-3.2903,-3.3269,-3.3687,-3.4235,-3.5103,-3.5672,-3.5991,-3.5991,0.0,0.0,0.0,-3.9155,-3.985,-4.064,-4.1257,-4.1588,-4.1588,-4.2269,-4.2941,-4.3571,-4.4818,-4.5423,-4.5423,-4.5423,-4.5423,-4.5389,-4.4665,-4.4337,-4.4182,-4.2699,-4.2043,-4.1923,-4.1181,-4.0888,-4.0888,-4.0888,-4.0888,-4.0888,-4.0888,-4.0888,-4.0888,-4.0888,-4.0888,-4.0888,-4.0888,-4.0888,-4.0888,-4.0888,-4.0888,-4.0888,-4.0888,-4.0888,-4.0888,-4.0888,-4.0888,-4.0888,-4.0888,-4.0793,-4.06,-4.0238,-3.9479,-3.874,-3.8316,-3.7649,-3.6936,-3.6208,-3.5909,-3.4473,-3.0865,0.0,0.0,0.0,0.0,0.0,0.0,-3.1122,-3.2874,0.0,0.0,0.0,0.0,0.0,-3.1258,-3.8083,-3.8799,-3.9076,-3.9076,-3.9466,-3.9677,-3.9602,-3.9602,-3.9602,-3.9602,-3.9602,-3.9703,-3.987,-3.9679,-3.9703,-3.9927,-4.0484,-4.0722,-4.0804,-4.177,-4.2281,-4.245,-4.1848,-4.1735,-4.1816,0.0,0.0,-3.1122,-3.1736,-3.2036,-3.2182,-3.2182,-3.2988,-3.3451,-3.3339,-3.4423,-3.5234,-3.5234,-3.6006,-3.6523,-3.6523,-3.7089,-3.7986,-3.9187,-3.9408,-4.0056,-4.1304,-4.1509,-4.1588,-4.1588,-4.2269,-4.3125,-4.4259,-4.5015,-4.5423,-4.5423,-4.5423,-4.5423,-4.5371,-4.5234,-4.4837,-4.4216,-4.3285,-4.2543,-4.1923,-4.1181,-4.0888,-4.0888,-4.0888,-4.0888,-4.0888,-4.0888,-4.0888,-4.0888,-4.0888,-4.0888,-4.0888,-4.0888,-4.0888,-4.0888,-4.0888,-4.0888,-4.0888,-4.0888,-4.0888,-4.0888,-4.0888,-4.0888,-4.0888,-4.0888,-4.0935,-4.0905,-4.06,-4.0251,-3.9697,-3.8841,-3.8252,-3.7715,-3.697,-3.4805,-3.2823,-3.1925,-2.9783,0.0,0.0,-2.7226,-2.8535,-3.1911,-3.2681,-3.3402,0.0,0.0,0.0,0.0,-3.4378,-3.5211,-3.9007,-4.0175,-4.072,-4.072,-4.0587,-4.0196,-3.9602,-3.9602,-3.9602,-3.9602,-3.9602,-3.9626,-3.9656,-3.9626,-3.9626,-3.9674,-3.9833,-3.9877,-3.9902,-4.0314,-4.061,-4.0806,-4.079,-4.0921,-4.1061,-2.9834,-3.0374,-3.0949,-3.1783,-3.23,-3.2574,-3.2241,-3.3255,-3.3919,-3.3659,-3.4662,-3.5529,-3.5879,-3.6399,-3.6785,-3.7029,-3.7345,-3.8049,-3.9408,-3.9503,-4.0135,-4.1525,-4.1588,-4.1588,-4.1588,-4.2269,-4.3246,-4.4502,-4.5069,-4.5423,-4.5423,-4.5423,-4.5423,-4.5423,-4.5423,-4.5199,-4.4751,-4.4009,-4.3283,-4.2457,-4.1698,-4.1181,-4.0888,-4.0888,-4.0888,-4.0888,-4.0888,-4.0888,-4.0888,-4.0888,-4.0888,-4.0888,-4.0888,-4.0888,-4.0823,-4.0549,-4.0662,-4.0888,-4.0888,-4.0888,-4.0888,-4.0888,-4.071,-4.0549,-4.0823,-4.0888,-4.0793,-4.0485,-4.0238,-3.9868,-3.9158,-3.8833,-3.846,-3.7731,-3.4922,-3.2695,-3.2367,-2.9675,0.0,-2.9675,-2.9848,-3.1265,-3.4919,-3.5685,-3.6115,-3.6615,0.0,0.0,-3.7664,-3.8006,-3.8724,-3.9876,-4.0687,-4.1167,-4.1292,-4.0979,-4.0572,-4.014,-3.9765,-3.9602,-3.9602,-3.9602,-3.9602,-3.9602,-3.9602,-3.9602,-3.9602,-3.9602,-3.9602,-3.9626,-3.9935,-4.01,-4.0233,-4.0539,-4.0706,-4.079,-2.9455,-3.014,-3.0855,-3.1769,-3.2618,-3.303,-3.2444,-3.3575,-3.438,-3.4163,-3.4846,-3.5721,-3.66,-3.6785,-3.6968,-3.748,-3.748,-3.8049,-3.9408,-3.9503,-4.0135,-4.1525,-4.1588,-4.1588,-4.1588,-4.2333,-4.3246,-4.4316,-4.5069,-4.5423,-4.5423,-4.5423,-4.5423,-4.5423,-4.5423,-4.5423,-4.5372,-4.4596,-4.3957,-4.3318,-4.2354,-4.1612,-4.1026,-4.0922,-4.0888,-4.0888,-4.0888,-4.0888,-4.0888,-4.0888,-4.0888,-4.0888,-4.0888,-4.0888,-4.0823,-4.0269,-4.05,-4.0871,-4.068,-4.0662,-4.0662,-4.071,-4.0336,-4.002,-4.0614,-4.0728,-4.0534,-4.0221,-4.007,-3.9884,-3.952,-3.9379,-3.8924,-3.7845,-3.4972,-3.2665,-3.2089,0.0,-2.9166,-3.2364,-3.3149,-3.4775,-3.8172,-3.8881,-3.9431,-4.0139,-4.0634,-4.0872,0.0,-4.1524,-4.1578,-4.089,-4.1119,-4.135,-4.1539,-4.1278,-4.1041,-4.0797,-4.0103,-3.9733,-3.9602,-3.9602,-3.9602,-3.9602,-3.9602,-3.9602,-3.9602,-3.9602,-3.9602,-3.965,-4.004,-4.0196,-4.0251,-4.066,-4.079,-4.079,-2.9589,-2.995,-3.0445,-3.1906,-3.269,-3.3143,-3.3087,-3.4312,-3.5139,-3.481,-3.5879,-3.6677,-3.6554,-3.7044,-3.7405,-3.748,-3.748,-3.8049,-3.9408,-3.9503,-4.0135,-4.1525,-4.1588,-4.1588,-4.1588,-4.274,-4.3453,-4.3647,-4.4835,-4.5423,-4.5423,-4.5423,-4.5423,-4.5423,-4.5423,-4.5423,-4.5372,-4.4596,-4.4199,-4.3975,-4.2561,-4.1923,-4.175,-4.1129,-4.0888,-4.0888,-4.0888,-4.0888,-4.0888,-4.0888,-4.0888,-4.0888,-4.0888,-4.0888,-4.0871,-4.0776,-4.0823,-4.068,-3.9731,-3.947,-3.9558,-4.002,-3.9714,-3.9454,-4.002,-4.0319,-4.0417,-4.0368,-4.0319,-4.0319,-4.022,-3.9696,-3.8427,-3.5663,-3.2504,-3.034,-3.0298,0.0,-3.066,-3.3825,-3.6587,-3.8619,-3.9731,-4.0358,-4.0981,-4.1569,-4.2178,-4.252,-4.252,-4.2647,-4.2647,-4.252,-4.2795,-4.2846,-4.2642,-4.2819,-4.2205,-4.0797,-4.0666,-4.0253,-3.9602,-3.9602,-3.9602,-3.9602,-3.9602,-3.9602,-3.9602,-3.9602,-3.9602,-3.965,-4.004,-4.0196,-4.0251,-4.066,-4.079,-4.079,-2.9438,-2.9814,-3.0465,-3.2269,-3.296,-3.3353,-3.3768,-3.4714,-3.54,-3.5255,-3.6258,-3.6999,-3.6907,-3.7225,-3.748,-3.748,-3.748,-3.8049,-3.9408,-3.9503,-4.0135,-4.1525,-4.1588,-4.1588,-4.1588,-4.2506,-4.3152,-4.3512,-4.4429,-4.5086,-4.5423,-4.5423,-4.5423,-4.5423,-4.5423,-4.5423,-4.5406,-4.5044,-4.4647,-4.4182,-4.3061,-4.2371,-4.1905,-4.1164,-4.0888,-4.0888,-4.0888,-4.0888,-4.0888,-4.0888,-4.0888,-4.0888,-4.0888,-4.0888,-4.0823,-4.05,-4.0434,-4.0385,-4.0187,-3.9437,-3.9011,-4.017,-3.9817,-3.9348,-3.9902,-4.012,-4.0137,-3.9817,-3.9765,-3.9799,-3.9799,-3.9504,-3.8275,-3.5218,-3.3352,0.0,0.0,-3.2376,-3.3484,-3.6701,-3.86,-3.9833,-4.0434,-4.1047,-4.1674,-4.2234,-4.2652,-4.2882,-4.2882,-4.2882,-4.2882,-4.2882,-4.3303,-4.3545,-4.3569,-4.339,-4.2675,-4.1454,-4.1004,-4.0384,-3.9602,-3.9602,-3.9602,-3.9602,-3.9602,-3.9602,-3.9602,-3.9602,-3.9602,-3.965,-4.004,-4.0196,-4.0251,-4.066,-4.079,-4.079,-2.9548,-2.9963,-3.074,-3.2821,-3.3353,-3.3699,-3.4447,-3.519,-3.5721,-3.5834,-3.6523,-3.706,-3.7194,-3.7405,-3.748,-3.748,-3.748,-3.8049,-3.9408,-3.9503,-4.0135,-4.1525,-4.1588,-4.1588,-4.1588,-4.238,-4.3047,-4.3512,-4.4299,-4.4961,-4.5423,-4.5423,-4.5423,-4.5423,-4.5423,-4.5423,-4.5423,-4.5423,-4.5079,-4.4475,-4.3733,-4.2957,-4.2181,-4.1423,-4.1026,-4.0888,-4.0888,-4.0888,-4.0888,-4.0888,-4.0888,-4.0888,-4.0888,-4.0888,-4.0758,-4.017,-3.9783,-3.968,-4.017,-3.942,-3.8832,-4.0187,-3.9833,-3.9295,-3.98,-3.9969,-3.9901,-3.947,-3.9382,-3.9484,-3.9556,-3.9415,-3.8275,-3.5218,0.0,0.0,0.0,-3.4659,-3.5811,-3.9082,-3.9781,-4.0254,-4.0896,-4.1401,-4.1924,-4.2552,-4.2786,-4.2882,-4.2882,-4.2882,-4.2957,-4.3087,-4.3477,-4.3841,-4.4109,-4.3578,-4.2862,-4.1972,-4.1191,-4.0384,-3.9602,-3.9602,-3.9602,-3.9602,-3.9602,-3.9602,-3.9602,-3.9602,-3.9602,-3.965,-4.004,-4.0196,-4.0251,-4.066,-4.079,-4.079,-3.0342,-3.065,-3.1327,-3.3599,-3.4124,-3.4447,-3.519,-3.5943,-3.6476,-3.6585,-3.6862,-3.706,-3.7194,-3.7405,-3.748,-3.748,-3.748,-3.8049,-3.9408,-3.9503,-4.0135,-4.1525,-4.1588,-4.1588,-4.1588,-4.2785,-4.3453,-4.3512,-4.4708,-4.5371,-4.5423,-4.5423,-4.5423,-4.5423,-4.5423,-4.5423,-4.5423,-4.5423,-4.5389,-4.5268,-4.4509,-4.3801,-4.3042,-4.2199,-4.1474,-4.0888,-4.0888,-4.0888,-4.0888,-4.0888,-4.0888,-4.0888,-4.0888,-4.0888,-4.0758,-4.017,-3.9246,-3.8446,-3.8502,-3.8794,-3.9135,-3.9295,-3.9259,-3.9259,-3.9542,-3.9749,-3.9834,-3.9902,-3.9901,-3.9918,-4.0269,-3.9747,-3.8275,-3.5218,0.0,0.0,-3.4692,-3.4913,-3.6265,-3.948,-4.0154,-4.0594,-4.1283,-4.1578,-4.1924,-4.2552,-4.2786,-4.2882,-4.2882,-4.2882,-4.3124,-4.3612,-4.3679,-4.3841,-4.4109,-4.3578,-4.2862,-4.1972,-4.1191,-4.0384,-3.9602,-3.9602,-3.9602,-3.9602,-3.9602,-3.9602,-3.9602,-3.9602,-3.9602,-3.965,-4.004,-4.0196,-4.0251,-4.066,-4.079,-4.079,-3.098,-3.1709,-3.2656,-3.4404,-3.4466,-3.4714,-3.5879,-3.5943,-3.6006,-3.6538,-3.68,-3.6999,-3.7044,-3.7345,-3.748,-3.748,-3.748,-3.8049,-3.9408,-3.9503,-4.0135,-4.1525,-4.1588,-4.1769,-4.2206,-4.2317,-4.2909,-4.4128,-4.4169,-4.4652,-4.5423,-4.5423,-4.5423,-4.5423,-4.5423,-4.5423,-4.5423,-4.5423,-4.5423,-4.5354,-4.4596,-4.3837,-4.3128,-4.2285,-4.1526,-4.0888,-4.0888,-4.0888,-4.0888,-4.0888,-4.0662,-4.0336,-4.0336,-4.0137,-3.9782,-3.9558,-3.9189,-3.8794,-3.839,-3.8197,-3.8399,-3.9437,-3.9454,-3.9206,-3.9098,-3.9575,-3.9935,-3.9697,-3.9799,-3.9935,-4.007,-3.9884,-3.857,-3.525,0.0,-3.6834,-3.4939,-3.6406,-3.8253,-3.9715,-4.0204,-4.0611,-4.11,-4.1683,-4.2187,-4.2409,-4.2709,-4.2882,-4.2882,-4.2882,-4.3124,-4.3679,-4.3712,-4.3905,-4.4335,-4.3678,-4.2956,-4.2102,-4.1354,-4.0571,-3.9796,-3.9796,-3.9796,-3.9796,-3.9796,-3.9731,-3.9642,-3.9642,-3.9631,-3.965,-4.004,-4.0196,-4.0251,-4.066,-4.079,-4.079,-3.148,-3.2475,-3.3651,-3.5198,-3.5014,-3.5037,-3.6289,-3.6085,-3.5943,-3.6554,-3.6877,-3.706,-3.7136,-3.7361,-3.748,-3.748,-3.748,-3.8049,-3.9408,-3.9914,-4.0577,-4.1541,-4.1588,-4.19,-4.2585,-4.2333,-4.2986,-4.4502,-4.4243,-4.4524,-4.5423,-4.5423,-4.5423,-4.5423,-4.5423,-4.5423,-4.5423,-4.5423,-4.5423,-4.5389,-4.4854,-4.4044,-4.3162,-4.2561,-4.175,-4.0888,-4.0888,-4.0888,-4.0888,-4.0888,-4.0597,-4.0269,-4.0269,-3.9765,-3.9206,-3.9206,-3.8936,-3.8662,-3.8668,-3.8157,-3.7943,-3.9156,-3.9385,-3.9295,-3.9152,-3.9644,-4.0121,-3.9952,-3.9986,-4.0121,-4.0221,-4.0121,-3.9261,-3.6754,-3.8118,-3.8733,-3.6472,-3.8151,-3.9764,-4.002,-4.0483,-4.0896,-4.1237,-4.1874,-4.2328,-4.2409,-4.2709,-4.2882,-4.2882,-4.2882,-4.3124,-4.3679,-4.3712,-4.3825,-4.4139,-4.3389,-4.2743,-4.2178,-4.1207,-4.0419,-3.9889,-3.9889,-3.9889,-3.9889,-3.9867,-3.9781,-3.9693,-3.9689,-3.9637,-3.965,-4.004,-4.0196,-4.0251,-4.066,-4.079,-4.079,-3.1768,-3.2898,-3.4343,-3.5932,-3.5729,-3.5629,-3.6382,-3.6492,-3.6616,-3.6938,-3.7015,-3.7121,-3.748,-3.748,-3.748,-3.748,-3.748,-3.8049,-3.9408,-4.0798,-4.1588,-4.1588,-4.1588,-4.19,-4.2585,-4.3169,-4.3823,-4.4502,-4.5086,-4.5371,-4.5423,-4.5423,-4.5423,-4.5423,-4.5423,-4.5423,-4.5423,-4.5423,-4.5423,-4.5423,-4.5423,-4.4527,-4.3232,-4.3214,-4.2265,-4.0888,-4.0888,-4.0888,-4.0888,-4.0888,-4.0888,-4.0871,-4.0871,-4.0087,-3.9206,-3.9206,-3.8399,-3.7801,-3.9242,-3.8739,-3.7985,-3.8238,-3.8941,-3.9645,-3.9783,-4.0037,-4.0436,-4.0884,-4.0659,-4.0514,-4.0931,-4.0659,-4.0269,-3.9935,-3.9901,-3.9729,-3.9379,-3.9935,-4.04,-4.04,-4.11,-4.1675,-4.1892,-4.2145,-4.2369,-4.257,-4.2786,-4.2882,-4.2882,-4.2882,-4.3124,-4.3679,-4.3679,-4.3547,-4.3294,-4.258,-4.2197,-4.2159,-4.064,-3.9889,-3.9911,-3.9911,-3.9911,-3.9889,-3.9762,-3.9717,-3.9693,-3.9631,-3.9602,-3.965,-4.004,-4.0214,-4.0251,-4.066,-4.079,-4.079,-3.3187,-3.4405,-3.5567,-3.629,-3.6257,-3.6272,-3.6492,-3.6492,-3.6554,-3.6631,-3.6877,-3.7015,-3.7136,-3.7361,-3.748,-3.748,-3.748,-3.8049,-3.9408,-4.0372,-4.1099,-4.1573,-4.1588,-4.2142,-4.3213,-4.2986,-4.3588,-4.514,-4.4906,-4.4978,-4.5423,-4.5423,-4.5423,-4.5423,-4.5423,-4.5423,-4.5423,-4.5423,-4.5423,-4.5423,-4.5423,-4.4837,-4.3939,-4.3421,-4.2543,-4.1578,-4.1078,-4.0888,-4.0888,-4.0888,-4.0614,-4.012,-3.9315,-3.8832,-3.8463,-3.8116,-3.7759,-3.7642,-3.827,-3.8157,-3.8042,-3.8756,-3.9332,-3.968,-3.9525,-4.0103,-4.0741,-4.0931,-4.0913,-4.0866,-4.0977,-4.0913,-4.0724,-4.0336,-4.0237,-4.0237,-4.007,-4.0252,-4.0497,-4.0772,-4.1024,-4.13,-4.1675,-4.1892,-4.2103,-4.2369,-4.2709,-4.2882,-4.2882,-4.2882,-4.3124,-4.3679,-4.3144,-4.299,-4.3294,-4.258,-4.1944,-4.1415,-4.0466,-4.0036,-4.0036,-4.0137,-4.0137,-4.0036,-4.0015,-3.9933,-3.9826,-3.9712,-3.9712,-3.9845,-4.01,-4.0286,-4.0441,-4.0687,-4.079,-4.079,-3.3862,-3.5127,-3.6167,-3.6461,-3.6492,-3.6492,-3.6492,-3.6492,-3.6492,-3.6538,-3.68,-3.6999,-3.7044,-3.7345,-3.7583,-3.7786,-3.8258,-3.9043,-4.0156,-4.0638,-4.1357,-4.2348,-4.2142,-4.2443,-4.3453,-4.341,-4.4013,-4.5423,-4.5015,-4.5032,-4.5423,-4.5423,-4.5423,-4.5423,-4.5423,-4.5423,-4.5423,-4.5423,-4.5423,-4.5423,-4.5423,-4.4958,-4.4199,-4.3508,-4.2681,-4.1888,-4.1147,-4.0888,-4.0871,-4.0597,-4.017,-3.9542,-3.8903,-3.8629,-3.8574,-3.8286,-3.8173,-3.823,-3.8479,-3.8439,-3.8399,-3.9044,-3.9295,-3.9437,-3.9594,-4.0153,-4.0754,-4.1163,-4.1226,-4.1226,-4.1226,-4.1226,-4.1117,-4.0707,-4.0659,-4.0563,-4.04,-4.0563,-4.0724,-4.0977,-4.1117,-4.1318,-4.156,-4.1762,-4.2044,-4.2409,-4.2709,-4.2882,-4.2882,-4.2882,-4.3124,-4.3679,-4.2904,-4.2581,-4.2787,-4.2039,-4.1467,-4.1105,-4.0374,-4.0036,-4.0098,-4.0176,-4.0137,-4.0015,-4.0015,-3.9933,-3.9804,-3.9689,-3.9758,-3.9935,-4.012,-4.0321,-4.0519,-4.072,-4.079,-4.079,-3.4031,-3.5235,-3.6276,-3.6461,-3.6538,-3.6538,-3.6492,-3.6554,-3.66,-3.6662,-3.6923,-3.7105,-3.7194,-3.7389,-3.7786,-3.8238,-3.9424,-4.0481,-4.1243,-4.1357,-4.2032,-4.336,-4.2986,-4.3003,-4.3512,-4.4128,-4.4797,-4.5423,-4.5423,-4.5423,-4.5423,-4.5423,-4.5423,-4.5423,-4.5423,-4.5423,-4.5423,-4.5423,-4.5423,-4.5423,-4.5423,-4.501,-4.4302,-4.3611,-4.2768,-4.1992,-4.125,-4.094,-4.0823,-4.0286,-3.9714,-3.9242,-3.9242,-3.9259,-3.9206,-3.9206,-3.9206,-3.9259,-3.9506,-3.9242,-3.8952,-3.9206,-3.9061,-3.9061,-3.98,-4.0252,-4.0659,-4.1453,-4.1604,-4.1604,-4.1604,-4.1604,-4.1453,-4.1117,-4.1071,-4.0913,-4.0563,-4.0819,-4.1071,-4.1071,-4.1363,-4.1604,-4.1604,-4.1805,-4.2103,-4.253,-4.2786,-4.2882,-4.2882,-4.292,-4.3142,-4.3586,-4.2825,-4.2259,-4.1897,-4.1098,-4.0791,-4.0969,-4.023,-3.9933,-4.0057,-4.0096,-4.0015,-3.9889,-3.9889,-3.9804,-3.9693,-3.9631,-3.9727,-3.9935,-4.012,-4.0321,-4.0519,-4.072,-4.079,-4.079,-3.4658,-3.5535,-3.6276,-3.6461,-3.6919,-3.7053,-3.6585,-3.6892,-3.7074,-3.66,-3.7163,-3.746,-3.7105,-3.7711,-3.8181,-3.8294,-3.8997,-3.9951,-4.121,-4.1328,-4.1789,-4.2753,-4.3604,-4.3898,-4.3512,-4.4128,-4.4797,-4.5423,-4.5423,-4.5423,-4.5423,-4.5423,-4.5423,-4.5423,-4.5423,-4.5423,-4.5423,-4.5423,-4.5423,-4.5423,-4.5423,-4.532,-4.5096,-4.432,-4.3561,-4.2819,-4.2026,-4.1371,-4.0871,-4.0758,-4.0336,-3.9851,-3.9851,-3.9558,-3.9206,-3.9206,-3.9206,-3.9259,-3.9506,-3.9506,-3.9506,-3.9799,-3.954,-3.9259,-3.9851,-4.0466,-4.1024,-4.1498,-4.1604,-4.1604,-4.1604,-4.1604,-4.156,-4.1498,-4.1453,-4.1453,-4.1346,-4.1408,-4.1453,-4.1453,-4.156,-4.1604,-4.1604,-4.1977,-4.2246,-4.2369,-4.2709,-4.2882,-4.2882,-4.3105,-4.308,-4.2775,-4.2131,-4.1549,-4.106,-4.0253,-3.9919,-4.0004,-3.9834,-3.9762,-3.9804,-3.9911,-3.9867,-3.9739,-3.9739,-3.9717,-3.9693,-3.9631,-3.9727,-3.9935,-4.012,-4.0321,-4.0519,-4.072,-4.079,-4.079,-3.5611,-3.6152,-3.6461,-3.6836,-3.7212,-3.7365,-3.737,-3.7621,-3.7621,-3.7013,-3.746,-3.7738,-3.7417,-3.7911,-3.8502,-3.9032,-3.9645,-4.0459,-4.154,-4.1678,-4.2234,-4.337,-4.4131,-4.4485,-4.4412,-4.478,-4.5086,-4.5423,-4.5423,-4.5423,-4.5423,-4.5423,-4.5423,-4.5423,-4.5423,-4.5423,-4.5423,-4.5423,-4.5423,-4.5423,-4.5423,-4.5423,-4.5337,-4.4578,-4.382,-4.3111,-4.2268,-4.1199,-4.0137,-4.0385,-3.9902,-3.9299,-3.9834,-3.98,-3.9662,-3.9935,-3.9986,-4.0037,-4.0187,-4.002,-3.98,-3.9986,-3.9765,-3.9645,-4.0252,-4.0449,-4.0724,-4.1453,-4.1604,-4.1604,-4.1604,-4.1604,-4.1604,-4.1604,-4.1604,-4.1604,-4.1604,-4.1604,-4.1604,-4.1604,-4.1604,-4.1604,-4.1604,-4.2019,-4.2287,-4.2287,-4.267,-4.2882,-4.2882,-4.316,-4.3041,-4.2516,-4.1913,-4.1344,-4.0816,-3.999,-3.9626,-3.9661,-3.9661,-3.9665,-3.9717,-3.9762,-3.9735,-3.9661,-3.9689,-3.9689,-3.9637,-3.9626,-3.9727,-3.9935,-4.012,-4.0321,-4.0519,-4.072,-4.079,-4.079,-3.6723,-3.6908,-3.6948,-3.7447,-3.763,-3.7854,-3.8238,-3.839,-3.8238,-3.7637,-3.7927,-3.8141,-3.7994,-3.8318,-3.8978,-3.9902,-4.0549,-4.1198,-4.194,-4.2228,-4.2873,-4.4079,-4.4443,-4.4852,-4.5247,-4.5371,-4.5423,-4.5423,-4.5423,-4.5423,-4.5423,-4.5423,-4.5423,-4.5423,-4.5423,-4.5423,-4.5423,-4.5423,-4.5423,-4.5423,-4.5423,-4.5423,-4.5354,-4.4716,-4.4009,-4.3301,-4.2475,-4.0985,-3.9401,-3.9851,-3.9299,-3.8613,-3.9577,-3.9902,-4.012,-4.0597,-4.0823,-4.0888,-4.0776,-4.0451,-4.0103,-4.0053,-3.9935,-4.0036,-4.0754,-4.0497,-4.0449,-4.1408,-4.1604,-4.1604,-4.1604,-4.1604,-4.1604,-4.1604,-4.1604,-4.1604,-4.1604,-4.1604,-4.1604,-4.1604,-4.1604,-4.1604,-4.1604,-4.2019,-4.2287,-4.2287,-4.267,-4.292,-4.2957,-4.3104,-4.2907,-4.2358,-4.1768,-4.1193,-4.0591,-3.9915,-3.9602,-3.9602,-3.9602,-3.9631,-3.967,-3.967,-3.9661,-3.9602,-3.9661,-3.9661,-3.9602,-3.9602,-3.9727,-3.9935,-4.012,-4.0321,-4.0519,-4.072,-4.079,-4.079,-3.7673,-3.7946,-3.8092,-3.8157,-3.8596,-3.881,-3.8351,-3.8739,-3.8865,-3.8238,-3.8887,-3.9172,-3.8613,-3.9299,-3.9834,-4.0003,-4.0549,-4.1198,-4.194,-4.2666,-4.3168,-4.3427,-4.4605,-4.5086,-4.4614,-4.514,-4.5423,-4.5423,-4.5423,-4.5423,-4.5423,-4.5423,-4.5423,-4.5423,-4.5423,-4.5423,-4.5423,-4.5423,-4.5423,-4.5423,-4.5423,-4.5423,-4.5406,-4.5303,-4.4785,-4.4027,-4.3335,-4.1697,-3.9902,-4.0003,-3.9594,-3.9082,-3.9242,-3.9662,-4.0003,-4.012,-4.05,-4.0776,-4.0269,-4.0434,-4.071,-4.0302,-4.0186,-4.0334,-4.1163,-4.1071,-4.1007,-4.1498,-4.1604,-4.1604,-4.1604,-4.1604,-4.1604,-4.1604,-4.1604,-4.1604,-4.1604,-4.1604,-4.1604,-4.1604,-4.1604,-4.1604,-4.1604,-4.2019,-4.2287,-4.2287,-4.267,-4.2995,-4.3232,-4.2849,-4.2321,-4.1731,-4.1202,-4.0546,-3.9765,-3.9658,-3.9602,-3.9602,-3.9602,-3.9602,-3.9626,-3.9626,-3.9602,-3.9602,-3.9602,-3.9602,-3.9602,-3.9602,-3.9727,-3.9935,-4.012,-4.0321,-4.0519,-4.072,-4.079,-4.079,-3.8338,-3.8417,-3.8423,-3.8718,-3.904,-3.9189,-3.9295,-3.9523,-3.947,-3.8849,-3.9279,-3.9489,-3.9226,-3.9969,-4.05,-4.05,-4.0776,-4.1026,-4.1336,-4.2078,-4.2737,-4.3219,-4.4199,-4.487,-4.5015,-4.5247,-4.5423,-4.5423,-4.5423,-4.5423,-4.5423,-4.5423,-4.5423,-4.5423,-4.5423,-4.5423,-4.5423,-4.5423,-4.5423,-4.5423,-4.5423,-4.5423,-4.5423,-4.5423,-4.4941,-4.413,-4.262,-4.1273,-4.0077,-3.9692,-3.9401,-3.9206,-3.9206,-3.9817,-4.0385,-3.9765,-4.0187,-4.0776,-4.017,-4.05,-4.0982,-4.0758,-4.0789,-4.096,-4.1318,-4.1363,-4.1408,-4.156,-4.1604,-4.1604,-4.1604,-4.1604,-4.1604,-4.1604,-4.1604,-4.1604,-4.1604,-4.1604,-4.1604,-4.1604,-4.1604,-4.1648,-4.1762,-4.2061,-4.2328,-4.245,-4.2747,-4.2957,-4.3069,-4.2724,-4.2155,-4.1396,-4.1006,-4.0403,-3.962,-3.9602,-3.9602,-3.9602,-3.9602,-3.9602,-3.9602,-3.9602,-3.9602,-3.9602,-3.9602,-3.9602,-3.9602,-3.9602,-3.9727,-3.9935,-4.012,-4.0389,-4.0673,-4.0778,-4.079,-4.079]},{"header":{"parameterUnit":"m.s-1","parameterCategory":1,"la1":30.6,"la2":28.766,"lo1":-90.7593,"lo2":-88.6598,"dy":0.0162,"dx":0.0183,"nx":116,"ny":114,"refTime":"2023-04-05T06:00:00:Z","depth":0,"parameterNumber":3,"parameterNumberName":"V-component_of_WINDS"},"data":[0.0,0.0,0.0,0.0,0.0,0.0,0.0,0.0,0.0,0.0,0.0,0.0,0.0,0.0,0.0,0.0,0.0,0.0,0.0,0.0,0.0,0.0,0.0,0.0,0.0,0.0,0.0,0.0,0.0,0.0,0.0,0.0,0.0,0.0,0.0,0.0,0.0,0.0,0.0,0.0,0.0,0.0,0.0,0.0,0.0,0.0,0.0,0.0,0.0,0.0,0.0,0.0,0.0,0.0,0.0,0.0,0.0,0.0,0.0,0.0,0.0,0.0,0.0,0.0,0.0,0.0,0.0,0.0,0.0,0.0,0.0,0.0,0.0,0.0,0.0,0.0,0.0,0.0,0.0,0.0,0.0,0.0,0.0,0.0,0.0,0.0,0.0,0.0,0.0,0.0,0.0,0.0,0.0,0.0,0.0,0.0,0.0,0.0,0.0,0.0,0.0,0.0,0.0,0.0,0.0,0.0,0.0,0.0,0.0,0.0,0.0,0.0,0.0,0.0,0.0,0.0,0.0,0.0,0.0,0.0,0.0,0.0,0.0,0.0,0.0,0.0,0.0,0.0,0.0,0.0,0.0,0.0,0.0,0.0,0.0,0.0,0.0,0.0,0.0,0.0,0.0,0.0,0.0,0.0,0.0,0.0,0.0,0.0,0.0,0.0,0.0,0.0,0.0,0.0,0.0,0.0,0.0,0.0,0.0,0.0,0.0,0.0,0.0,0.0,0.0,0.0,0.0,0.0,0.0,0.0,0.0,0.0,0.0,0.0,0.0,0.0,0.0,0.0,0.0,0.0,0.0,0.0,0.0,0.0,0.0,0.0,0.0,0.0,0.0,0.0,0.0,0.0,0.0,0.0,0.0,0.0,0.0,0.0,0.0,0.0,0.0,0.0,0.0,0.0,0.0,0.0,0.0,0.0,0.0,0.0,0.0,0.0,0.0,0.0,0.0,0.0,0.0,0.0,0.0,0.0,0.0,0.0,0.0,0.0,0.0,0.0,0.0,0.0,0.0,0.0,0.0,0.0,0.0,0.0,0.0,0.0,0.0,0.0,0.0,0.0,0.0,0.0,0.0,0.0,0.0,0.0,0.0,0.0,0.0,0.0,0.0,0.0,0.0,0.0,0.0,0.0,0.0,0.0,0.0,0.0,0.0,0.0,0.0,0.0,0.0,0.0,0.0,0.0,0.0,0.0,0.0,0.0,0.0,0.0,0.0,0.0,0.0,0.0,0.0,0.0,0.0,0.0,0.0,0.0,0.0,0.0,0.0,0.0,0.0,0.0,0.0,0.0,0.0,0.0,0.0,0.0,0.0,0.0,0.0,0.0,0.0,0.0,0.0,0.0,0.0,0.0,0.0,0.0,0.0,0.0,0.0,0.0,0.0,0.0,0.0,0.0,0.0,0.0,0.0,0.0,0.0,0.0,0.0,0.0,0.0,0.0,0.0,0.0,0.0,0.0,0.0,0.0,0.0,0.0,0.0,0.0,0.0,0.0,0.0,0.0,0.0,0.0,0.0,0.0,0.0,0.0,0.0,0.0,0.0,0.0,0.0,0.0,0.0,0.0,0.0,0.0,0.0,0.0,0.0,0.0,0.0,0.0,0.0,0.0,0.0,0.0,0.0,0.0,0.0,0.0,0.0,0.0,0.0,0.0,0.0,0.0,0.0,0.0,0.0,0.0,0.0,0.0,0.0,0.0,0.0,0.0,0.0,0.0,0.0,0.0,0.0,0.0,0.0,0.0,0.0,0.0,0.0,0.0,0.0,0.0,0.0,0.0,0.0,0.0,0.0,0.0,0.0,0.0,0.0,0.0,0.0,0.0,0.0,0.0,0.0,0.0,0.0,0.0,0.0,0.0,0.0,0.0,0.0,0.0,0.0,0.0,0.0,0.0,0.0,0.0,0.0,0.0,0.0,0.0,0.0,0.0,0.0,0.0,0.0,0.0,0.0,0.0,0.0,0.0,0.0,0.0,0.0,0.0,0.0,0.0,0.0,0.0,0.0,0.0,0.0,0.0,0.0,0.0,0.0,0.0,0.0,0.0,0.0,0.0,0.0,0.0,0.0,0.0,0.0,0.0,0.0,0.0,0.0,0.0,0.0,0.0,0.0,0.0,0.0,0.0,0.0,0.0,0.0,0.0,0.0,0.0,0.0,0.0,0.0,0.0,0.0,0.0,0.0,0.0,0.0,0.0,0.0,0.0,0.0,0.0,0.0,0.0,0.0,0.0,0.0,0.0,0.0,0.0,0.0,0.0,0.0,0.0,0.0,0.0,0.0,0.0,0.0,0.0,0.0,0.0,0.0,0.0,0.0,0.0,0.0,0.0,0.0,0.0,0.0,0.0,0.0,0.0,0.0,0.0,0.0,0.0,0.0,0.0,0.0,0.0,0.0,0.0,0.0,0.0,0.0,0.0,0.0,0.0,0.0,0.0,0.0,0.0,0.0,0.0,0.0,0.0,0.0,0.0,0.0,0.0,0.0,0.0,0.0,0.0,0.0,0.0,0.0,0.0,0.0,0.0,0.0,0.0,0.0,0.0,0.0,0.0,0.0,0.0,0.0,0.0,0.0,0.0,0.0,0.0,0.0,0.0,0.0,0.0,0.0,0.0,0.0,0.0,0.0,0.0,0.0,0.0,0.0,0.0,0.0,0.0,0.0,0.0,0.0,0.0,0.0,0.0,0.0,0.0,0.0,0.0,0.0,0.0,0.0,0.0,0.0,0.0,0.0,0.0,0.0,0.0,0.0,0.0,0.0,0.0,0.0,0.0,0.0,0.0,0.0,0.0,0.0,0.0,0.0,0.0,0.0,0.0,0.0,0.0,0.0,0.0,0.0,0.0,0.0,0.0,0.0,0.0,0.0,0.0,0.0,0.0,0.0,0.0,0.0,0.0,0.0,0.0,0.0,0.0,0.0,0.0,0.0,0.0,0.0,0.0,0.0,0.0,0.0,0.0,0.0,0.0,0.0,0.0,0.0,0.0,0.0,0.0,0.0,0.0,0.0,0.0,0.0,0.0,0.0,0.0,0.0,0.0,0.0,0.0,0.0,0.0,0.0,0.0,0.0,0.0,0.0,0.0,0.0,0.0,0.0,0.0,0.0,0.0,0.0,0.0,0.0,0.0,0.0,0.0,0.0,0.0,0.0,0.0,0.0,0.0,0.0,0.0,0.0,0.0,0.0,0.0,0.0,0.0,0.0,0.0,0.0,0.0,0.0,0.0,0.0,0.0,0.0,0.0,0.0,0.0,0.0,0.0,0.0,0.0,0.0,0.0,0.0,0.0,0.0,0.0,0.0,0.0,0.0,0.0,0.0,0.0,0.0,0.0,0.0,0.0,0.0,0.0,0.0,0.0,0.0,0.0,0.0,0.0,0.0,0.0,0.0,0.0,0.0,0.0,0.0,0.0,0.0,0.0,0.0,0.0,0.0,0.0,0.0,0.0,0.0,0.0,0.0,0.0,0.0,0.0,0.0,0.0,0.0,0.0,0.0,0.0,0.0,0.0,0.0,0.0,0.0,0.0,0.0,0.0,0.0,0.0,0.0,0.0,0.0,0.0,0.0,0.0,0.0,0.0,0.0,0.0,0.0,0.0,0.0,0.0,0.0,0.0,0.0,0.0,0.0,0.0,0.0,0.0,0.0,0.0,0.0,0.0,0.0,0.0,0.0,0.0,0.0,0.0,0.0,0.0,0.0,0.0,0.0,0.0,0.0,0.0,0.0,0.0,0.0,0.0,0.0,0.0,0.0,0.0,0.0,0.0,0.0,0.0,0.0,0.0,0.0,0.0,0.0,0.0,0.0,0.0,0.0,0.0,0.0,0.0,0.0,0.0,0.0,0.0,0.0,0.0,0.0,0.0,0.0,0.0,0.0,0.0,0.0,0.0,0.0,0.0,0.0,0.0,0.0,0.0,0.0,0.0,0.0,0.0,0.0,0.0,0.0,0.0,0.0,0.0,0.0,0.0,0.0,0.0,0.0,0.0,0.0,0.0,0.0,0.0,0.0,0.0,0.0,0.0,0.0,0.0,0.0,0.0,0.0,0.0,0.0,0.0,0.0,0.0,0.0,0.0,0.0,0.0,0.0,0.0,0.0,0.0,0.0,0.0,0.0,0.0,0.0,0.0,0.0,0.0,0.0,0.0,0.0,0.0,0.0,0.0,0.0,0.0,0.0,0.0,0.0,0.0,0.0,0.0,0.0,0.0,0.0,0.0,0.0,0.0,0.0,0.0,0.0,0.0,0.0,0.0,0.0,0.0,0.0,0.0,0.0,0.0,0.0,0.0,0.0,0.0,0.0,0.0,0.0,0.0,0.0,0.0,0.0,0.0,0.0,0.0,0.0,0.0,0.0,0.0,0.0,0.0,0.0,0.0,0.0,0.0,0.0,0.0,0.0,0.0,0.0,0.0,0.0,0.0,0.0,0.0,0.0,0.0,0.0,0.0,0.0,0.0,0.0,0.0,0.0,0.0,0.0,0.0,0.0,0.0,0.0,0.0,0.0,0.0,0.0,0.0,0.0,0.0,0.0,0.0,0.0,0.0,0.0,0.0,0.0,0.0,0.0,0.0,0.0,0.0,0.0,0.0,0.0,0.0,0.0,0.0,0.0,0.0,0.0,0.0,0.0,0.0,0.0,0.0,0.0,0.0,0.0,0.0,0.0,0.0,0.0,0.0,0.0,0.0,0.0,0.0,0.0,0.0,0.0,0.0,0.0,0.0,0.0,0.0,0.0,0.0,0.0,0.0,0.0,0.0,0.0,0.0,0.0,0.0,0.0,0.0,0.0,0.0,0.0,0.0,0.0,0.0,0.0,0.0,0.0,0.0,0.0,0.0,0.0,0.0,0.0,0.0,0.0,0.0,0.0,0.0,0.0,0.0,0.0,0.0,0.0,0.0,0.0,0.0,0.0,0.0,0.0,0.0,0.0,0.0,0.0,0.0,0.0,0.0,0.0,0.0,0.0,0.0,0.0,0.0,0.0,0.0,0.0,0.0,0.0,0.0,0.0,0.0,0.0,0.0,0.0,0.0,0.0,0.0,0.0,0.0,0.0,0.0,0.0,0.0,0.0,0.0,0.0,0.0,0.0,0.0,0.0,0.0,0.0,0.0,0.0,0.0,0.0,0.0,0.0,0.0,0.0,0.0,0.0,0.0,0.0,0.0,0.0,0.0,0.0,0.0,0.0,0.0,0.0,0.0,0.0,0.0,0.0,0.0,0.0,0.0,0.0,0.0,0.0,0.0,0.0,0.0,0.0,0.0,0.0,0.0,0.0,0.0,0.0,0.0,0.0,0.0,0.0,0.0,0.0,0.0,0.0,0.0,0.0,0.0,0.0,0.0,0.0,0.0,0.0,0.0,0.0,0.0,0.0,0.0,0.0,0.0,0.0,0.0,0.0,0.0,0.0,0.0,0.0,0.0,0.0,0.0,0.0,0.0,0.0,0.0,0.0,0.0,0.0,0.0,0.0,0.0,0.0,0.0,0.0,0.0,0.0,0.0,0.0,0.0,0.0,0.0,0.0,0.0,0.0,0.0,0.0,0.0,0.0,0.0,0.0,0.0,0.0,0.0,0.0,0.0,0.0,0.0,0.0,0.0,0.0,0.0,0.0,0.0,0.0,0.0,0.0,0.0,0.0,0.0,0.0,0.0,0.0,0.0,0.0,0.0,0.0,0.0,0.0,0.0,0.0,0.0,0.0,0.0,0.0,0.0,0.0,0.0,0.0,0.0,0.0,0.0,0.0,0.0,0.0,0.0,0.0,0.0,0.0,0.0,0.0,0.0,0.0,0.0,0.0,0.0,0.0,0.0,0.0,0.0,0.0,0.0,0.0,0.0,0.0,0.0,0.0,0.0,0.0,0.0,0.0,0.0,0.0,0.0,0.0,0.0,0.0,0.0,0.0,0.0,0.0,0.0,0.0,0.0,0.0,0.0,0.0,0.0,0.0,0.0,0.0,0.0,0.0,0.0,0.0,0.0,0.0,0.0,0.0,0.0,0.0,0.0,0.0,0.0,0.0,0.0,0.0,0.0,0.0,0.0,0.0,0.0,0.0,0.0,0.0,0.0,0.0,0.0,0.0,0.0,0.0,0.0,0.0,0.0,0.0,0.0,-0.1455,0.0,0.0,0.0,0.0,0.0,0.0,0.0,0.0,0.0,0.0,0.0,0.0,0.0,0.0,0.0,0.0,0.0,0.0,0.0,0.0,0.0,0.0,0.0,0.0,0.0,0.0,0.0,0.0,0.0,0.0,0.0,0.0,0.0,0.0,0.0,0.0,0.0,0.0,0.0,-0.6327,-0.5498,-0.4399,-0.5262,-0.6243,-0.7217,0.0,0.0,0.0,0.0,0.0,0.0,0.0,0.0,0.0,0.0,0.0,0.0,0.0,0.0,0.0,0.0,0.0,0.0,0.0,0.0,0.0,0.0,0.0,0.0,0.0,0.0,0.0,0.0,0.0,0.0,0.0,0.0,0.0,0.0,0.0,0.0,0.0,0.0,0.0,0.0,0.0,0.0,0.0,0.0,0.0,0.0,0.0,0.0,0.0,0.0,0.0,0.0,0.0,0.0,0.0,0.0,0.0,0.0,0.0,0.0,0.0,0.0,0.0,0.0,0.0,0.0,0.0,0.0,0.0,0.0,0.0,-0.1985,0.0,0.0,0.0,0.0,0.0,0.0,0.0,0.0,0.0,0.0,0.0,0.0,0.0,0.0,0.0,0.0,0.0,0.0,0.0,0.0,0.0,0.0,0.0,0.0,0.0,0.0,0.0,0.0,0.0,0.0,0.0,0.0,0.0,0.0,0.0,-0.5802,-0.5425,-0.505,-0.3572,-0.2112,-0.0629,-0.0411,-0.1632,-0.4015,-0.4455,0.0,0.0,0.0,0.0,0.0,0.0,0.0,0.0,0.0,0.0,0.0,0.0,0.0,0.0,0.0,0.0,0.0,0.0,0.0,0.0,0.0,0.0,0.0,0.0,0.0,0.0,0.0,0.0,0.0,0.0,0.0,0.0,0.0,0.0,0.0,0.0,0.0,0.0,0.0,0.0,0.0,0.0,0.0,0.0,0.0,0.0,0.0,0.0,0.0,0.0,0.0,0.0,0.0,0.0,0.0,0.0,0.0,0.0,0.0,0.0,0.0,0.0,0.0,-0.1265,-0.1451,-0.1451,-0.2005,-0.2011,-0.1556,-0.1375,-0.107,-0.0679,-0.1517,0.0,0.0,0.0,0.0,0.0,0.0,0.0,0.0,0.0,0.0,0.0,0.0,0.0,0.0,0.0,0.0,0.0,0.0,0.0,0.0,0.0,-0.4231,-0.4498,-0.502,-0.5272,-0.5661,0.0,0.0,0.0,0.0,0.0,0.0,-0.5313,-0.5706,-0.491,-0.294,0.04,0.2651,0.3657,0.2881,0.2626,0.2795,0.0434,-0.0516,-0.0443,0.0,0.0,0.0,0.0,0.0,0.0,0.0,0.0,0.0,0.0,0.0,0.0,0.0,0.0,0.0,0.0,0.0,0.0,0.0,0.0,0.0,0.0,0.0,0.0,0.0,0.0,0.0,0.0,0.0,0.0,0.0,0.0,0.0,0.0,0.0,0.0,0.0,0.0,0.0,0.0,0.0,0.3614,0.094,0.0,0.0,0.0,0.0,0.0,0.0,0.0,0.0,0.0,0.0,0.0,0.0,0.0,-0.0979,-0.1513,-0.1073,-0.1165,-0.1702,-0.1023,-0.0757,-0.0758,-0.049,-0.0298,-0.0298,-0.0199,0.0,-0.1948,-0.1707,0.0,0.0,0.0,0.0,0.0,0.0,0.0,0.0,0.0,0.0,0.0,0.0,0.0,0.0,0.0,0.0,0.0,0.0,0.0,0.0,0.0,-0.3526,-0.313,-0.336,-0.2547,-0.2521,-0.3823,0.0,0.0,0.0,0.0,-0.5108,-0.4956,-0.3453,-0.1332,0.1514,0.3653,0.573,0.7732,0.7327,0.7642,0.8493,0.7076,0.425,0.056,0.1334,0.0,0.0,0.0,0.0,0.0,0.0,0.0,0.0,0.0,0.0,0.0,0.0,0.0,0.0,0.0,0.0,0.0,0.0,0.0,0.0,0.0,0.0,0.0,0.0,0.0,0.0,0.0,0.0,0.0,0.0,0.0,0.0,0.0,0.0,0.0,0.0,0.0,0.0,0.0,0.33,0.1538,0.0366,0.0454,0.0152,0.0,0.0,0.0,0.0,0.0,0.0,0.0,0.0,0.0,-0.1048,-0.0636,-0.065,-0.1022,-0.057,-0.0576,-0.0864,-0.0489,-0.0296,-0.0296,-0.01,0.0,0.0,0.0,-0.0396,-0.0957,-0.0919,-0.1425,-0.2172,0.0,0.0,0.0,0.0,-0.2786,-0.2811,0.0,0.0,0.0,0.0,0.0,0.0,0.0,0.0,0.0,0.0,0.0,0.0,-0.3791,-0.2373,-0.1353,-0.1403,-0.015,-0.0148,-0.2041,-0.2946,0.0,0.0,-0.4287,-0.408,-0.3938,-0.06,0.2607,0.5633,0.7006,0.8913,1.1386,1.1133,1.1563,1.2413,1.206,0.8604,0.3058,0.3901,0.3592,0.2494,0.0,0.0,0.0,0.0,0.0,0.0,0.0,0.0,0.0,0.0,0.0,0.0,0.0,0.0,0.0,0.0,0.0,0.0,0.0,0.0,0.0,0.0,0.0,0.0,0.0,0.0,0.0,0.0,0.0,0.0,0.0,0.0,0.0,0.0,0.0,0.0,0.0,0.1934,0.1116,0.0302,0.0637,0.0404,0.0,0.0,0.0,0.0,0.0,0.0,-0.1795,-0.1246,-0.0911,-0.082,-0.0474,-0.029,-0.0484,-0.0199,0.0,0.0,0.0,0.0,0.0,0.0,0.0,0.0,0.0,0.0,0.0,-0.0291,-0.0936,-0.1727,-0.1619,-0.195,-0.2275,-0.178,-0.1667,-0.1544,0.0,0.0,0.0,0.0,0.0,0.0,0.0,0.0,0.0,0.0,0.0,-0.2103,-0.172,-0.0527,0.0388,0.0543,0.0543,-0.0304,-0.2166,-0.28,-0.3124,-0.3219,-0.3549,-0.299,-0.1482,0.2502,0.5793,0.8369,1.0877,1.282,1.4139,1.3555,1.3379,1.362,1.3548,1.1705,0.8757,0.822,0.7612,0.6769,0.5325,0.0,0.0,0.0,0.0,0.0,0.0,0.0,0.0,0.0,0.0,0.0,0.0,0.0,0.0,0.0,0.0,0.0,0.0,0.0,0.0,0.0,0.0,0.0,0.0,0.0,0.0,0.0,0.0,0.0,0.0,0.0,0.0,0.0,0.0,0.0,0.0,0.0,0.0,0.0244,0.0842,0.0,0.0,0.0,0.0,-0.133,-0.2405,-0.2676,-0.1699,-0.1763,-0.1422,-0.0665,-0.0197,0.0,0.0,0.0,0.0,0.0,0.0,0.0,0.0,0.0,0.0,0.0,0.0,0.0,0.0,-0.0388,-0.0476,-0.0473,-0.0819,-0.0896,-0.0716,-0.0896,-0.0985,-0.0984,0.0,0.0,0.0,0.0,0.0,0.0,0.0,0.0,0.0,-0.3902,-0.2757,-0.1836,-0.1652,0.0618,0.2069,0.2203,0.3183,0.3091,0.1194,-0.0152,-0.1015,-0.1322,-0.2131,-0.0803,0.3006,0.695,0.9436,1.0376,1.1889,1.3457,1.5039,1.4216,1.4796,1.6429,1.5869,1.5005,1.3929,1.2401,1.1507,1.1028,0.9055,0.7589,0.0,0.0,0.0,0.0,0.0,0.0,0.0,0.0,0.0,0.0,0.0,0.0,0.0,0.0,0.0,0.0,0.0,0.0,0.0,0.0,0.0,0.0,0.0,0.0,0.0,0.0,0.0,0.0,0.0,0.0,0.0,0.0,0.0,0.0,0.0,0.0,0.0,0.1212,0.117,0.0,-0.0783,-0.1134,-0.1412,-0.1703,-0.1746,-0.1492,-0.1026,-0.0775,-0.0494,-0.0198,-0.01,0.0,0.0,0.0,0.0,0.0,0.0,0.0,0.0,0.0,0.0,0.0,0.0,0.0,0.0,-0.0199,-0.0198,-0.0099,-0.0292,-0.0291,-0.0194,-0.0291,-0.0291,-0.0291,0.0,0.0,0.0,0.0,0.0,0.0,0.0,0.0,0.0,-0.3556,-0.2282,-0.1095,-0.0289,0.2277,0.3913,0.3939,0.5017,0.4713,0.2376,0.1169,0.0149,-0.0637,-0.0409,0.1904,0.6645,0.9171,1.1171,1.2469,1.3429,1.4586,1.6109,1.5423,1.6202,1.8186,1.7679,1.7351,1.7179,1.5787,1.4744,1.3711,1.1503,0.9472,0.7853,0.0,0.0,0.0,0.0,0.0,0.0,0.0,0.0,0.0,0.0,0.0,0.0,0.0,0.0,0.0,0.0,0.0,0.0,0.0,0.0,0.0,0.0,0.0,0.0,0.0,0.0,0.0,0.0,0.0,0.0,0.0,0.0,0.0,0.0,0.3394,0.2915,0.2076,0.1503,0.076,-0.0367,-0.0922,-0.1207,-0.1402,-0.1054,-0.0681,-0.0389,-0.01,0.0,0.0,0.0,0.0,0.0,0.0,-0.0202,-0.0505,-0.0505,-0.0706,-0.111,-0.111,-0.0908,-0.0505,-0.0505,-0.0303,0.0,0.0,0.0,0.0,0.0,0.0,0.0,0.0,0.0,-0.0101,0.0,0.0,0.0,0.0,0.0,0.0,0.0,-0.3738,-0.3779,-0.302,-0.1557,0.0155,0.2324,0.445,0.5744,0.5735,0.5733,0.4312,0.1021,0.0935,0.0448,-0.0944,0.1699,0.5014,0.8932,0.8906,1.083,1.4891,1.5673,1.6602,1.7486,1.7149,1.7568,1.8711,1.8841,1.8705,1.8452,1.8449,1.7122,1.4828,1.2628,1.0816,0.932,0.0,0.0,0.0,0.0,0.0,0.0,0.0,0.0,0.0,0.0,0.0,0.0,0.0,0.0,0.0,0.0,0.0,0.0,0.0,0.0,0.0,0.0,0.0,0.0,0.0,0.0,0.0,0.0,0.0,0.0,0.0,0.0,0.0,0.4945,0.4907,0.4432,0.2866,0.182,0.0877,-0.0286,-0.0583,-0.0693,-0.0404,-0.0404,-0.0303,0.0,0.0,0.0,0.0,0.0,0.0,0.0,0.0,-0.0606,-0.1613,-0.1613,-0.2217,-0.3224,-0.3224,-0.262,-0.1613,-0.1613,-0.1009,0.0,0.0,0.0,0.0,0.0,0.0,0.0,0.0,0.0,-0.0202,0.0,0.0,0.0,0.0,0.0,0.0,0.0,-0.354,-0.3528,-0.2938,-0.0724,0.0538,-0.0163,0.3368,0.5827,0.6008,0.6002,0.5152,0.3046,0.2817,0.229,0.1313,0.3817,0.6062,0.7987,0.9607,1.1524,1.3829,1.5321,1.677,1.8164,1.7392,1.8244,2.0242,1.9141,1.8585,1.855,1.925,1.8023,1.5838,1.5769,1.416,1.215,0.0,0.0,0.0,0.0,0.0,0.0,0.0,0.0,0.0,0.0,0.0,0.0,0.0,0.0,0.0,0.0,0.0,0.0,0.0,0.0,0.0,0.0,0.0,0.0,0.0,0.0,0.0,0.0,0.0,0.0,0.0,0.9497,0.9181,0.6635,0.6259,0.5743,0.4403,0.377,0.279,0.0893,0.0698,0.0401,-0.0303,-0.0202,-0.0101,0.0,0.0,0.0,0.0,0.0,0.0,0.0,-0.0807,-0.1311,-0.1613,-0.2418,-0.2922,-0.3224,-0.3224,-0.262,-0.1613,-0.1613,-0.1009,0.0,0.0,0.0,0.0,0.0,0.0,0.0,0.0,0.0,-0.0202,0.0,0.0,0.0,0.0,0.0,0.0,0.0,-0.3737,-0.3416,-0.2638,-0.0968,0.055,0.1514,0.3327,0.4926,0.5916,0.5547,0.4699,0.3428,0.3149,0.3057,0.3244,0.5087,0.7059,0.9065,1.0543,1.2293,1.411,1.577,1.7274,1.8507,1.759,1.8387,2.0494,1.8723,1.8019,1.8069,1.8727,1.7844,1.6139,1.6706,1.5232,1.3022,1.6149,1.7171,1.7305,2.0457,2.2626,2.364,2.1492,0.0,0.0,0.0,0.0,0.0,0.0,0.0,0.0,0.0,0.0,0.0,0.0,0.0,0.0,0.0,0.0,0.0,0.0,0.0,0.0,0.0,0.0,0.0,0.0,1.0353,1.0334,0.8874,0.7875,0.6771,0.5608,0.4824,0.3618,0.1613,0.131,0.0807,-0.0202,-0.0101,0.0,0.0,0.0,0.0,0.0,0.0,-0.0202,-0.0707,-0.0807,-0.1613,-0.2922,-0.3123,-0.3626,-0.4528,-0.4528,-0.3925,0.0,-0.2922,-0.2116,-0.0707,-0.0707,-0.0404,0.0,0.0,0.0,0.0,0.0,0.0,-0.0202,0.0,0.0,0.0,0.0,0.0,0.0,0.0,-0.3983,-0.3432,-0.2478,-0.1803,0.0406,0.5171,0.4218,0.3942,0.5644,0.4646,0.3701,0.2902,0.264,0.3222,0.4914,0.582,0.7729,1.0701,1.147,1.2813,1.4769,1.6413,1.7755,1.8748,1.7735,1.8306,2.0126,1.8033,1.7171,1.7237,1.7456,1.7033,1.6139,1.6304,1.53,1.3595,1.3322,1.5567,1.8836,1.9197,2.2108,2.5725,2.5282,0.0,0.0,0.0,0.0,0.0,0.0,0.0,0.0,0.0,0.0,0.0,0.0,0.0,0.0,0.0,0.0,0.0,0.0,0.0,0.0,0.0,0.0,0.0,0.0,1.1009,1.091,1.1191,0.9399,0.7621,0.6523,0.532,0.392,0.2016,0.1613,0.1109,0.0202,0.0101,0.0,0.0,0.0,0.0,0.0,0.0,-0.0505,-0.1412,-0.0707,-0.1815,-0.4634,-0.3927,-0.4528,-0.6437,-0.6437,-0.5834,-0.4834,-0.4634,-0.3425,-0.1613,-0.1513,-0.0908,0.0,0.0,0.0,0.0,0.0,0.0,-0.0303,0.0,0.0,0.0,0.0,0.0,0.0,0.0,-0.3672,-0.365,-0.3108,-0.1487,0.1135,0.5267,0.5394,0.5384,0.6008,0.4901,0.394,0.36,0.3205,0.3858,0.5859,0.6699,0.7608,0.8559,1.0407,1.2026,1.3121,1.5455,1.7382,1.878,1.7987,1.8502,1.9939,1.7803,1.6852,1.6952,1.6884,1.669,1.6312,1.6394,1.7724,1.9738,1.9308,2.3584,2.9784,2.9441,3.2016,3.5096,3.1964,3.0984,3.0456,2.6698,2.3397,0.0,0.0,0.0,0.0,0.0,0.0,0.0,0.0,0.0,0.0,0.0,0.0,0.0,0.0,0.0,0.0,0.0,0.0,0.0,1.0841,1.1506,1.1996,1.1253,0.9399,0.7621,0.6523,0.6129,0.5229,0.3123,0.2821,0.2418,0.1412,0.0505,0.0,0.0,0.0,0.0,0.0,0.0,-0.0101,-0.0303,-0.1815,-0.2922,-0.3525,0.0,0.0,-0.6437,-0.6437,-0.5834,-0.4734,-0.3929,-0.2821,-0.1513,-0.0707,-0.0202,0.0,0.0,0.0,0.0,0.0,0.0,-0.0303,0.0,0.0,0.0,0.0,0.0,0.0,0.0,-0.3729,-0.3795,-0.3605,-0.2039,-0.0,0.2584,0.3109,0.3441,0.394,0.3366,0.3045,0.3281,0.4412,0.5591,0.6573,0.7121,0.8077,0.9537,1.0843,1.2194,1.3692,1.5134,1.6365,1.7475,1.6648,1.7043,1.8531,1.6491,1.5651,1.5676,1.5678,1.5462,1.5061,1.5311,1.766,2.0682,1.8352,2.2477,2.9447,2.9008,3.294,3.8068,3.6216,3.5465,3.4673,3.1048,2.8191,2.5424,0.0,0.0,0.0,0.0,0.0,0.0,0.0,0.0,0.0,0.0,0.0,0.0,0.0,0.0,1.5489,1.2917,0.0,1.4264,1.2337,1.2466,1.2533,1.2047,0.9694,0.7723,0.6927,0.6534,0.5632,0.3825,0.3324,0.272,0.1713,0.0606,0.0,0.0,0.0,0.0,0.0,0.0,-0.0303,-0.0807,-0.1814,-0.2922,-0.4029,-0.5133,-0.5834,-0.6437,-0.6437,-0.6137,-0.5534,-0.5031,-0.4227,-0.3123,-0.2016,-0.1009,-0.0101,-0.1211,-0.0908,-0.0101,-0.0606,-0.0807,-0.111,0.0,0.0,0.0,0.0,0.0,0.0,0.0,0.0,-0.3995,-0.377,-0.284,-0.1556,-0.0155,0.0391,0.078,0.1312,0.157,0.1897,0.2655,0.5208,0.6757,0.7044,0.7198,0.8352,1.0459,1.1031,1.23,1.4202,1.4496,1.5146,1.6069,1.5166,1.5624,1.7044,1.5722,1.4972,1.4596,1.4372,1.4132,1.4075,1.4412,1.6288,1.8744,1.6538,2.0581,2.7329,2.7004,3.1306,3.7259,3.8328,3.7667,3.6095,3.43,3.2642,3.0003,2.324,2.2422,0.0,0.0,0.0,0.0,0.0,0.0,0.0,0.0,1.9645,2.0057,1.9453,1.9185,1.8119,1.4758,1.527,1.5619,1.395,1.3136,1.2727,1.2727,0.9985,0.7925,0.7434,0.6836,0.5834,0.4427,0.3825,0.3022,0.2017,0.0908,0.0202,0.0,0.0,0.0,0.0,0.0,-0.0404,-0.1311,-0.1714,-0.2821,-0.4531,-0.4935,-0.5534,-0.6437,-0.6437,-0.6437,-0.6337,-0.5934,-0.5131,-0.413,-0.3022,-0.1513,-0.0202,-0.2116,-0.1815,-0.0404,-0.1513,-0.1815,-0.1915,0.0,0.0,0.0,0.0,0.0,0.0,0.0,0.0,0.0,-0.3411,-0.3348,-0.2591,-0.0388,-0.0156,-0.0154,-0.0221,0.0555,0.1389,0.2112,0.399,0.5614,0.6792,0.6934,0.7444,0.8337,0.9436,1.0765,1.2344,1.2732,1.398,1.5798,1.5121,1.5543,1.6876,1.6941,1.6273,1.485,1.325,1.3581,1.518,1.4979,1.449,1.4359,1.9671,2.5889,3.1847,3.1638,3.1986,3.3175,3.729,3.5601,3.2429,3.6339,3.5057,3.1202,2.6759,2.314,1.9622,1.5148,1.6053,1.838,1.8961,2.0385,2.1554,0.0,2.0784,1.9941,1.8911,1.8124,1.6928,1.4714,1.524,1.5511,1.3931,1.3151,1.2727,1.2727,1.0177,0.8223,0.7939,0.7036,0.6134,0.5534,0.4933,0.413,0.3123,0.2016,0.1009,0.0101,0.0,0.0,0.0,0.0,-0.0101,-0.0202,-0.2116,-0.3123,-0.3425,-0.5331,-0.6234,-0.6437,-0.6437,-0.6437,-0.6337,-0.4427,-0.2922,-0.1915,-0.0807,-0.0202,-0.0101,-0.1311,-0.1613,-0.1513,-0.262,-0.2418,-0.1915,0.0,0.0,0.0,0.0,0.0,0.0,0.0,0.0,0.0,0.0,-0.368,-0.3149,-0.2219,-0.1936,-0.1848,-0.1808,-0.1144,-0.016,0.1172,0.3069,0.4921,0.6352,0.6659,0.7346,0.8419,0.9056,1.0,1.1268,1.1463,1.1843,1.2404,1.2452,1.2684,1.3193,1.3827,1.3683,1.2878,1.1804,1.2277,1.3861,1.4552,1.3979,1.2997,1.4277,2.1762,3.1271,2.8987,2.9965,0.0,3.4109,3.3195,3.2238,3.696,3.5187,3.0663,2.7096,2.4321,2.2297,2.1752,2.0961,2.0874,2.3298,2.4092,2.4124,2.3675,2.2556,2.163,2.1624,2.1037,1.9838,1.7396,1.7316,1.7011,1.5233,1.3648,1.2732,1.2926,1.0881,0.9217,0.892,0.8127,0.7132,0.6137,0.5336,0.4331,0.3324,0.2217,0.111,0.0101,0.0,0.0,0.0,0.0,0.0,0.0,-0.1513,-0.262,-0.3224,-0.4732,-0.5837,-0.6437,-0.6437,-0.6437,-0.6334,-0.5432,-0.4429,-0.3525,-0.3623,-0.302,-0.2016,-0.3723,-0.3624,-0.262,-0.3728,-0.3827,-0.3726,0.0,0.0,0.0,0.0,0.0,0.0,0.0,0.0,0.0,0.0,0.0,-0.3823,-0.3761,-0.3558,-0.3291,-0.2956,-0.2704,-0.1775,0.0156,0.1853,0.362,0.563,0.6169,0.7005,0.8162,0.8324,0.8968,1.021,1.0066,1.0096,1.0297,1.0245,1.0545,1.1177,1.0352,0.9857,0.958,0.9911,1.0661,1.1723,1.3703,1.3213,1.0977,0.9592,1.6711,2.7409,2.7013,2.8593,3.0779,3.0387,2.9332,2.9017,3.3735,3.2468,2.8589,2.5328,2.2907,2.1806,2.4025,2.3506,2.3052,2.6102,2.6771,2.6423,2.5648,2.4327,2.3389,2.377,2.3299,2.198,1.9247,1.8788,1.8141,1.6109,1.4088,1.2829,1.3022,1.1375,1.0015,0.9608,0.892,0.8031,0.6833,0.5834,0.4832,0.3726,0.262,0.1613,0.0505,0.0202,0.0,0.0,0.0,0.0,0.0,-0.1311,-0.2418,-0.3224,-0.463,-0.5634,-0.6437,-0.6437,-0.6437,-0.6337,-0.6137,-0.5536,-0.4834,-0.5334,-0.4628,-0.3425,-0.5231,-0.483,-0.3324,-0.4431,-0.4834,-0.4935,0.0,0.0,0.0,0.0,0.0,0.0,0.0,0.0,0.0,0.0,0.0,0.0,0.0,-0.4425,-0.4295,-0.3565,-0.3963,-0.3124,-0.0623,0.0,0.1539,0.4281,0.5282,0.6062,0.6731,0.687,0.7478,0.8675,0.8248,0.913,1.1157,0.9567,1.0215,1.2566,0.7969,0.5403,0.4658,0.7507,0.8698,0.9003,1.2645,1.1329,0.7375,0.8307,1.295,2.0139,2.8223,2.9008,2.6239,2.6479,2.3361,2.0245,2.5134,2.607,2.4712,2.1276,1.7493,1.5006,1.7713,2.0538,2.3213,2.5498,2.7188,2.8116,2.7325,2.5942,2.4638,2.3963,2.3299,2.198,1.9247,1.8788,1.8141,1.6109,1.4088,1.2829,1.3022,1.1575,1.0212,0.9706,0.9118,0.8428,0.763,0.6833,0.5934,0.4834,0.3728,0.272,0.1613,0.0606,0.0,0.0,0.0,0.0,0.0,-0.2116,-0.3123,-0.3224,-0.5331,-0.6337,-0.6437,-0.6437,-0.6437,-0.6337,-0.5336,-0.4834,-0.4734,-0.3726,-0.3224,-0.3324,-0.4431,-0.413,-0.3324,-0.4431,-0.4834,-0.4935,0.0,0.0,0.0,0.0,0.0,0.0,0.0,0.0,0.0,0.0,0.0,0.0,0.0,0.0,0.0,0.0,-0.4499,-0.3724,-0.1936,-0.016,0.1685,0.3772,0.4939,0.5695,0.6176,0.6409,0.6587,0.6902,0.6852,0.6879,0.7177,0.7419,0.6871,0.5941,0.755,0.7158,0.532,0.6263,0.5606,0.3903,0.4526,0.4977,0.5507,0.8311,1.033,1.2283,0.0,2.0219,2.1448,2.159,2.0571,2.0085,2.4925,2.4074,2.0607,1.6785,1.6285,1.7655,2.046,2.3263,2.6114,2.9096,2.9038,2.8119,2.8039,2.5975,2.4059,2.3887,2.1902,1.9733,1.8189,1.7406,1.6529,1.5136,1.3649,1.2829,1.3022,1.138,1.0212,1.0404,0.932,0.8528,0.8428,0.7232,0.0,0.4834,0.3827,0.272,0.1613,0.0606,0.0,0.0,0.0,0.0,0.0,-0.1412,-0.2519,-0.3224,-0.5331,-0.6437,-0.6437,-0.6437,-0.6437,-0.6337,-0.6037,-0.5436,-0.4734,-0.4431,-0.3827,-0.3224,-0.3626,-0.3525,-0.3224,-0.3626,-0.3728,-0.3827,0.0,0.0,0.0,0.0,0.0,0.0,0.0,0.0,0.0,0.0,0.0,0.0,0.0,0.0,0.0,0.0,0.0,-0.4953,-0.3479,-0.1458,0.0321,0.1818,0.3062,0.4013,0.4543,0.5305,0.5546,0.5153,0.542,0.5465,0.5289,0.5852,0.4303,0.12,0.4308,0.4897,0.3659,0.3659,0.2176,-0.0251,-0.1509,-0.0244,0.3027,0.7458,0.8377,0.0,1.1161,1.4063,1.6413,1.7117,1.729,1.7817,2.1059,1.996,1.7081,1.5188,1.6389,1.9245,2.3148,2.5524,2.7562,3.058,2.9731,2.8211,2.8039,2.5975,2.4155,2.3887,2.139,1.8894,1.7744,1.6156,1.4782,1.3913,1.2443,1.1718,1.2241,1.0896,1.0079,1.0676,0.9719,0.8924,0.8825,0.763,0.6434,0.5436,0.4028,0.2922,0.2217,0.0807,0.0,0.0,0.0,0.0,0.0,-0.1412,-0.2922,-0.4327,-0.5732,-0.6437,-0.6437,-0.6437,-0.6437,-0.6437,-0.6437,-0.6037,-0.5336,-0.5336,-0.4931,-0.4327,-0.4327,-0.4128,-0.3726,-0.3726,-0.3525,-0.3224,0.0,0.0,0.0,0.0,0.0,0.0,0.0,0.0,0.0,0.0,0.0,0.0,0.0,0.0,0.0,0.0,0.0,0.0,-0.5024,-0.3669,-0.253,-0.1441,-0.0081,0.1062,0.2002,0.3677,0.4068,0.3285,0.4053,0.478,0.5346,0.497,0.2565,-0.1369,-0.1429,-0.106,-0.0264,-0.0264,-0.1404,-0.3348,-0.5004,-0.3605,0.0,0.5518,0.7009,0.6559,0.9724,1.1054,1.158,1.3347,1.381,1.3729,1.4312,1.4443,1.473,1.6492,1.7778,1.9825,2.5297,2.7105,2.7902,3.0073,2.9474,2.8267,2.7418,2.6102,2.4744,2.3882,2.162,1.9344,1.7556,1.5116,1.3127,1.2537,1.0712,0.9841,1.0928,1.0241,0.9881,1.0635,1.0314,0.962,0.8825,0.8028,0.7232,0.6437,0.0,0.3224,0.3224,0.1211,0.0,0.0,0.0,0.0,0.0,-0.2116,-0.4227,-0.6437,-0.6437,-0.6437,-0.6437,-0.6437,-0.6437,-0.6437,-0.6437,-0.6337,-0.6337,-0.6337,-0.6334,-0.6237,-0.6237,-0.5634,-0.4734,-0.4734,-0.4029,-0.3324,0.0,0.0,0.0,0.0,0.0,0.0,0.0,0.0,0.0,0.0,0.0,0.0,0.0,0.0,0.0,0.0,0.0,0.0,-0.4757,-0.4289,-0.3475,-0.2149,-0.1094,-0.0323,0.0081,0.0831,0.1516,0.2109,0.2348,0.3176,0.4601,0.4442,0.2366,-0.1409,-0.2209,-0.3156,-0.4264,-0.4252,-0.5348,-0.7048,-0.5627,-0.2524,0.133,0.3056,0.5102,0.7337,0.9467,1.0828,1.1749,1.2764,1.467,1.6995,1.9277,1.9737,1.952,1.9887,2.196,2.455,2.6288,2.8473,3.0408,3.1256,3.0291,2.8924,2.8279,2.6871,2.4994,2.2247,1.9557,1.691,1.424,1.3395,1.2877,1.2368,1.2031,1.1895,1.2225,1.0688,0.9761,1.0199,0.9715,0.9122,0.8528,0.7928,0.7232,0.0,0.4427,0.3224,0.3224,0.1211,0.0,0.0,0.0,0.0,0.0,-0.2116,-0.4227,-0.6437,-0.6437,-0.6437,-0.6437,-0.6437,-0.6437,-0.6437,-0.6437,-0.5937,-0.5236,-0.5236,-0.4732,-0.4026,-0.4026,-0.3825,-0.3626,-0.3626,-0.3425,-0.3324,0.0,0.0,0.0,0.0,0.0,0.0,0.0,0.0,0.0,0.0,0.0,0.0,0.0,0.0,0.0,0.0,0.0,0.0,0.0,-0.6237,-0.5464,-0.4734,-0.3713,-0.2811,-0.1994,-0.1618,-0.101,-0.0157,0.0229,0.053,0.0685,-0.0956,-0.2803,-0.4692,-0.6011,-0.7116,-0.8014,-0.8341,-0.8821,0.0,0.0,-0.5187,-0.1585,0.1174,0.3409,0.5511,0.8749,1.1394,1.3566,1.4861,1.695,1.9116,1.9781,2.0227,2.0625,2.158,2.3182,2.5174,2.7516,2.8816,2.9628,2.9897,2.8856,2.7404,2.578,2.4447,2.2793,1.9788,1.7019,1.4641,1.2966,1.2024,1.1377,1.1012,1.1136,1.1212,1.1138,1.017,0.9552,0.9989,0.9916,0.9517,0.8531,0.823,0.763,0.6537,0.4427,0.3224,0.3224,0.1211,0.0,0.0,0.0,-0.0404,-0.1412,-0.262,-0.4227,-0.6437,-0.6437,-0.6437,-0.6437,-0.6437,-0.6437,-0.6437,0.0,-0.6034,-0.5534,-0.5534,-0.5131,-0.4628,-0.4628,-0.4628,-0.4628,-0.4628,-0.4628,-0.4728,0.0,0.0,0.0,0.0,0.0,0.0,0.0,0.0,0.0,0.0,-1.0194,0.0,0.0,0.0,0.0,0.0,0.0,0.0,0.0,0.0,-0.7807,-0.7743,-0.6867,-0.5679,-0.4288,-0.3846,-0.3424,-0.2928,-0.221,-0.2741,-0.4535,-0.8492,-1.0043,-0.958,-1.0846,-1.1163,-1.0944,-1.1797,-1.161,-1.075,-1.0667,-0.9087,-0.6225,0.0,0.1373,0.2317,0.756,1.1742,1.5152,1.737,1.9199,2.032,1.879,1.8939,2.0141,2.2252,2.2831,2.3722,2.7964,2.8171,2.7059,2.7105,2.6456,2.501,2.2176,2.1025,1.9822,1.7003,1.4607,1.2821,1.2359,1.0868,0.9669,0.9456,0.9423,0.9374,0.9343,0.9305,0.938,0.9866,1.0413,1.0113,0.8531,0.8627,0.8127,0.6537,0.4529,0.3324,0.3224,0.1311,0.0101,0.0,0.0,-0.1009,-0.3224,-0.3224,-0.4227,-0.6437,-0.6437,-0.6437,-0.6437,-0.6437,-0.6437,-0.6437,0.0,0.0,-0.6437,-0.6437,-0.6437,-0.6437,-0.6437,-0.6437,-0.6437,-0.6437,-0.6437,-0.6437,0.0,0.0,0.0,0.0,0.0,0.0,0.0,0.0,0.0,0.0,-1.1544,-1.2067,0.0,0.0,0.0,0.0,0.0,0.0,0.0,0.0,0.0,-0.8597,-0.8173,-0.7438,-0.6469,-0.644,-0.5881,-0.4596,-0.4798,-0.5952,-0.8027,-1.2577,-1.426,-1.338,-1.2214,-1.1416,-1.0985,-1.2039,-1.2965,-1.3442,-1.0737,-0.8928,-0.753,-0.4746,0.0,0.0,0.5561,0.9144,1.1683,1.4853,1.8045,2.0863,2.2014,2.2078,2.2009,2.3108,2.3391,2.3675,2.4919,2.5061,2.4903,2.5091,2.5217,2.4612,2.17,2.1393,2.0232,1.511,1.3763,1.2632,0.9816,0.974,0.9958,0.9798,0.9888,1.0129,1.0784,1.0082,0.9522,0.9616,0.992,0.9624,0.8237,0.8333,0.7932,0.6534,0.5233,0.413,0.3224,0.2016,0.0908,0.0,0.0,-0.1009,-0.3224,-0.3224,-0.4227,-0.6437,-0.6437,-0.6437,-0.6437,-0.6437,-0.6437,-0.6437,-0.6437,0.0,-0.6437,-0.6437,-0.6437,-0.6437,-0.6437,-0.6437,-0.6437,-0.6437,-0.6437,-0.6437,0.0,0.0,0.0,0.0,0.0,0.0,0.0,-1.1104,-1.182,-1.1804,-1.1895,-1.2295,-1.3208,-1.3497,-1.3615,0.0,0.0,0.0,0.0,0.0,0.0,0.0,0.0,0.0,-0.8745,-0.84,-0.7805,-0.7079,0.0,-0.7812,-0.9402,-1.3782,-1.536,-1.4574,-1.339,-1.2498,-1.1948,-1.2993,-1.3438,-1.3408,-1.2296,-1.149,-1.0651,0.0,0.0,0.0,0.3085,0.6142,0.8578,1.025,1.2835,1.5953,1.9315,2.0301,2.0608,2.1864,2.2092,2.2179,2.2871,2.2969,2.2737,2.1979,2.2164,2.1617,1.7838,1.7064,1.5897,1.1424,1.0315,0.9668,0.8251,0.8788,0.9232,0.8714,0.9497,1.0076,0.9912,0.9736,0.9628,0.9628,0.9821,0.9426,0.8137,0.8237,0.7832,0.6534,0.5937,0.4933,0.3324,0.1613,0.0505,0.0,0.0,-0.1009,-0.3224,-0.3224,-0.4227,-0.6437,-0.6437,-0.6437,-0.6437,-0.6437,-0.6437,-0.6437,-0.6437,0.0,-0.6437,-0.6437,-0.6437,-0.6437,-0.6437,-0.6437,-0.6437,-0.6437,-0.6437,-0.6437,0.0,0.0,0.0,0.0,0.0,0.0,-1.0731,-1.1374,-1.1799,-1.1871,-1.1929,-1.2356,-1.3222,-1.3652,-1.3961,0.0,0.0,0.0,0.0,0.0,0.0,0.0,0.0,0.0,0.0,0.0,0.0,-1.0297,-0.9517,0.0,0.0,0.0,0.0,0.0,-1.4598,-1.3957,-1.3446,-1.4213,-1.4124,0.0,0.0,-1.4206,0.0,0.0,0.0,0.0,0.0,0.1284,0.3814,0.4739,0.6675,0.9335,1.3362,1.5799,1.7467,1.8904,1.9276,1.9312,2.0419,2.0523,2.0025,1.8856,1.9139,1.8459,1.4017,1.2899,1.1793,0.8266,0.7282,0.7041,0.7241,0.781,0.8084,0.7483,0.8315,0.9009,0.8649,0.8945,0.9259,0.9612,0.9821,0.9426,0.8137,0.8237,0.7832,0.6534,0.5934,0.4929,0.3324,0.1211,0.0,0.0,0.0,-0.1009,-0.3224,-0.3224,-0.4227,-0.6437,-0.6437,-0.6437,-0.6437,-0.6437,-0.6437,-0.6437,-0.6437,0.0,0.0,-0.6437,-0.6437,-0.6437,-0.6437,-0.6437,-0.6437,-0.6437,-0.6437,-0.6437,0.0,0.0,0.0,0.0,0.0,0.0,-1.0585,-1.1381,-1.1838,-1.1491,-1.2201,-1.2709,-1.2768,-1.2652,-1.2913,0.0,0.0,0.0,0.0,0.0,0.0,0.0,0.0,0.0,0.0,0.0,0.0,-1.4524,-1.2628,0.0,0.0,0.0,0.0,0.0,0.0,-1.5757,-1.5276,-1.5522,0.0,0.0,0.0,0.0,0.0,0.0,0.0,0.0,0.0,-0.752,-0.4973,-0.1166,0.1258,0.3013,0.4746,0.8831,1.3089,1.4076,1.4274,1.4648,1.66,1.6344,1.5765,1.6662,1.7412,1.6808,1.273,1.2447,1.1973,0.7977,0.7281,0.726,0.6935,0.6754,0.6689,0.6906,0.6369,0.6531,0.8364,0.8182,0.8345,0.9453,0.9821,0.9426,0.8137,0.8237,0.7832,0.6534,0.4628,0.3425,0.3224,0.1211,0.0,0.0,0.0,-0.1009,-0.3224,-0.3224,-0.4227,-0.6437,-0.6437,-0.6437,-0.6437,-0.6437,-0.6437,-0.6437,-0.6437,0.0,0.0,-0.6437,-0.6437,-0.6437,-0.6437,-0.6437,-0.6437,-0.6437,-0.6437,-0.6437,0.0,0.0,0.0,0.0,0.0,0.0,-1.1185,-1.1643,-1.1768,-1.1346,-1.1844,-1.2116,-1.1708,-1.185,-1.2519,-1.3906,0.0,0.0,0.0,0.0,0.0,0.0,0.0,0.0,0.0,0.0,-1.3114,-1.4372,-1.4612,0.0,0.0,0.0,0.0,0.0,0.0,-1.5994,-1.5595,-1.6083,0.0,0.0,0.0,0.0,0.0,0.0,0.0,0.0,0.0,0.0,-1.007,-0.6132,-0.4353,-0.3356,-0.0436,0.2347,0.5387,0.9033,1.0476,1.1162,1.2674,1.3019,1.3408,1.4829,1.4625,1.3441,1.156,1.0225,0.8651,0.6199,0.5689,0.561,0.5513,0.5492,0.5492,0.536,0.5441,0.5742,0.6471,0.6513,0.6993,0.8345,0.8702,0.8675,0.8103,0.8237,0.7832,0.6534,0.5033,0.3929,0.3224,0.1211,0.0,0.0,0.0,-0.1009,-0.3224,-0.3224,-0.4227,-0.6437,-0.6437,-0.6437,-0.6437,-0.6437,-0.6437,-0.6437,-0.6437,0.0,0.0,-0.6437,-0.6437,-0.6437,-0.6437,-0.6437,-0.6437,-0.6437,-0.6437,-0.6437,0.0,0.0,0.0,0.0,0.0,-1.095,-1.1508,-1.1752,-1.1733,-1.1288,-1.1584,-1.1708,-1.1294,-1.1611,-1.2342,-1.3495,-1.3334,0.0,0.0,0.0,0.0,0.0,0.0,0.0,0.0,0.0,-1.354,-1.3953,-1.5524,-1.5776,0.0,0.0,-1.6739,-1.5961,0.0,0.0,0.0,0.0,0.0,0.0,0.0,0.0,0.0,0.0,0.0,0.0,0.0,0.0,0.0,0.0,0.0,-0.7064,-0.4357,-0.255,-0.0459,0.4746,0.6646,0.7372,0.9059,0.9656,1.0263,1.248,1.1863,1.0542,1.006,0.8399,0.6451,0.4907,0.4424,0.4387,0.4342,0.448,0.4458,0.4193,0.4463,0.4768,0.5102,0.5209,0.5739,0.7056,0.7554,0.7636,0.7521,0.7733,0.7434,0.6437,0.5434,0.4331,0.3224,0.1513,0.0303,0.0,0.0,-0.1009,-0.3224,-0.2922,-0.3925,-0.6437,-0.6037,-0.6137,-0.6437,-0.6437,-0.6437,-0.6437,-0.6437,0.0,0.0,-0.6437,-0.6437,-0.6437,-0.6437,-0.6437,-0.6437,-0.6437,-0.6437,-0.6437,0.0,0.0,0.0,0.0,0.0,0.0,-1.1262,-1.159,-1.1664,-1.1333,-1.1584,-1.1811,-1.1898,-1.2117,-1.233,-1.2421,-1.2226,0.0,0.0,0.0,0.0,0.0,0.0,0.0,0.0,0.0,-1.4483,-1.4098,-1.5268,-1.6151,-1.677,-1.7391,-1.7757,-1.7909,0.0,0.0,0.0,0.0,0.0,0.0,0.0,0.0,0.0,0.0,0.0,0.0,0.0,0.0,0.0,0.0,0.0,0.0,0.0,-0.5623,-0.3119,0.1627,0.2594,0.2863,0.5997,0.5902,0.5674,0.9155,0.9426,0.8605,0.8193,0.7492,0.6375,0.443,0.4028,0.3959,0.3825,0.362,0.3554,0.3663,0.3138,0.3268,0.4716,0.4489,0.4746,0.6026,0.656,0.6645,0.6383,0.6348,0.6437,0.6437,0.5434,0.0,0.3224,0.2217,0.111,0.0,0.0,-0.1009,-0.3224,-0.2116,-0.3221,-0.6437,-0.5334,-0.5336,-0.6437,-0.6437,-0.6437,0.0,0.0,0.0,0.0,-0.6437,-0.6437,-0.6437,-0.6437,-0.6437,-0.6437,-0.6437,-0.6437,-0.6437,0.0,0.0,0.0,0.0,0.0,0.0,-1.1417,-1.1753,-1.1896,-1.1557,-1.1903,-1.215,-1.2,-1.2323,-1.2583,-1.2606,-1.2289,0.0,0.0,0.0,0.0,0.0,0.0,0.0,0.0,0.0,-1.3959,-1.3955,-1.5995,-1.6866,-1.6675,-1.813,-1.8708,-1.8626,-1.928,-1.9442,0.0,0.0,0.0,0.0,0.0,0.0,0.0,0.0,0.0,0.0,0.0,0.0,0.0,0.0,0.0,0.0,0.0,0.0,0.0,-0.3648,-0.1627,-0.008,0.1689,0.2354,0.3279,0.6171,0.5889,0.5105,0.5996,0.4913,0.3662,0.3641,0.3355,0.3157,0.336,0.336,0.323,0.2981,0.2828,0.2928,0.3574,0.3887,0.4599,0.6017,0.7056,0.7729,0.8013,0.7033,0.6437,0.6437,0.6037,0.5131,0.3324,0.2922,0.1915,0.0101,0.0,-0.1009,-0.3224,-0.2821,-0.3925,-0.6437,-0.6034,-0.6037,-0.6437,-0.6437,-0.6437,0.0,0.0,0.0,0.0,-0.6437,-0.6437,-0.6437,-0.6437,-0.6437,-0.6437,-0.6437,-0.6437,-0.6437,0.0,0.0,0.0,0.0,0.0,0.0,-1.1378,-1.1508,-1.157,-1.1501,-1.1605,-1.1694,-1.1721,-1.2093,-1.2246,-1.1971,-1.1925,0.0,0.0,0.0,0.0,0.0,0.0,0.0,-1.3018,-1.3616,-1.4211,-1.4771,-1.6542,-1.7652,-1.812,-1.9304,-1.9891,-1.9952,-2.0494,-2.0673,0.0,0.0,0.0,0.0,0.0,0.0,-2.4581,0.0,0.0,0.0,0.0,0.0,0.0,0.0,0.0,0.0,0.0,0.0,0.0,0.0,-0.4966,-0.3209,-0.1344,-0.0492,0.0669,0.3492,0.3328,0.294,0.4428,0.3619,0.2757,0.3288,0.3088,0.2956,0.3159,0.3197,0.3059,0.2727,0.28,0.3019,0.3428,0.3906,0.474,0.6246,0.7278,0.7889,0.8072,0.7309,0.6736,0.6437,0.6437,0.5634,0.3927,0.3425,0.2418,0.0707,0.0202,-0.1009,-0.3224,-0.2821,-0.3925,-0.6437,-0.6034,-0.5937,-0.6239,-0.6337,-0.6337,0.0,0.0,0.0,0.0,-0.6437,-0.6437,-0.6437,-0.6437,-0.6437,-0.6437,-0.6437,-0.6437,-0.6437,0.0,0.0,0.0,0.0,0.0,0.0,0.0,-1.0888,-1.0841,-1.116,-1.0795,-1.068,-1.1135,-1.153,-1.1465,-1.0767,-1.1475,0.0,0.0,0.0,0.0,0.0,0.0,0.0,-1.3336,-1.4063,-1.5046,-1.6214,-1.7018,-1.8532,-2.0633,-2.0763,-2.1129,-2.1688,-2.2189,-2.2278,-2.2118,0.0,0.0,0.0,0.0,0.0,0.0,0.0,0.0,0.0,0.0,0.0,0.0,0.0,0.0,0.0,0.0,0.0,0.0,0.0,0.0,0.0,0.0,-0.2673,-0.1983,0.1237,0.1652,0.1798,0.344,0.3472,0.0,0.3218,0.3222,0.3222,0.3209,0.3203,0.3113,0.2833,0.2987,0.345,0.4169,0.4619,0.5419,0.6843,0.737,0.7467,0.7019,0.7416,0.7232,0.6437,0.6437,0.0,0.4834,0.3827,0.272,0.1613,0.0606,-0.1009,-0.3224,-0.2217,-0.3321,-0.6437,-0.5436,-0.5336,-0.6042,-0.6237,-0.6237,0.0,0.0,0.0,0.0,-0.6437,-0.6437,-0.6437,-0.6437,-0.6437,-0.6437,-0.6437,-0.6437,-0.6634,0.0,0.0,0.0,0.0,0.0,0.0,0.0,0.0,0.0,0.0,-1.0352,-1.0626,-1.1201,-1.1351,-1.1236,0.0,0.0,0.0,0.0,0.0,0.0,0.0,0.0,0.0,-1.3617,-1.4688,-1.5632,-1.6427,-1.7834,-1.9333,-2.0904,-2.1048,-2.159,-2.2481,-2.3151,-2.3798,-2.4453,-2.515,0.0,0.0,0.0,0.0,0.0,0.0,0.0,0.0,-2.0128,-1.8804,0.0,0.0,0.0,0.0,0.0,0.0,0.0,0.0,-0.8091,-0.7204,-0.5122,0.0,-0.3046,-0.1346,-0.049,0.0346,0.0,0.2045,0.2204,0.3073,0.3374,0.3445,0.3362,0.35,0.3537,0.329,0.3287,0.3712,0.4882,0.6294,0.78,0.9124,0.8977,0.859,0.8111,0.775,0.7232,0.6437,0.6437,0.5937,0.4834,0.3827,0.272,0.1613,0.0606,-0.1009,-0.3224,-0.2922,-0.4026,-0.6437,-0.6134,-0.6137,-0.6337,-0.6337,-0.6337,0.0,0.0,0.0,-0.6437,-0.6437,-0.6437,-0.6437,-0.6437,-0.6437,-0.6437,-0.6437,-0.6933,-0.7611,0.0,0.0,0.0,0.0,0.0,0.0,0.0,0.0,0.0,0.0,-0.9504,-0.9655,-1.0263,-1.0273,-1.0274,0.0,0.0,0.0,0.0,0.0,0.0,0.0,0.0,-1.4435,-1.4699,-1.559,-1.6667,-1.7874,-1.9066,-2.0565,-2.2329,-2.235,-2.283,-2.3733,-2.4267,-2.4877,-2.5528,-2.5466,-2.5502,0.0,-2.5419,0.0,0.0,0.0,0.0,0.0,-1.9443,-1.8224,0.0,-1.5482,-1.4832,-1.4048,0.0,0.0,0.0,0.0,-0.8254,-0.7364,-0.6077,-0.5022,-0.388,-0.2614,-0.1343,-0.0269,0.0672,0.1479,0.2267,0.2914,0.3385,0.3635,0.3537,0.3697,0.3721,0.3595,0.3475,0.3859,0.5101,0.6681,0.8123,0.9474,0.9359,0.9064,0.0,0.8329,0.763,0.6537,0.6437,0.6137,0.5534,0.4028,0.2922,0.2318,0.0807,-0.1009,-0.3224,-0.272,-0.3825,-0.6437,-0.5934,-0.5837,-0.6239,-0.6337,-0.6337,0.0,0.0,0.0,-0.6437,-0.6437,-0.6437,-0.6437,-0.6437,-0.6734,-0.7129,-0.7129,-0.7779,-0.8586,0.0,0.0,0.0,0.0,0.0,0.0,0.0,0.0,0.0,0.0,0.0,0.0,0.0,0.0,0.0,0.0,0.0,0.0,0.0,0.0,0.0,0.0,-1.5798,-1.5656,-1.5712,-1.6603,-1.7918,-1.9579,-2.0398,-2.1863,-2.3925,-2.3948,-2.4381,-2.5142,-2.5339,-2.5523,-2.5663,-2.513,-2.5379,-2.5966,-2.474,0.0,0.0,0.0,0.0,0.0,0.0,0.0,0.0,-1.5003,-1.4155,-1.3331,-1.168,0.0,0.0,0.0,0.0,0.0,-0.6466,-0.5697,-0.4721,-0.3127,-0.173,-0.0601,-0.0067,0.1267,0.2383,0.2636,0.3194,0.3665,0.3537,0.369,0.3865,0.3787,0.3783,0.4172,0.5263,0.6493,0.7813,0.9108,0.9244,0.0,0.8769,0.8623,0.8028,0.6537,0.0,0.6437,0.6437,0.4327,0.3224,0.3224,0.111,-0.1009,-0.3224,-0.2116,-0.3222,-0.6437,-0.5336,-0.5236,-0.6042,-0.6339,-0.6237,-0.6042,0.0,0.0,-0.6437,-0.6437,-0.6534,-0.6634,-0.6437,-0.7117,-0.8185,-0.7987,-0.8571,-0.9569,0.0,0.0,0.0,0.0,0.0,0.0,0.0,0.0,0.0,0.0,0.0,0.0,0.0,0.0,0.0,0.0,0.0,0.0,0.0,0.0,0.0,-1.5812,-1.5209,-1.4881,-1.4868,-1.7523,-1.9244,-1.9935,-2.1403,-2.2747,-2.3988,-2.4725,-2.5476,-2.6251,-2.6052,-2.5532,-2.482,-2.5288,-2.4987,-2.4241,-2.4697,0.0,0.0,0.0,0.0,0.0,0.0,0.0,0.0,-1.5255,-1.4298,-1.3096,-1.1963,0.0,0.0,0.0,0.0,0.0,-0.6504,-0.6175,-0.5811,-0.3321,-0.2354,-0.1622,0.0,0.0518,0.0964,0.1935,0.2666,0.3043,0.2752,0.3467,0.4013,0.3671,0.4395,0.5332,0.6293,0.7316,0.8328,0.9694,0.0,0.9006,0.852,0.8031,0.7431,0.6437,0.0,0.6437,0.6437,0.4327,0.3224,0.3224,0.111,-0.1009,-0.3224,-0.2116,-0.3222,-0.6437,-0.5336,-0.5336,-0.6337,-0.6337,-0.6337,0.0,0.0,-0.6437,-0.6437,-0.6437,-0.6933,-0.7624,-0.6734,-0.7451,-0.8887,-0.8028,-0.8794,-1.0399,0.0,0.0,0.0,0.0,0.0,0.0,0.0,0.0,0.0,0.0,0.0,0.0,0.0,0.0,0.0,0.0,0.0,0.0,0.0,0.0,-1.2689,-1.3249,-1.4256,-1.5042,-1.5543,-1.7437,-1.9371,-2.1345,-2.2485,-2.4044,-2.602,-2.6456,-2.6635,-2.659,-2.6214,-2.5958,-2.5797,-2.5228,-2.5212,-2.5446,0.0,0.0,0.0,0.0,0.0,0.0,0.0,0.0,0.0,0.0,-1.3608,-1.2707,-1.1872,0.0,0.0,0.0,0.0,0.0,-0.6202,-0.5423,-0.4736,-0.3874,-0.3174,-0.255,-0.1723,-0.0599,0.0442,0.1099,0.1736,0.2184,0.2046,0.2607,0.3154,0.321,0.4004,0.4661,0.4967,0.5462,0.6355,0.7843,0.0,0.7858,0.7997,0.773,0.7232,0.0,0.0,0.0,0.6437,0.4327,0.3224,0.3224,0.111,-0.1009,-0.3224,-0.1513,-0.2618,-0.6337,-0.473,-0.483,-0.6437,-0.6437,-0.6437,-0.6437,0.0,-0.6437,-0.6437,-0.6437,-0.6734,-0.7123,-0.7153,-0.7955,-0.9208,-0.9681,-1.0384,-1.1191,0.0,0.0,0.0,0.0,0.0,0.0,0.0,0.0,0.0,0.0,0.0,0.0,0.0,0.0,0.0,0.0,0.0,0.0,0.0,-1.1281,-1.1322,-1.1372,-1.3503,-1.5147,-1.606,-1.7395,-1.958,-2.2641,-2.3479,-2.5413,-2.8325,-2.8062,-2.7684,-2.7182,-2.641,-2.6215,-2.642,-2.5125,-2.5327,-2.6223,0.0,0.0,0.0,0.0,0.0,0.0,0.0,0.0,0.0,0.0,0.0,0.0,0.0,0.0,0.0,-0.8892,-0.7701,-0.6526,-0.5812,-0.4892,-0.4133,-0.4368,-0.3756,-0.3139,-0.3131,-0.1638,-0.0159,0.0151,0.0732,0.1252,0.1241,0.1736,0.2293,0.2889,0.346,0.3824,0.3827,0.4166,0.4919,0.6413,0.6731,0.696,0.7588,0.7431,0.7033,0.0,0.0,0.0,0.6437,0.4327,0.3224,0.3224,0.111,-0.0908,-0.2821,-0.1211,-0.2417,-0.6337,-0.4227,-0.4327,-0.6437,-0.6437,-0.6437,-0.6437,-0.6437,-0.6437,-0.6437,-0.6437,-0.6517,-0.6778,-0.7463,-0.8427,-0.9635,-1.104,-1.1618,-1.1591,0.0,0.0,0.0,0.0,0.0,0.0,0.0,0.0,0.0,0.0,0.0,0.0,0.0,0.0,0.0,0.0,0.0,0.0,0.0,-1.2138,-1.1993,-1.2119,-1.3422,-1.4572,-1.5449,-1.8087,-2.064,-2.3064,-2.4176,-2.6599,-3.0184,-2.8944,-2.8479,-2.8681,-2.6961,-2.5865,-2.5292,-2.501,-2.4822,-2.4667,-2.3303,0.0,0.0,0.0,0.0,0.0,0.0,0.0,0.0,0.0,0.0,0.0,0.0,0.0,-1.0112,-0.8143,-0.7621,-0.726,-0.5599,-0.5469,-0.5619,-0.4801,-0.3729,-0.2985,-0.311,-0.2505,-0.1674,-0.0874,-0.0237,0.0226,0.0136,0.1138,0.2236,0.3193,0.321,0.3557,0.4538,0.5158,0.6036,0.7353,0.727,0.7291,0.7528,0.6933,0.0,0.0,0.0,0.0,0.6437,0.4327,0.3224,0.3224,0.111,-0.0505,-0.1714,-0.1513,-0.312,-0.6337,-0.4227,-0.4327,-0.6437,-0.6437,-0.6437,-0.6437,-0.6437,-0.6437,-0.6437,-0.6437,-0.6958,-0.7714,-0.7711,-0.8663,-1.0168,-1.1025,-1.1289,-1.1289,0.0,0.0,0.0,0.0,0.0,0.0,0.0,0.0,0.0,0.0,0.0,0.0,0.0,0.0,0.0,0.0,0.0,0.0,0.0,-1.1229,-1.1269,-1.1135,-1.34,-1.4842,-1.5261,-1.7171,-1.988,-2.3348,-2.6661,-2.9129,-3.0699,-3.0415,-2.9606,-2.834,-2.7046,-2.6118,-2.5435,-2.4109,-2.3719,-2.3914,-2.2263,-2.0667,0.0,0.0,0.0,0.0,0.0,0.0,0.0,0.0,-1.2172,-1.1367,-1.0683,-0.9906,-0.9051,-0.8109,-0.7373,-0.6702,-0.5787,-0.5645,-0.5596,-0.5092,-0.4387,-0.3675,-0.3381,-0.2382,-0.1441,-0.114,-0.0867,-0.0415,0.0604,0.078,0.1313,0.3056,0.2842,0.2733,0.3717,0.4234,0.4935,0.5732,0.6034,0.6337,0.6833,0.0,0.0,0.0,0.0,0.0,0.6437,0.4379,0.3168,0.3168,0.1078,-0.0779,-0.2431,-0.1848,-0.3109,-0.6219,-0.4879,-0.4931,-0.6437,-0.6437,-0.6399,-0.6331,-0.6331,-0.629,-0.6219,-0.6219,-0.6381,-0.6804,-0.793,-0.9397,-1.0845,-1.1207,-1.1262,-1.1262,0.0,0.0,0.0,0.0,0.0,0.0,0.0,0.0,0.0,0.0,0.0,0.0,0.0,0.0,0.0,0.0,0.0,0.0,-1.0544,-1.1058,-1.1146,-1.0667,-1.3201,-1.4756,-1.4903,-1.6776,-1.9525,-2.3152,-2.75,-2.9976,-3.0649,-3.0541,-2.9584,-2.7893,-2.6406,-2.5543,-2.5102,-2.3108,-2.259,-2.2959,-2.107,-1.9559,0.0,0.0,0.0,0.0,0.0,0.0,0.0,0.0,-1.1646,-1.1001,-1.0557,-0.9533,-0.8414,-0.7874,-0.7145,-0.6404,-0.5884,-0.5586,-0.5423,-0.524,-0.4678,-0.4097,-0.403,-0.2751,-0.1699,-0.1789,-0.1476,-0.0793,0.058,0.0345,0.0628,0.2598,0.2399,0.232,0.313,0.3831,0.4423,0.4696,0.5388,0.5971,0.623,0.0,0.0,0.0,0.0,0.0,0.0,0.4296,0.3104,0.3104,0.1055,-0.0667,-0.1997,-0.1997,-0.2946,-0.5133,-0.5178,-0.5637,-0.6325,-0.6325,-0.6285,-0.6211,-0.6211,-0.6162,-0.6086,-0.6086,-0.6435,-0.7031,-0.8517,-0.9976,-1.1262,-1.1262,-1.1262,-1.1262,0.0,0.0,0.0,0.0,0.0,0.0,0.0,0.0,0.0,0.0,0.0,0.0,0.0,0.0,0.0,0.0,0.0,0.0,-1.1322,-1.2006,-1.1962,-1.0955,-1.2836,-1.4045,-1.4334,-1.7221,-1.9955,-2.2422,-2.6094,-2.8643,-3.0064,-2.9006,-2.8219,-2.7574,-2.4965,-2.3975,-2.4171,-2.2062,-2.1457,-2.17,-1.9674,-1.8521,-1.7671,0.0,0.0,0.0,0.0,0.0,0.0,0.0,-1.1646,-1.0995,-1.0395,-0.9436,-0.8325,-0.7483,-0.6972,-0.6556,-0.589,-0.545,-0.5154,-0.5296,-0.4553,-0.4048,-0.4906,-0.3771,-0.2733,-0.3125,-0.2088,-0.0987,-0.0448,-0.0179,0.0448,0.188,0.2014,0.2319,0.3027,0.4131,0.48,0.4708,0.5676,0.6219,0.6097,0.0,0.0,0.0,0.0,0.0,0.0,0.4085,0.3041,0.2946,0.1047,0.0,0.0,-0.1997,-0.304,-0.304,-0.5128,-0.6083,-0.6086,-0.6086,-0.6086,-0.6083,-0.6083,-0.6083,-0.6083,-0.6081,-0.7118,-0.8775,-0.9578,-1.0472,-1.1262,-1.1262,-1.1262,-1.1262,0.0,0.0,0.0,0.0,0.0,0.0,0.0,0.0,0.0,0.0,0.0,0.0,0.0,0.0,0.0,0.0,0.0,0.0,-1.2414,-1.2277,-1.215,-1.2042,-1.3805,-1.5447,-1.6807,-1.9781,-2.2442,-2.4783,-2.6828,-2.8438,-2.9538,-2.9331,-2.8502,-2.711,-2.4787,-2.3492,-2.2936,-2.0568,-1.9666,-1.9605,-1.828,-1.7193,-1.6307,0.0,0.0,0.0,0.0,0.0,0.0,0.0,0.0,0.0,-0.9783,-0.8974,-0.8032,-0.7919,-0.7349,-0.6683,-0.6507,-0.7186,-0.7549,-0.6107,-0.6529,-0.7177,-0.6536,-0.4528,-0.263,-0.2182,-0.1786,-0.1248,-0.0453,-0.0752,-0.0573,0.0976,0.1127,0.1377,0.2233,0.3681,0.464,0.4614,0.5566,0.6124,0.0,0.0,0.0,0.0,0.0,0.0,0.0,0.375,0.2699,0.2048,0.0736,-0.0274,-0.1005,-0.2281,-0.3284,-0.3921,-0.5199,-0.5926,-0.6086,-0.6086,-0.604,-0.5958,-0.5958,-0.5912,-0.5836,-0.6554,-0.7867,-0.9587,-0.9795,-1.0472,-1.1262,-1.1262,-1.1262,-1.1262,0.0,0.0,0.0,0.0,0.0,0.0,0.0,0.0,0.0,0.0,0.0,0.0,0.0,0.0,0.0,0.0,0.0,0.0,0.0,-1.3691,-1.3565,-1.3754,-1.5162,-1.7205,-1.9901,-2.1837,-2.3852,-2.604,-2.6344,-2.6726,-2.7205,-2.7968,-2.7149,-2.4997,-2.3535,-2.2574,-2.1834,-1.9358,-1.8217,-1.7938,-1.7099,-1.5998,-1.4856,0.0,0.0,0.0,0.0,0.0,0.0,0.0,0.0,0.0,-1.0013,-0.8926,-0.7746,-0.7987,-0.7398,-0.6767,-0.741,-0.8131,-0.8516,-0.7509,-0.8095,-0.8428,-0.706,-0.54,-0.3864,-0.2504,-0.222,-0.1986,-0.1034,-0.1259,-0.1173,0.0183,0.0376,0.0579,0.1431,0.3046,0.4176,0.4049,0.5263,0.5996,0.0,0.0,0.0,0.0,0.0,0.0,0.0,0.3579,0.2553,0.1552,0.0181,-0.0808,-0.1436,-0.2777,-0.3762,-0.43,-0.5285,-0.5809,-0.5947,-0.5947,-0.5907,-0.5836,-0.6192,-0.6332,-0.6349,-0.7665,-0.8894,-0.9946,-1.0299,-1.0824,-1.1262,-1.1262,-1.1262,-1.1262,0.0,0.0,0.0,0.0,0.0,0.0,0.0,0.0,0.0,0.0,-1.6746,0.0,0.0,0.0,0.0,0.0,0.0,0.0,0.0,0.0,-1.5891,-1.5993,-1.7134,-1.9481,-2.3195,-2.3547,-2.4549,-2.6301,-2.5172,-2.4409,-2.4025,-2.5513,-2.4731,-2.2078,-2.1592,-2.1176,-2.0669,-1.8229,-1.7022,-1.6637,-1.6167,-1.5046,-1.3631,-1.3318,0.0,0.0,0.0,0.0,0.0,0.0,0.0,0.0,-1.0463,-0.9082,-0.7454,-0.7795,-0.7341,-0.703,-0.8397,-0.8694,-0.8771,-0.9298,-0.9007,-0.8247,-0.6896,-0.6537,-0.5934,-0.3825,-0.3318,-0.2999,-0.1969,-0.1765,-0.146,-0.0572,-0.038,-0.0095,0.0664,0.2272,0.3288,0.3319,0.4782,0.5756,0.0,0.0,0.0,0.0,0.0,0.0,0.0,0.3314,0.2331,0.1346,-0.0448,-0.1436,-0.1436,-0.3315,-0.43,0.0,-0.5285,-0.5733,-0.5733,-0.5733,-0.5733,-0.5733,-0.67,-0.7139,-0.7404,-0.9157,-0.9946,-1.012,-1.0997,-1.1262,-1.1262,-1.1262,-1.1262,-1.1262,0.0,0.0,0.0,0.0,0.0,0.0,0.0,0.0,0.0,0.0,0.0,0.0,0.0,0.0,0.0,0.0,0.0,0.0,0.0,0.0,-1.7858,-1.8347,-2.1186,-2.3338,-2.4574,-2.5495,-2.5854,-2.5545,-2.5528,-2.5014,-2.3984,-2.4028,-2.3321,-2.1837,-1.9941,-1.901,-1.8765,-1.6728,-1.59,-1.5919,-1.5285,-1.4747,-1.4177,-1.3067,-1.2412,0.0,0.0,0.0,0.0,0.0,0.0,0.0,-0.913,-0.8302,-0.753,-0.7829,-0.8231,-0.8725,-0.9152,-1.06,-1.1594,-0.9834,-0.8796,-0.8028,-0.77,-0.7637,-0.7033,-0.4924,-0.4375,-0.4034,-0.3038,-0.2808,-0.2382,-0.1401,-0.0745,-0.0278,-0.0182,0.118,0.2445,0.3153,0.4053,0.0,0.0,0.0,0.0,0.0,0.0,0.0,0.3224,0.224,0.1256,0.0359,-0.0808,-0.1436,-0.1436,-0.3315,-0.43,0.0,-0.5285,-0.5733,-0.5733,-0.5733,-0.5733,-0.5733,-0.67,-0.7489,-0.8281,-0.9419,-1.0299,-1.1003,-1.1176,-1.1262,-1.1262,-1.1262,-1.1262,-1.1262,0.0,0.0,0.0,0.0,0.0,0.0,0.0,0.0,0.0,0.0,0.0,0.0,0.0,0.0,0.0,0.0,0.0,0.0,0.0,0.0,-2.016,-2.1264,-2.2924,-2.4455,-2.578,-2.5707,-2.5275,-2.4487,-2.4003,-2.3101,-2.183,-2.2026,-2.123,-1.9544,-1.8753,-1.7914,-1.7152,-1.5864,-1.5071,-1.4598,-1.4362,-1.3718,-1.2822,-1.2255,-1.1597,-1.0998,-1.0971,0.0,0.0,0.0,0.0,0.0,0.0,0.0,-0.7314,-0.7579,-0.7809,-0.8344,-0.99,-1.1211,-1.1986,-1.1345,-0.9918,-0.8726,-0.8726,-0.8333,-0.7617,-0.6454,-0.5804,-0.5057,-0.3913,-0.3681,-0.3261,-0.2286,-0.1822,-0.1452,-0.0988,0.0358,0.1431,0.1967,0.2953,0.0,0.0,0.0,0.0,0.0,0.0,0.3851,0.2957,0.1973,0.0987,0.0,-0.0897,-0.1614,-0.2152,-0.3583,-0.4567,-0.5015,-0.5466,-0.5733,-0.5733,-0.5733,-0.5908,-0.6438,-0.7404,-0.8281,-0.9244,-1.0207,-1.0824,-1.1262,-1.1262,-1.1262,-1.1262,-1.1262,-1.1262,-1.1262,0.0,0.0,0.0,0.0,0.0,0.0,0.0,0.0,0.0,0.0,0.0,0.0,0.0,0.0,0.0,0.0,0.0,0.0,0.0,0.0,0.0,-2.3789,-2.3784,-2.4572,-2.6333,-2.5297,-2.4223,-2.3198,-2.1877,-2.0419,-1.8879,-1.9665,-1.8968,-1.7161,-1.7494,-1.7009,-1.5846,-1.5142,-1.4284,-1.3281,-1.3324,-1.2536,-1.1233,-1.13,-1.0725,-0.9865,-1.0285,-1.0079,-0.9747,0.0,0.0,0.0,0.0,0.0,-0.6979,-0.7202,-0.7221,-0.7669,-1.0263,-1.1086,-1.1489,-1.2749,-1.1463,-0.9899,-0.9899,-0.9193,-0.8445,-0.809,-0.7189,-0.6059,-0.4824,-0.4593,-0.4195,-0.3321,-0.3045,-0.2598,-0.1793,-0.0448,0.0447,0.0715,0.179,0.0,0.0,0.0,0.0,0.0,0.0,0.3494,0.2688,0.1704,0.0718,-0.018,-0.0987,-0.1973,-0.3135,-0.3941,-0.4748,-0.5733,-0.5733,-0.5733,-0.5733,-0.5733,-0.6171,-0.7139,-0.8105,-0.9069,-0.9946,-1.0911,-1.1262,-1.1262,-1.1262,-1.1262,-1.1262,-1.1262,-1.1262,-1.1262,0.0,0.0,0.0,0.0,0.0,0.0,0.0,0.0,0.0,0.0,-2.0578,-2.0928,0.0,0.0,0.0,0.0,0.0,0.0,0.0,0.0,0.0,-2.445,-2.5165,-2.5407,-2.5078,-2.5512,-2.4359,-2.1502,-2.069,-1.8953,-1.6407,-1.6992,-1.7244,-1.7129,-1.5734,-1.5094,-1.5094,-1.3986,-1.332,-1.2841,-1.2251,-1.1827,-1.1406,-1.0793,-1.031,-0.9969,-0.9814,-0.9814,-0.9877,-0.9517,-0.8988,0.0,0.0,0.0,-0.6611,-0.6751,-0.7758,-0.8862,-0.9136,-1.0209,-1.155,-1.2775,-1.2247,-1.1268,-1.1072,-1.0743,-1.0187,-0.9247,-0.8182,-0.7101,-0.5915,-0.5628,-0.5198,-0.4291,-0.34,-0.2867,-0.2688,-0.1613,-0.0448,0.0537,0.1074,0.0,0.0,0.0,0.0,0.0,0.224,0.1704,0.1614,0.0718,-0.0269,-0.1166,-0.1345,-0.224,-0.4119,-0.4208,-0.4748,-0.5733,-0.5733,-0.5733,-0.5733,-0.5733,-0.6171,-0.7139,-0.8105,-0.9069,-0.9946,-1.0911,-1.1262,-1.1262,-1.1262,-1.1262,-1.1262,-1.1262,-1.1262,-1.1262,0.0,0.0,0.0,0.0,0.0,0.0,0.0,0.0,0.0,0.0,0.0,-2.2097,0.0,0.0,0.0,0.0,0.0,0.0,0.0,0.0,0.0,-2.4024,-2.4252,-2.4387,-2.4415,-2.377,-2.2395,-2.0245,-1.8853,-1.6953,-1.4586,-1.4473,-1.4748,-1.5282,-1.4468,-1.3819,-1.3294,-1.2749,-1.2213,-1.1648,-1.1171,-1.1188,-1.1296,-1.0051,-0.9855,-1.0084,-0.9556,-0.9204,-0.8999,-0.9069,-0.8567,-0.7876,-0.7413,0.0,0.0,0.0,-0.7192,-0.8119,-0.9833,-1.1468,-1.2887,-1.4178,-1.3511,-1.2635,-1.2538,-1.1687,-1.0901,-1.0227,-0.9543,-0.8504,-0.6898,-0.6557,-0.6163,-0.5272,-0.4736,-0.4293,-0.3757,-0.2686,-0.1612,-0.0984,-0.0179,0.0,0.0,0.0,0.0,0.0,0.1614,0.1436,0.1436,0.0539,-0.0449,-0.1345,-0.1436,-0.2331,-0.43,-0.43,-0.4748,-0.5733,-0.5733,-0.5733,-0.5733,-0.5733,-0.6526,-0.7929,-0.8281,-0.9331,-1.0738,-1.1089,-1.1262,-1.1262,-1.1262,-1.1262,-1.1262,-1.1262,-1.1262,-1.1262,0.0,0.0,0.0,0.0,0.0,0.0,0.0,0.0,0.0,0.0,0.0,0.0,0.0,0.0,0.0,0.0,0.0,0.0,0.0,0.0,0.0,-2.3502,-2.3179,-2.3235,-2.377,-2.235,-2.0785,-1.9168,-1.7567,-1.5576,-1.3233,-1.2836,-1.2788,-1.3089,-1.3233,-1.2748,-1.1829,-1.171,-1.1191,-1.0471,-1.0456,-1.0782,-1.1147,-0.9787,-0.9741,-1.0283,-0.9329,-0.8685,-0.8315,-0.8534,-0.8159,-0.7546,-0.7285,-0.7113,0.0,0.0,0.0,-0.7762,-1.0307,-1.1925,-1.3333,-1.4628,-1.4204,-1.3579,-1.3843,-1.2886,-1.1776,-1.141,-1.0885,-0.9939,-0.8124,-0.7577,-0.7136,-0.6251,-0.5897,-0.545,-0.4736,-0.3666,-0.2774,-0.2238,0.0,0.0,0.0,0.0,0.0,0.0,0.1077,0.1077,0.1077,0.018,-0.0808,-0.1793,-0.1793,-0.2688,-0.4656,-0.4656,-0.5015,-0.5733,-0.5733,-0.5733,-0.5733,-0.5911,-0.6962,-0.8544,-0.8544,-0.9593,-1.1262,-1.1262,-1.1262,-1.1262,-1.1262,-1.1262,-1.1262,-1.1262,-1.1262,-1.1262,0.0,0.0,0.0,0.0,0.0,0.0,0.0,0.0,0.0,0.0,0.0,0.0,-2.3577,-2.4233,-2.4592,-2.4329,-2.4188,-2.3914,-2.3412,-2.2803,-2.2705,-2.3211,-2.2674,0.0,-2.2966,-2.2253,-2.065,-1.8165,-1.7444,-1.5456,-1.2344,-1.254,-1.2083,-1.1181,-1.1729,-1.1801,-1.1414,-1.1051,-1.0351,-0.9606,-1.0255,-1.0674,-1.0853,-1.0296,-1.0274,-1.0408,-0.8942,-0.8421,-0.833,-0.7852,-0.7658,-0.7546,-0.7285,-0.7338,-0.7462,0.0,0.0,0.0,-0.9595,-1.0387,-1.1432,-1.3015,-1.3542,-1.3935,-1.4835,-1.4378,-1.3532,-1.258,-1.1749,-1.0901,-0.9927,-0.9061,-0.8105,-0.7139,-0.6251,-0.5719,-0.563,-0.4825,-0.3755,-0.2596,0.0,0.0,0.0,0.0,0.0,0.0,0.009,0.009,0.009,-0.0808,-0.1793,-0.2778,-0.2778,-0.3762,-0.5644,-0.5644,-0.5644,-0.5733,-0.5733,-0.5733,-0.5733,-0.6612,-0.7577,-0.8544,-0.8544,-0.9593,-1.1262,-1.1262,-1.1262,-1.1262,-1.1262,-1.1262,-1.1262,-1.1262,-1.1262,-1.1262,0.0,0.0,0.0,0.0,0.0,0.0,0.0,0.0,0.0,0.0,0.0,0.0,0.0,-2.4016,-2.4008,-2.3599,-2.3249,-2.2961,-2.2779,-2.2463,-2.2344,-2.2539,-2.1998,-2.1796,-2.1945,-2.1029,-1.9522,-1.745,-1.6882,-1.4959,-1.1842,-1.211,-1.1361,-0.9959,-1.0923,-1.0772,-0.982,-0.9536,-0.8862,-0.8043,-0.9279,-1.0367,-1.1181,-1.0424,-1.1204,-1.2428,-1.0366,-0.9528,-0.9364,-0.9216,-0.8602,-0.7762,-0.7747,-0.771,-0.777,-0.8099,-0.8611,-0.9298,-1.0664,-1.1368,-1.2104,-1.3543,-1.4221,-1.4592,-1.5026,-1.4645,-1.405,-1.3676,-1.2897,-1.1929,-1.0971,-1.0014,-0.9056,-0.8193,-0.7749,-0.7309,-0.6694,-0.5805,-0.5003,-0.4467,0.0,0.0,0.0,0.0,0.0,0.0,0.0,-0.0898,-0.0898,-0.1793,-0.2778,-0.3762,-0.3762,-0.4389,-0.5644,-0.5733,-0.5733,-0.5733,-0.5733,-0.5733,-0.5733,-0.67,-0.7577,-0.8544,-0.9157,-1.012,-1.1262,-1.1262,-1.1262,-1.1262,-1.1262,-1.1262,-1.1262,-1.1262,-1.1262,-1.1262,0.0,0.0,0.0,0.0,0.0,0.0,0.0,0.0,0.0,-2.4248,0.0,0.0,0.0,0.0,-2.3182,-2.2886,-2.2434,-2.2198,-2.2341,-2.207,-2.1998,-2.2169,-2.1541,-2.1274,-2.1485,-2.0116,-1.8612,-1.6897,-1.6009,-1.4153,-1.1422,-1.1806,-1.103,-0.9427,-1.0128,-0.9752,-0.8474,-0.8329,-0.7736,-0.6965,-0.8831,-1.0208,-1.1187,-1.0441,-1.1307,-1.2609,-1.067,-0.9867,-0.9829,-1.0451,-1.0059,-0.9166,-0.8839,-0.8406,-0.8159,-0.8742,-0.9271,-0.9817,-1.0927,-1.1396,-1.19,-1.2897,-1.3382,-1.379,-1.462,-1.4374,-1.3969,-1.4257,-1.3504,-1.2641,-1.186,-1.1225,-1.0443,-0.9148,-0.8973,-0.8623,-0.7665,-0.7048,-0.6337,-0.5628,0.0,0.0,0.0,0.0,0.0,0.0,0.0,0.0,-0.1883,-0.2867,-0.3762,-0.4748,-0.4748,-0.5107,-0.5733,-0.5733,-0.5733,-0.5733,-0.5733,-0.5733,-0.5733,-0.67,-0.7577,-0.8544,-0.9506,-1.0472,-1.1262,-1.1262,-1.1262,-1.1262,-1.1262,-1.1262,-1.1262,-1.1262,-1.1262,-1.1262,0.0,0.0,0.0,0.0,0.0,0.0,0.0,0.0,-2.3794,-2.3599,0.0,0.0,0.0,0.0,0.0,-2.2359,-2.1935,-2.1819,-2.2123,-2.1687,-2.1602,-2.2115,-2.1184,-2.0967,-2.1541,-1.968,-1.7933,-1.6497,-1.4995,-1.3168,-1.1058,-1.1601,-1.1062,-0.9475,-0.9397,-0.8684,-0.7432,-0.7467,-0.6938,-0.6379,-0.9002,-1.0267,-1.0634,-1.0487,-1.066,-1.0801,-0.9742,-0.9395,-0.9707,-1.1345,-1.188,-1.1629,-1.043,-0.9369,-0.8732,-0.9406,-0.9969,-1.0343,0.0,0.0,0.0,-1.1025,-1.1106,-1.1609,-1.3769,-1.3678,-1.3323,-1.4179,-1.3698,-1.3,-1.2753,-1.2705,-1.2095,-1.0269,-0.9923,-0.9575,-0.8715,-0.8544,-0.7837,-0.5985,0.0,0.0,0.0,0.0,0.0,0.0,-0.3044,-0.2957,-0.2957,-0.3851,-0.4748,-0.5644,-0.5733,-0.5733,-0.5733,-0.5733,-0.5733,-0.5733,-0.5733,-0.5733,-0.5733,-0.67,-0.7577,-0.8544,-0.9506,-1.0472,-1.1262,-1.1262,-1.1262,-1.1262,-1.1262,-1.1262,-1.1262,-1.1262,-1.1262,-1.1262,0.0,0.0,0.0,0.0,0.0,-2.3014,-2.3272,-2.33,-2.3271,0.0,0.0,0.0,-2.3013,-2.2551,-2.203,-2.1572,-2.1513,-2.1302,-2.0872,-2.0955,-2.1066,-2.1023,-2.0398,-2.0154,-2.0295,-1.8753,-1.7606,-1.6852,-1.5581,-1.408,-1.2422,-1.1919,-1.0968,-0.9662,-0.8995,-0.7917,-0.6705,-0.6265,-0.5506,-0.481,-0.7342,-0.9088,-1.0246,-1.119,-1.2757,-1.4199,-1.2416,-1.217,-1.2603,-1.2425,-1.1546,-1.0392,-0.9253,-0.8732,-0.8778,-0.9755,-1.0218,-1.0551,-1.132,0.0,0.0,0.0,0.0,0.0,-1.3365,-1.3342,-1.3404,-1.4358,-1.4062,-1.3707,-1.3613,-1.3626,-1.3281,-1.2089,-1.1316,-1.0539,-0.9666,-0.8886,-0.8277,-0.7749,0.0,0.0,0.0,0.0,0.0,0.0,-0.4028,-0.3941,-0.3941,-0.4835,-0.5463,-0.5733,-0.5733,-0.5733,-0.5733,-0.5733,-0.5733,-0.5733,-0.5733,-0.5733,-0.5733,-0.67,-0.7577,-0.8544,-0.9506,-1.0472,-1.1262,-1.1262,-1.1262,-1.1262,-1.1262,-1.1262,-1.1262,-1.1262,-1.1262,-1.1262,0.0,0.0,0.0,0.0,0.0,-2.2683,-2.2807,-2.3084,-2.3249,0.0,0.0,0.0,-2.292,-2.2461,-2.2084,-2.1979,-2.1654,-2.1399,-2.1262,-2.1278,-2.1233,-2.1088,-2.0526,-2.0156,-2.0055,-1.8485,-1.7399,-1.6852,-1.5195,-1.3848,-1.2802,-1.2115,-1.1074,-0.985,-0.9063,-0.7943,-0.6625,-0.5747,-0.4942,-0.4513,-0.7167,-0.8903,-1.006,-1.1537,-1.3102,-1.4307,-1.2856,-1.2814,-1.3601,-1.3331,-1.2191,-1.084,-1.0229,-0.9349,-0.883,-0.9953,-1.0364,-1.0677,-1.1819,-1.1977,-1.1877,-1.1927,0.0,0.0,-1.3572,-1.3787,-1.4068,-1.5503,-1.5397,-1.5021,-1.474,-1.4629,-1.4384,-1.388,-1.3027,-1.1997,-1.0707,-1.0019,-0.9497,-0.9148,0.0,0.0,0.0,-0.6425,-0.5625,-0.545,-0.5188,-0.5013,-0.4926,-0.5374,-0.5733,-0.5733,-0.5733,-0.5733,-0.5733,-0.5733,-0.5733,-0.5733,-0.5733,-0.5911,-0.626,-0.6877,-0.7841,-0.9157,-0.968,-1.0472,-1.1262,-1.1262,-1.1262,-1.1262,-1.1262,-1.1262,-1.1262,-1.1262,-1.1262,-1.1262,0.0,0.0,-2.0474,-2.0797,-2.1738,-2.2355,-2.2111,-2.2914,-2.3432,0.0,-2.2902,-2.2671,-2.2655,-2.2321,-2.225,-2.2698,-2.2012,-2.1759,-2.2169,-2.18,-2.1578,-2.1483,-2.0972,-2.051,-2.022,-1.8461,-1.7219,-1.6609,-1.4459,-1.3167,-1.2668,-1.2157,-1.1279,-0.9979,-0.9332,-0.8276,-0.6993,-0.5722,-0.5104,-0.5233,-0.7865,-0.934,-1.0138,-1.1831,-1.2687,-1.2978,-1.2154,-1.25,-1.357,-1.4105,-1.3379,0.0,-1.2118,-1.0632,-0.9173,-1.0096,-1.0474,-1.0829,-1.1813,-1.1828,-1.1578,-1.1578,-1.1326,0.0,-1.3974,-1.4348,-1.4704,-1.6617,-1.6653,-1.6141,-1.5567,-1.5219,-1.5043,-1.4881,-1.4337,-1.3387,-1.1821,-1.1408,-1.0977,-1.0188,0.0,0.0,-0.8544,-0.758,-0.6789,-0.6432,-0.6257,-0.5997,-0.5733,-0.5733,-0.5733,-0.5733,-0.5733,-0.5733,-0.5733,-0.5733,-0.5733,-0.5733,-0.5733,-0.6174,-0.6962,-0.7051,-0.8105,-0.9767,-0.9859,-1.0472,-1.1262,-1.1262,-1.1262,-1.1262,-1.1262,-1.1262,-1.1262,-1.1262,-1.1262,-1.1262,0.0,-2.0773,-2.1487,-2.1786,-2.237,-2.2839,-2.2997,-2.2702,-2.2605,-2.283,-2.2664,-2.2497,-2.2309,-2.2232,-2.1833,-2.0983,-2.1111,-2.0823,-1.9767,-2.0089,-2.0156,-1.9726,-1.9679,-1.9448,-1.8975,-1.7757,-1.7011,-1.6759,-1.4888,-1.3929,-1.3861,-1.2324,-1.1067,-1.0134,-0.897,-0.7857,-0.6803,-0.6104,-0.6487,-0.7506,-0.7986,-0.9011,-1.0511,-1.2601,-1.4107,-1.5013,-1.3171,-1.3661,-1.5166,-1.4418,-1.3861,-1.3233,0.0,0.0,0.0,-1.0481,0.0,-1.1876,-1.2057,-1.2026,-1.1977,0.0,0.0,0.0,-1.2494,-1.2681,-1.3028,-1.4259,-1.4223,-1.3913,-1.3749,-1.338,-1.2806,-1.1952,-1.2649,-1.3333,-1.3484,-1.226,-1.1235,-1.1063,0.0,0.0,-0.8544,-0.8189,-0.7573,-0.6792,-0.6349,-0.5997,-0.5733,-0.5733,-0.5733,-0.5733,-0.5733,-0.5733,-0.5733,-0.5733,-0.5733,-0.5733,-0.5733,-0.5822,-0.5997,-0.6789,-0.7753,-0.8807,-0.9593,-1.0472,-1.1262,-1.1262,-1.1262,-1.1262,-1.1262,-1.1262,-1.1262,-1.1262,-1.1262,-1.1262,-2.0717,-2.1392,-2.2097,-2.2521,-2.3207,-2.3596,-2.3259,-2.3111,-2.2929,-2.2685,-2.2721,-2.2762,-2.2681,-2.2586,-2.2207,-2.1396,-2.1299,-2.0908,-2.0067,-2.0042,-1.9988,-1.9707,-1.9556,-1.9186,-1.8536,-1.7733,-1.7015,-1.6435,-1.4735,-1.3834,-1.3627,-1.2172,-1.1093,-1.0324,-0.9362,-0.8441,-0.7582,-0.6793,-0.728,-0.8679,-0.8857,-1.0088,-1.2029,-1.3774,-1.4695,-1.4867,-1.3312,-1.3409,-1.4297,-1.478,-1.4083,0.0,-1.2355,-1.1768,-1.1202,0.0,-1.1685,-1.2166,0.0,0.0,0.0,-1.2076,0.0,0.0,0.0,-1.3485,-1.3895,-1.5018,-1.5041,-1.4705,-1.4346,-1.3967,-1.3462,-1.2605,-1.3344,-1.3795,-1.331,-1.2894,-1.2516,-1.2015,0.0,0.0,-0.9932,-0.9405,-0.879,-0.8017,-0.7228,-0.67,-0.6438,-0.6,-0.5733,-0.5733,-0.5733,-0.5733,-0.5733,-0.5733,-0.5733,-0.5733,-0.5733,-0.5908,-0.6438,-0.7404,-0.8281,-0.9244,-1.0207,-1.0911,-1.1262,-1.1262,-1.1262,-1.1262,-1.1262,-1.1262,-1.1262,-1.1262,-1.1262,-1.1262,-2.1231,-2.1921,-2.2475,-2.2791,-2.3515,-2.3723,-2.2922,-2.3013,-2.292,-2.2175,-2.2328,-2.2457,-2.2491,-2.2774,-2.2729,-2.2224,-2.2186,-2.1916,-2.124,-2.0792,-2.0366,-1.9846,-1.9534,-1.8979,-1.8072,-1.7526,-1.6786,-1.5774,-1.4361,-1.3477,-1.3032,-1.2028,-1.1104,-1.0307,-0.9953,-0.9233,-0.8263,-0.7628,-0.8203,-0.9638,-1.0036,-1.1241,-1.304,-1.432,-1.444,-1.3908,-1.3216,-1.3022,-1.3284,-1.4903,-1.4183,-1.2659,-1.3267,-1.237,0.0,0.0,0.0,0.0,0.0,0.0,0.0,0.0,0.0,-1.2619,0.0,0.0,0.0,-1.5775,0.0,-1.5538,-1.4881,0.0,0.0,0.0,0.0,0.0,0.0,-1.3136,0.0,-1.2488,0.0,0.0,0.0,-1.0278,-0.9582,-0.9309,-0.8237,-0.7447,-0.7221,-0.6438,-0.5911,-0.5733,-0.5733,-0.5733,-0.5733,-0.5733,-0.5733,-0.5733,-0.5733,-0.6086,-0.6877,-0.7841,-0.8719,-0.9685,-1.0651,-1.1089,-1.1262,-1.1262,-1.1262,-1.1262,-1.1262,-1.1262,-1.1262,-1.1262,-1.1262,-1.1262,-2.0743,-2.2031,-2.279,-2.2159,-2.2134,-2.2039,-2.1645,-2.1021,-2.0623,-2.0647,-2.0374,-2.0188,-2.0271,-2.2009,-2.2737,-2.1767,-2.38,-2.421,-2.201,-2.1943,-2.0958,-1.8702,-1.8631,-1.796,-1.6508,-1.6151,-1.552,-1.4603,-1.3949,-1.3314,-1.2822,-1.2109,-1.1026,-0.9625,-1.0474,-0.9636,-0.7672,-0.8486,-0.9843,-1.1407,-1.1119,-1.1412,0.0,-1.2481,-1.2718,-1.3022,-1.3806,-1.41,-1.4147,0.0,-1.4275,-1.3881,0.0,-1.2392,-1.3554,-1.1261,0.0,0.0,0.0,0.0,0.0,0.0,-1.2175,0.0,0.0,0.0,-1.3163,-1.3309,0.0,0.0,0.0,0.0,0.0,0.0,0.0,0.0,-1.2232,-1.2575,-1.247,-1.1523,0.0,0.0,0.0,-0.9581,-0.9049,-0.9525,-0.8513,-0.7785,-0.746,-0.7139,-0.6526,-0.5733,-0.5733,-0.5733,-0.5733,-0.5733,-0.5733,-0.5733,-0.5733,-0.5733,-0.5911,-0.6789,-0.7753,-0.8719,-0.968,-1.0559,-1.1262,-1.1262,-1.1262,-1.1262,-1.1262,-1.1262,-1.1262,-1.1262,-1.1262,-1.1262,-2.1259,-2.1908,-2.2277,-2.1768,-2.1815,-2.1684,-2.0986,-2.0922,-2.0841,-2.0448,-2.074,-2.0954,-2.0917,-2.1524,-2.2133,-2.2578,-2.3684,-2.3679,-2.2197,-2.2076,-2.0937,-1.8448,-1.8231,-1.7585,-1.6472,-1.6201,-1.5529,-1.4337,-1.3941,-1.3377,-1.2555,-1.2125,-1.1548,-1.0979,-1.1989,-1.1502,-1.0087,-1.0511,-1.1201,-1.1967,-1.12,-1.1497,0.0,-1.3809,-1.3993,-1.3607,-1.3414,-1.3806,-1.4417,0.0,-1.4269,0.0,0.0,0.0,0.0,-1.2465,0.0,0.0,0.0,0.0,0.0,0.0,0.0,0.0,-1.2748,0.0,-1.3027,0.0,0.0,0.0,0.0,0.0,0.0,0.0,-1.1751,0.0,0.0,0.0,-1.2948,0.0,0.0,0.0,0.0,0.0,0.0,0.0,-0.9712,-0.8885,-0.9113,-0.7841,-0.6877,-0.6523,-0.5997,-0.5733,-0.5733,-0.5733,-0.5733,-0.5733,-0.5733,-0.5733,-0.5733,-0.67,-0.7577,-0.8544,-0.9506,-1.0472,-1.1262,-1.1262,-1.1262,-1.1262,-1.1262,-1.1262,-1.1262,-1.1262,-1.1262,-1.1262,-2.134,-2.155,-2.1569,-2.1104,-2.0941,-2.0655,-2.0035,-2.0515,-2.0732,-2.0335,-2.0788,-2.1092,-2.0992,-2.1655,-2.2547,-2.3707,-2.4847,-2.4759,-2.3148,-2.2718,-2.1476,-1.8987,-1.7958,-1.7258,-1.692,-1.6269,-1.5416,-1.4313,-1.4193,-1.3645,-1.2657,-1.2491,-1.2223,-1.1889,-1.2733,-1.2607,-1.1717,-1.1857,-1.2236,-1.264,-1.1921,-1.226,-1.3358,-1.4546,-1.4675,-1.4202,-1.3414,-1.3806,-1.4727,-1.5179,-1.4262,0.0,-1.4449,0.0,-1.2011,0.0,0.0,0.0,-1.2848,0.0,0.0,0.0,0.0,0.0,0.0,0.0,0.0,0.0,0.0,0.0,0.0,0.0,0.0,0.0,0.0,-1.1521,0.0,-1.1932,0.0,0.0,0.0,0.0,0.0,0.0,0.0,-1.2243,-1.072,-0.9872,-1.0398,-0.889,-0.7665,-0.7139,-0.6438,-0.5997,-0.5733,-0.5733,-0.5733,-0.5733,-0.5733,-0.5733,-0.5733,-0.6438,-0.7228,-0.8193,-0.9069,-1.0033,-1.0911,-1.1176,-1.1262,-1.1262,-1.1262,-1.1262,-1.1262,-1.1262,-1.1262,-1.1262,-2.0505,-2.0778,-2.0691,-1.9974,-1.9003,-1.837,-1.854,-1.903,-1.9514,-1.9959,-1.9584,-1.9358,-1.9451,-2.2723,-2.481,-2.4784,-2.8466,-2.9184,-2.5371,-2.4393,-2.2921,-2.0541,-1.7779,-1.6727,-1.7716,-1.5899,-1.4755,-1.4393,-1.4649,-1.4247,-1.325,-1.3422,-1.2712,-1.1453,-1.204,-1.1973,-1.1366,-1.1978,-1.2889,-1.3853,-1.3769,-1.4051,-1.4346,0.0,-1.3414,-1.4298,-1.4298,0.0,0.0,-1.4522,-1.4282,0.0,0.0,0.0,0.0,0.0,0.0,0.0,0.0,0.0,0.0,-1.2582,0.0,0.0,0.0,0.0,-1.3573,0.0,0.0,0.0,0.0,0.0,0.0,0.0,0.0,0.0,0.0,0.0,0.0,0.0,0.0,0.0,0.0,0.0,0.0,-1.2012,-1.1108,-1.0524,-1.06,-1.0366,-0.924,-0.7139,-0.7051,-0.6612,-0.5733,-0.5733,-0.5733,-0.5733,-0.5733,-0.5733,-0.5733,-0.5733,-0.626,-0.7228,-0.8105,-0.9069,-1.0033,-1.0911,-1.1262,-1.1262,-1.1262,-1.1262,-1.1262,-1.1262,-1.1262,-1.1262,-2.0208,-1.9942,-1.9597,-1.9273,-1.9098,-1.9017,-1.9135,-1.9821,-2.0695,-2.1703,-2.2044,-2.2654,-2.3901,-2.4912,-2.6054,-2.7296,-2.8359,-2.7675,-2.4933,-2.3924,-2.2396,-2.0061,-1.7584,-1.691,-1.833,-1.6533,-1.5395,-1.5047,-1.5375,-1.4971,-1.3874,-1.4057,-1.3651,-1.283,-1.3517,-1.4096,-1.4525,-1.3856,-1.4181,-1.4965,0.0,-1.3471,-1.3749,0.0,0.0,-1.4398,-1.43,-1.4968,0.0,-1.5371,-1.479,-1.4282,-1.4549,-1.3908,-1.3263,-1.4489,-1.4902,0.0,0.0,0.0,-1.6948,-1.4625,0.0,0.0,0.0,0.0,0.0,0.0,0.0,0.0,0.0,0.0,0.0,0.0,0.0,0.0,0.0,0.0,0.0,0.0,0.0,0.0,0.0,0.0,0.0,-1.2825,-1.2053,-1.1845,-1.2427,-1.0885,-0.968,-0.8982,-0.7753,-0.6962,-0.6612,-0.5997,-0.5733,-0.5733,-0.5733,-0.5733,-0.5733,-0.5733,-0.6171,-0.7139,-0.8105,-0.9069,-0.9946,-1.0911,-1.1262,-1.1262,-1.1262,-1.1262,-1.1262,-1.1262,-1.1262,-1.1262,-2.0061,-1.9435,-1.897,-1.9157,-1.9595,-1.9889,-1.9678,-2.0372,-2.1323,-2.26,-2.3075,-2.4013,-2.5987,-2.6432,-2.7212,-2.8646,-2.867,-2.7485,-2.4998,-2.425,-2.303,-2.1111,-1.9142,-1.8817,0.0,0.0,0.0,-1.6108,-1.5748,-1.5003,-1.3947,-1.3929,-1.3705,-1.3288,-1.3299,-1.4279,-1.5878,-1.4299,-1.4689,-1.6074,0.0,-1.3046,0.0,0.0,-1.3455,-1.419,0.0,-1.5255,-1.5832,-1.5832,-1.5331,-1.4836,-1.5591,-1.4783,-1.3865,-1.5326,-1.5891,-1.614,-1.6246,-1.7808,0.0,-1.6328,-1.6534,0.0,-1.4498,0.0,0.0,0.0,0.0,0.0,0.0,0.0,0.0,0.0,0.0,0.0,0.0,-1.1255,0.0,0.0,0.0,-1.088,0.0,-1.1375,-1.1887,-1.2976,-1.2622,-1.2376,0.0,0.0,-1.0804,-0.9946,-0.8719,-0.7753,-0.7139,-0.6789,-0.6349,-0.5733,-0.5997,-0.5997,-0.5733,-0.5733,-0.5997,-0.67,-0.7929,-0.8807,-0.9506,-1.0824,-1.1262,-1.1262,-1.1262,-1.1262,-1.1262,-1.1262,-1.1262,-1.1262,-2.0005,-1.928,-1.8914,-1.9577,-2.034,-2.068,-2.0112,-2.0417,-2.1302,-2.2742,-2.27,-2.3422,-2.5785,-2.7331,-2.8331,-2.88,-2.9503,-2.8642,-2.5627,-2.5171,-2.4612,0.0,-2.2025,-2.2176,-2.4223,0.0,0.0,0.0,-1.5728,-1.4401,-1.3495,-1.311,-1.2914,-1.2888,-1.1575,-1.2664,-1.5422,-1.3481,-1.4321,-1.6861,-1.3932,-1.2746,-1.2752,-1.2889,-1.3121,-1.3743,-1.5232,-1.5832,-1.5832,-1.5832,-1.5832,-1.5832,-1.5832,-1.5832,-1.6015,-1.6951,-1.7971,-1.8683,-1.8087,-1.8763,-1.9192,-1.7645,0.0,0.0,0.0,0.0,-1.5485,0.0,0.0,0.0,0.0,0.0,0.0,0.0,0.0,0.0,0.0,0.0,-1.1737,0.0,0.0,-1.0669,-1.1985,-1.0897,-1.0849,-1.2606,-1.2687,-1.2362,0.0,0.0,-1.2287,-1.0028,-0.9946,-0.9069,-0.7228,-0.8017,-0.7492,-0.5822,-0.6612,-0.6523,-0.5733,-0.5733,-0.5733,-0.5822,-0.7669,-0.8456,-0.8632,-1.0472,-1.1262,-1.1262,-1.1262,-1.1262,-1.1262,-1.1262,-1.1262,-1.1262,-1.9604,-1.966,-1.9794,-1.9535,-2.0126,-2.0583,-2.0348,-2.0256,-2.1311,-2.4486,-2.4442,-2.5559,-2.9235,-2.9991,-3.0077,-2.9757,-2.9476,-2.8209,0.0,0.0,0.0,-2.4276,-2.2351,-2.2237,-2.4234,-2.0389,-1.8112,-1.7544,0.0,-1.4179,-1.3185,-1.3195,-1.2985,-1.2487,-1.1279,-1.2292,-1.4798,-1.2592,-1.2615,-1.4123,-1.3181,-1.251,-1.2125,0.0,-1.3821,-1.3743,-1.5232,-1.5832,-1.5832,-1.5832,-1.5832,-1.5832,-1.5832,-1.5832,-1.6015,-1.6951,-1.7971,-1.8891,-1.9512,-2.0394,-2.0808,-1.9247,-1.8917,-1.8639,0.0,0.0,0.0,0.0,0.0,0.0,0.0,0.0,0.0,0.0,-1.3203,0.0,0.0,0.0,0.0,-1.1431,0.0,0.0,-1.0971,-1.1254,-1.2043,-1.3502,-1.2826,-1.2826,0.0,0.0,0.0,-1.1235,-1.0386,-0.968,-0.9157,-0.8017,-0.7228,-0.67,-0.626,-0.5908,-0.5733,-0.5733,-0.5733,-0.5733,-0.6962,-0.7841,-0.8632,-0.9772,-1.0646,-1.1262,-1.1262,-1.1262,-1.1262,-1.1262,-1.1262,-1.1262,-1.9168,-1.9459,-1.9674,-1.9297,-2.0856,-2.2126,-2.1818,-2.0598,-2.1146,-2.5116,-2.5114,-2.6029,-2.9248,-3.0455,-3.0748,-3.0037,-2.9484,0.0,-2.5958,0.0,0.0,-2.4883,-2.4217,-2.4204,-2.4946,-2.1945,0.0,-1.7541,0.0,-1.397,-1.2349,-1.2343,-1.2254,-1.2095,-1.0869,-1.1721,-1.4046,-1.3909,-1.3404,-1.2802,-1.3663,-1.3473,0.0,-1.3899,-1.4379,-1.4604,-1.5464,-1.5832,-1.5832,-1.5832,-1.5832,-1.5832,-1.5832,-1.5832,-1.6015,-1.6951,-1.7971,-1.9063,-2.0068,-2.0997,-2.1511,-2.0679,-2.0449,-2.0107,-1.8779,-1.854,-1.8322,0.0,0.0,0.0,0.0,0.0,0.0,-1.3853,0.0,0.0,0.0,0.0,0.0,0.0,-1.1505,0.0,-1.0878,-1.0941,-1.1499,-1.2782,-1.2349,-1.2282,0.0,0.0,0.0,-1.1422,-1.0468,-0.9912,-0.9941,-0.8822,-0.7893,-0.7139,-0.6966,-0.6526,-0.5733,-0.5733,-0.5733,-0.5733,-0.67,-0.7404,-0.8017,-0.9331,-1.0207,-1.0738,-1.1176,-1.1262,-1.1262,-1.1262,-1.1262,-1.1262,-1.9116,-1.9222,-1.9337,-1.9181,-2.1947,-2.4164,0.0,-2.1882,0.0,-2.5514,0.0,-2.5991,-2.8029,-2.9852,-3.0672,-2.996,-2.9394,-2.8325,-2.6564,-2.6948,-2.6714,-2.5681,-2.6678,-2.6798,-2.5997,-2.4039,-2.1269,0.0,0.0,-1.3788,-1.1416,-1.1249,-1.1396,-1.1659,-1.0509,-1.1156,-1.3375,-1.5577,-1.4942,-1.2769,-1.4787,-1.4985,-1.4108,-1.4255,-1.495,-1.5832,-1.5832,-1.5832,-1.5832,-1.5832,-1.5832,-1.5832,-1.5832,-1.5832,-1.6015,-1.7138,-1.8149,-1.9063,-2.0158,-2.1087,-2.1741,-2.1741,-2.1741,-2.1365,-2.0198,-1.9944,-1.9621,-1.8345,-1.8114,-1.7839,0.0,0.0,0.0,0.0,0.0,0.0,0.0,0.0,0.0,0.0,0.0,0.0,0.0,0.0,0.0,-1.1522,-1.159,0.0,0.0,0.0,0.0,-1.1362,-1.0478,0.0,-0.9947,0.0,-0.9006,-0.7111,-0.7975,-0.7404,-0.5733,-0.5733,-0.5733,-0.5733,-0.6526,-0.6962,-0.7228,-0.8894,-0.9685,-1.0033,-1.0911,-1.1262,-1.1262,-1.1262,-1.1176,-1.0997,-2.0589,-2.0248,-2.0106,-1.9889,-2.2052,-2.4425,-2.6232,-2.5653,-2.578,-2.7991,-2.7716,-2.8094,-3.0186,-3.0803,-3.0508,-2.9328,-2.916,0.0,0.0,0.0,0.0,-2.6921,-2.7082,-2.7138,-2.6974,-2.4039,-2.1471,0.0,0.0,0.0,-1.1576,-1.1614,-1.1558,-1.1319,-1.0319,-1.0933,-1.2744,-1.3379,0.0,-1.4294,-1.518,-1.4985,-1.4195,-1.5157,-1.5651,-1.5832,-1.5832,-1.5832,-1.5832,-1.5832,-1.5832,-1.5832,-1.5832,-1.5832,-1.6197,-1.7956,-1.8696,-1.9163,-2.0997,-2.1553,-2.1741,-2.1741,-2.1741,-2.1658,-2.1374,-2.131,-2.1314,-2.1295,-2.0697,-2.0029,-1.936,0.0,0.0,0.0,0.0,0.0,0.0,0.0,0.0,0.0,0.0,-1.3408,0.0,0.0,0.0,0.0,0.0,0.0,0.0,0.0,0.0,0.0,-1.1511,0.0,0.0,0.0,-0.9036,-0.7273,-0.7328,-0.6789,-0.5733,-0.5733,-0.5733,-0.5733,-0.5908,-0.6349,-0.7139,-0.7489,-0.8544,-1.0033,-1.0911,-1.1262,-1.1262,-1.1262,-1.0824,-1.012,-2.1055,-2.0401,-2.0463,-2.2382,-2.4219,0.0,0.0,-2.9418,-2.9468,-2.9186,-2.8428,-2.828,-2.9248,-3.0054,-3.0114,-2.916,-2.8779,-2.8247,-2.7231,-2.7231,-2.7231,-2.7231,-2.6704,-2.6434,-2.6434,-2.4019,-2.1474,-1.8844,0.0,0.0,0.0,0.0,-1.2191,-1.2149,-1.2066,-1.2244,-1.2747,0.0,0.0,-1.5894,-1.6884,-1.6654,-1.5763,-1.5798,-1.5832,-1.5832,-1.5832,-1.5832,-1.5832,-1.5832,-1.5832,-1.5832,-1.5832,-1.6204,-1.6857,-1.8326,-1.9155,-1.9886,-2.1275,-2.1741,-2.1741,-2.1741,-2.1741,-2.1741,-2.1741,-2.1741,-2.1909,-2.2511,-2.1664,-2.0448,-1.9352,-1.7249,0.0,0.0,0.0,0.0,0.0,0.0,-1.7103,0.0,0.0,0.0,0.0,0.0,0.0,0.0,0.0,0.0,0.0,0.0,0.0,0.0,0.0,0.0,0.0,0.0,0.0,-0.8608,-0.8119,-0.7316,-0.6438,-0.5908,-0.5733,-0.5733,-0.5733,-0.6,-0.6438,-0.7404,-0.8894,-1.0646,-1.1089,-1.1262,-1.1262,-1.0738,-0.9946,-0.9157,-2.1833,-2.0809,-2.1043,-2.4885,-2.6489,-2.8092,-3.0718,-3.1974,-3.2058,-3.0379,-2.9305,-2.8595,-2.8499,-2.94,-2.9716,-2.916,-2.8554,-2.7938,-2.7219,-2.7231,-2.7231,-2.7231,-2.6357,-2.5972,-2.5972,-2.4273,-2.1987,0.0,0.0,0.0,0.0,0.0,0.0,0.0,0.0,0.0,0.0,0.0,-1.8194,-1.7752,-1.8702,-1.8427,-1.7232,-1.6393,-1.6021,-1.5832,-1.5832,-1.5832,-1.5832,-1.5832,-1.5832,-1.5832,-1.5832,-1.648,-1.7512,-1.8519,-1.9521,-2.0529,-2.1463,-2.1741,-2.1741,-2.1741,-2.1741,-2.1741,-2.1741,-2.1741,-2.1989,-2.3008,-2.2242,-2.0876,-1.915,-1.776,0.0,0.0,0.0,0.0,0.0,0.0,0.0,0.0,0.0,0.0,-1.4877,0.0,0.0,0.0,0.0,0.0,0.0,0.0,0.0,0.0,0.0,-1.0881,-1.0898,0.0,-1.0013,0.0,-0.8905,-0.8017,-0.7051,-0.6086,-0.5733,-0.5733,-0.5733,-0.5822,-0.6086,-0.7841,-0.9506,-1.1003,-1.1176,-1.1262,-1.1176,-1.0212,-0.9331,-0.8456,-2.4104,-2.2669,-2.2336,0.0,0.0,-2.8328,-3.0419,-3.1681,-3.2418,-3.2398,-3.1457,-3.0738,-3.0738,-3.0253,-2.9716,-2.916,-2.8554,-2.7938,-2.7219,-2.7231,-2.7231,-2.7231,-2.6679,-2.6367,-2.6367,-2.4946,-2.3466,0.0,0.0,0.0,0.0,0.0,0.0,0.0,0.0,0.0,0.0,-1.8373,-1.9054,-1.9962,-2.0099,-1.8972,-1.7326,-1.7232,-1.6574,-1.5832,-1.5832,-1.5832,-1.5832,-1.5832,-1.5832,-1.5832,-1.5832,-1.648,-1.7512,-1.8519,-1.9521,-2.0529,-2.1463,-2.1741,-2.1741,-2.1741,-2.1741,-2.1741,-2.1741,-2.1741,-2.2078,-2.3454,-2.3597,-2.2682,-1.9891,-1.9304,-1.8764,0.0,0.0,0.0,0.0,0.0,-2.0885,-1.9454,0.0,0.0,0.0,-1.4307,0.0,0.0,-1.2225,0.0,0.0,0.0,0.0,-1.2698,0.0,-1.0341,-0.9694,-1.0706,0.0,-0.8826,-0.8569,-0.8017,-0.7051,-0.6086,-0.5733,-0.5733,-0.5733,-0.6174,-0.7051,-0.8105,-0.9069,-1.012,-1.0997,-1.1262,-1.1176,-1.0212,-0.9331,-0.8368,0.0,0.0,0.0,0.0,0.0,0.0,0.0,-3.2506,-3.2362,-3.215,-3.1483,-3.0986,-3.0986,-3.0114,-2.9328,-2.916,-2.8155,-2.7464,-2.7231,-2.7231,-2.7369,-2.7667,-2.6901,-2.6606,-2.6878,-2.5289,-2.376,0.0,0.0,0.0,0.0,0.0,0.0,0.0,0.0,-1.8321,-1.9038,-2.0012,-2.0692,-2.1087,-2.0529,-1.9795,-1.9063,-1.8427,-1.7963,-1.7591,-1.7591,-1.7591,-1.7591,-1.7591,-1.7225,-1.6669,-1.6669,-1.7777,-1.9155,-1.9613,-2.0348,-2.1177,-2.1642,-2.1741,-2.1741,-2.1741,-2.1741,-2.1741,-2.1741,-2.1741,-2.2167,-2.3887,-2.4187,-2.3595,-2.166,-2.0275,-1.9523,0.0,0.0,0.0,0.0,0.0,0.0,-1.9617,0.0,-1.7145,0.0,0.0,0.0,0.0,0.0,0.0,0.0,0.0,0.0,-1.1699,0.0,-1.1642,-1.0272,-1.0919,-1.099,-1.0285,-0.9614,-0.8807,-0.7929,-0.6966,-0.6302,-0.5836,-0.5836,-0.6778,-0.8318,-0.8683,-0.9772,-1.122,-1.1584,-1.141,-1.0685,-0.9772,-0.877,-0.7766,-2.9092,0.0,-2.8629,0.0,-3.1488,-3.132,-3.3458,-3.2995,-3.2235,-3.204,-3.1415,-3.0986,-3.0986,-2.9871,-2.9081,-2.9081,-2.7926,-2.7231,-2.7231,-2.7369,-2.761,-2.7966,-2.7375,0.0,-2.739,-2.5992,-2.4591,-2.3329,-2.0855,0.0,0.0,0.0,0.0,0.0,-2.0072,-2.0393,-2.0255,-2.13,-2.1741,-2.1642,-2.0997,-2.0529,-2.0249,-1.9521,-1.9063,-1.8788,-1.8788,-1.8788,-1.8788,-1.8788,-1.8519,-1.8149,-1.7878,-1.888,-2.0339,-2.0339,-2.0997,-2.1741,-2.1741,-2.1741,-2.1741,-2.1741,-2.1741,-2.1741,-2.1741,-2.1741,-2.2138,-2.3649,-2.4103,-2.3896,-2.2731,-2.1209,-2.0331,-2.1021,0.0,0.0,0.0,-2.1466,0.0,-1.9617,-1.8066,-1.7259,-1.775,-1.492,0.0,0.0,0.0,0.0,0.0,0.0,0.0,0.0,0.0,0.0,0.0,-1.1194,-1.1262,-1.1262,-1.0386,-0.9593,-0.8894,-0.7929,-0.7015,-0.6303,-0.6572,-0.7531,-0.8926,-0.9347,-1.0471,-1.1951,-1.2113,-1.14,-1.0371,-0.9389,-0.8347,-0.732,-3.0338,-2.9366,-2.924,-3.297,-3.2136,-3.1585,-3.3307,-3.2755,-3.2139,-3.2355,-3.1553,-3.0986,-3.0986,-2.9871,-2.9081,-2.9081,-2.7926,-2.7231,-2.7231,-2.7702,-2.7977,0.0,0.0,-2.7981,-2.7981,-2.741,-2.6703,-2.5654,0.0,0.0,-2.1016,0.0,-1.954,-2.1053,-2.0686,-2.1181,-2.2263,-2.1896,-2.1741,-2.1741,-2.1651,-2.1087,-2.0339,-2.0257,-1.9704,-1.8788,-1.8788,-1.8788,-1.8788,-1.8788,-1.943,-2.0068,-1.9063,-1.9521,-2.0339,-2.0339,-2.0997,-2.1741,-2.1741,-2.1741,-2.1741,-2.1741,-2.1741,-2.1741,-2.1741,-2.1741,-2.1887,-2.2436,-2.3227,-2.3557,-2.2652,-2.2097,-2.126,-1.9655,0.0,0.0,0.0,0.0,0.0,-1.9617,-1.8066,-1.7718,-1.9251,-1.6375,0.0,0.0,0.0,0.0,0.0,0.0,0.0,-1.3765,-1.2365,0.0,-1.1761,-1.1436,-1.1262,-1.1262,-1.0386,-0.9859,-0.9859,-0.8894,-0.7929,-0.7143,-0.8109,-0.846,-0.8564,-0.9812,-1.0885,-1.1725,-1.1957,-1.14,-1.0357,-0.9328,-0.8261,-0.7154,-3.3056,-3.2639,-3.2429,-3.3573,-3.3127,-3.2626,-3.2911,-3.2468,-3.205,-3.1883,-3.1391,-3.0986,-3.0986,-2.9871,-2.9081,0.0,-2.7926,-2.738,0.0,-2.7897,-2.8299,-2.8987,-2.9044,-2.8813,-2.8484,-2.7683,-2.6723,-2.5693,0.0,0.0,0.0,-2.0834,-2.1396,-2.2767,-2.2639,-2.2483,-2.2318,-2.219,-2.1979,-2.1741,-2.1741,-2.1553,-2.1266,-2.1266,-2.1087,-2.0817,-2.0817,-2.0817,-2.0817,-2.0817,-2.0997,-2.1186,-2.0907,-2.0997,-2.1266,-2.1266,-2.1463,-2.1741,-2.1741,-2.1741,-2.1741,-2.1741,-2.1741,-2.1741,-2.1741,-2.2157,-2.2726,-2.2872,-2.3416,-2.3627,-2.3049,-2.2594,-2.1983,-2.1156,-2.1499,0.0,0.0,0.0,-1.9653,-1.8044,-1.6459,-1.6096,0.0,-1.5704,0.0,0.0,0.0,0.0,0.0,0.0,0.0,0.0,-1.2735,0.0,-1.1842,-1.1436,-1.1262,-1.1262,-1.0997,-1.0559,-0.9859,-0.8894,-0.8428,-0.8177,-0.8535,-0.9058,-0.9917,-1.0255,-1.1019,-1.1941,-1.2113,-1.1027,-0.9537,-0.9196,-0.7973,-0.6392,-3.3935,-3.3984,-3.3896,-3.3896,-3.3536,-3.3241,-3.2931,-3.2561,-3.22,-3.185,-3.1482,-3.1048,-3.0672,-2.9716,0.0,-2.9081,-2.7926,-2.7438,-2.7954,-2.8149,-2.862,-2.9458,-2.9676,-2.9636,-2.9279,0.0,0.0,-2.6254,-2.3777,-2.2546,-2.2546,-2.2546,-2.2948,-2.3767,-2.3611,-2.3263,-2.2767,-2.2456,-2.2181,-2.1942,-2.1796,-2.1741,-2.1741,-2.1741,-2.1741,-2.1741,-2.1741,-2.1741,-2.1741,-2.1741,-2.1741,-2.1741,-2.1741,-2.1741,-2.1741,-2.1741,-2.1741,-2.1741,-2.1741,-2.1741,-2.1741,-2.1741,-2.1741,-2.1741,-2.1741,-2.2255,-2.2775,-2.3047,-2.3298,-2.341,-2.3494,-2.307,-2.2604,-2.2139,-2.2066,-2.1832,-2.1032,0.0,-1.8892,0.0,0.0,0.0,0.0,-1.6425,0.0,0.0,0.0,0.0,0.0,0.0,0.0,-1.3359,-1.338,0.0,-1.2414,-1.1712,-1.1262,-1.1262,-1.1262,-1.1003,-1.0386,-0.9859,-0.9393,-0.9148,-0.9504,-0.9938,-1.0338,-1.0783,-1.1369,-1.1925,-1.1639,-1.0556,-0.9068,-0.8633,-0.7406,-0.601,-3.3325,-3.3681,0.0,0.0,-3.3536,0.0,-3.3326,-3.2931,-3.2475,-3.2128,-3.169,-3.1097,-3.0114,-2.9406,-2.9015,-2.9015,0.0,0.0,0.0,-2.8448,-2.8953,-2.9527,-2.9975,-3.0216,-3.0216,-2.9187,-2.8154,-2.7094,-2.5099,-2.4152,-2.4152,-2.4152,-2.4152,-2.4134,-2.3749,-2.3574,-2.3492,-2.2703,-2.2355,-2.2291,-2.1896,-2.1741,-2.1741,-2.1741,-2.1741,-2.1741,-2.1741,-2.1741,-2.1741,-2.1741,-2.1741,-2.1741,-2.1741,-2.1741,-2.1741,-2.1741,-2.1741,-2.1741,-2.1741,-2.1741,-2.1741,-2.1741,-2.1741,-2.1741,-2.1741,-2.1919,-2.2274,-2.2882,-2.2908,-2.3048,-2.371,-2.3525,-2.308,-2.2625,-2.2439,-2.1751,-1.9853,0.0,0.0,0.0,0.0,0.0,0.0,-1.8241,-1.7756,0.0,0.0,0.0,0.0,0.0,-1.4163,-1.5387,-1.4122,-1.3455,-1.3455,-1.2066,-1.1283,-1.1262,-1.1262,-1.1262,-1.1262,-1.1262,-1.0824,-1.0033,-1.0911,-1.0824,-1.0047,-1.1227,-1.1677,-1.1604,-1.0803,-0.9956,-0.8926,-0.7851,-0.6797,-0.5877,0.0,0.0,-3.3229,-3.3589,-3.3466,-3.3326,-3.3326,-3.2417,-3.1882,-3.2055,-3.0859,-2.996,-2.996,-2.9028,-2.8407,-2.8407,-2.7696,-2.7598,-2.8471,-2.8632,-2.9102,-3.0009,-3.0158,-3.0216,-3.0216,-2.9187,-2.7872,-2.6071,-2.4824,-2.4152,-2.4152,-2.4152,-2.4152,-2.4251,-2.4051,-2.384,-2.351,-2.3015,-2.2621,-2.2291,-2.1896,-2.1741,-2.1741,-2.1741,-2.1741,-2.1741,-2.1741,-2.1741,-2.1741,-2.1741,-2.1741,-2.1741,-2.1741,-2.1741,-2.1741,-2.1741,-2.1741,-2.1741,-2.1741,-2.1741,-2.1741,-2.1741,-2.1741,-2.1741,-2.1741,-2.1651,-2.175,-2.2274,-2.2541,-2.2804,-2.2993,-2.3441,-2.3567,-2.3101,-2.2067,-2.1214,-2.0732,-1.9619,0.0,0.0,-1.8278,-1.8708,-1.9844,-1.9059,-1.842,0.0,0.0,0.0,0.0,-1.5127,-1.5219,-1.576,-1.4623,-1.4021,-1.4021,-1.2409,-1.1526,-1.1262,-1.1262,-1.1262,-1.1262,-1.1262,-1.1176,-1.0997,-1.1176,-1.1176,-1.1003,-1.1234,-1.1435,-1.1348,-1.0426,-0.9469,-0.8488,-0.756,-0.6573,-0.5771,-3.2558,-3.2858,-3.3043,-3.3492,-3.3157,-3.286,-3.3241,-3.2114,-3.1355,-3.1663,-3.0532,-2.9549,-2.9184,-2.8566,-2.8099,-2.7777,-2.7383,-2.7644,-2.8632,-2.87,-2.916,-3.017,-3.0216,-3.0216,-3.0216,-2.9187,-2.7683,-2.5693,-2.4726,-2.4152,-2.4152,-2.4152,-2.4152,-2.4152,-2.4152,-2.4033,-2.3794,-2.34,-2.2893,-2.2575,-2.2171,-2.1896,-2.1741,-2.1741,-2.1741,-2.1741,-2.1741,-2.1741,-2.1741,-2.1741,-2.1741,-2.1741,-2.1741,-2.1741,-2.182,-2.2246,-2.2078,-2.1741,-2.1741,-2.1741,-2.1741,-2.1741,-2.1989,-2.2246,-2.182,-2.1741,-2.1919,-2.2441,-2.2882,-2.325,-2.3529,-2.3914,-2.4033,-2.3577,-2.2248,-2.1232,-2.102,-1.9641,0.0,-1.9641,-1.9662,-1.9918,-2.0569,-1.9781,-1.89,-1.7957,0.0,0.0,-1.589,-1.6035,-1.6139,-1.6111,-1.5212,-1.4578,-1.4218,-1.2529,-1.1634,-1.151,-1.1402,-1.1262,-1.1262,-1.1262,-1.1262,-1.1262,-1.1262,-1.1262,-1.1262,-1.1262,-1.1262,-1.1176,-0.9772,-0.8982,-0.8368,-0.6966,-0.6174,-0.5733,-3.2004,-3.2462,-3.2944,-3.3478,-3.2761,-3.2318,-3.3016,-3.1723,-3.082,-3.1031,-3.0291,-2.9316,-2.8339,-2.8099,-2.7857,-2.7231,-2.7231,-2.7644,-2.8632,-2.87,-2.916,-3.017,-3.0216,-3.0216,-3.0216,-2.9095,-2.7683,-2.5974,-2.4726,-2.4152,-2.4152,-2.4152,-2.4152,-2.4152,-2.4152,-2.4152,-2.4125,-2.3712,-2.3249,-2.2911,-2.252,-2.2126,-2.1814,-2.1759,-2.1741,-2.1741,-2.1741,-2.1741,-2.1741,-2.1741,-2.1741,-2.1741,-2.1741,-2.1741,-2.182,-2.2668,-2.2334,-2.1731,-2.2087,-2.2078,-2.2078,-2.1989,-2.2589,-2.3105,-2.2167,-2.1998,-2.2353,-2.2872,-2.3135,-2.3493,-2.41,-2.4368,-2.4322,-2.3763,-2.2387,-2.1314,-2.0839,0.0,-1.9488,-2.0917,-2.1322,-2.1415,-2.1377,-2.0565,-1.9445,-1.8081,-1.7039,-1.6513,0.0,-1.6777,-1.6799,-1.6521,-1.5887,-1.505,-1.4101,-1.262,-1.1768,-1.1698,-1.1499,-1.13,-1.1262,-1.1262,-1.1262,-1.1262,-1.1262,-1.1262,-1.1262,-1.1262,-1.1262,-1.1089,-0.9244,-0.8544,-0.8281,-0.6349,-0.5733,-0.5733,-3.1454,-3.1838,-3.2364,-3.3185,-3.269,-3.2146,-3.2232,-3.0895,-3.0012,-3.0393,-2.9184,-2.8271,-2.8431,-2.7788,-2.7301,-2.7231,-2.7231,-2.7644,-2.8632,-2.87,-2.916,-3.017,-3.0216,-3.0216,-3.0216,-2.8423,-2.7284,-2.701,-2.5109,-2.4152,-2.4152,-2.4152,-2.4152,-2.4152,-2.4152,-2.4152,-2.4125,-2.3712,-2.3501,-2.3382,-2.263,-2.2291,-2.2199,-2.1869,-2.1741,-2.1741,-2.1741,-2.1741,-2.1741,-2.1741,-2.1741,-2.1741,-2.1741,-2.1741,-2.1731,-2.1909,-2.182,-2.2087,-2.3637,-2.4069,-2.3887,-2.3105,-2.3627,-2.4059,-2.3105,-2.258,-2.2403,-2.2492,-2.258,-2.258,-2.2755,-2.3734,-2.4012,-2.272,-2.1311,-2.0368,-2.0149,0.0,-2.0487,-2.1966,-2.3196,-2.3665,-2.2823,-2.1572,-2.0321,-1.9274,-1.7903,-1.7179,-1.7179,-1.723,-1.723,-1.7179,-1.6427,-1.5278,-1.3752,-1.2785,-1.2102,-1.1698,-1.1661,-1.1542,-1.1262,-1.1262,-1.1262,-1.1262,-1.1262,-1.1262,-1.1262,-1.1262,-1.1262,-1.1089,-0.9244,-0.8544,-0.8281,-0.6349,-0.5733,-0.5733,-3.1568,-3.1832,-3.2103,-3.2695,-3.239,-3.1928,-3.1489,-3.0443,-2.9704,-2.9845,-2.8712,-2.7881,-2.7938,-2.7545,-2.7231,-2.7231,-2.7231,-2.7644,-2.8632,-2.87,-2.916,-3.017,-3.0216,-3.0216,-3.0216,-2.8806,-2.7757,-2.7189,-2.5781,-2.4735,-2.4152,-2.4152,-2.4152,-2.4152,-2.4152,-2.4152,-2.4143,-2.395,-2.3739,-2.3492,-2.2896,-2.2529,-2.2282,-2.1887,-2.1741,-2.1741,-2.1741,-2.1741,-2.1741,-2.1741,-2.1741,-2.1741,-2.1741,-2.1741,-2.182,-2.2334,-2.2413,-2.2501,-2.2853,-2.4049,-2.4734,-2.2843,-2.3454,-2.4231,-2.327,-2.2931,-2.294,-2.3454,-2.3541,-2.356,-2.356,-2.409,-2.4033,-2.2436,-2.1763,0.0,0.0,-2.1328,-2.1953,-2.3381,-2.377,-2.358,-2.2413,-2.1141,-1.9877,-1.8804,-1.7885,-1.7326,-1.7326,-1.7326,-1.7326,-1.7326,-1.619,-1.4994,-1.3737,-1.2853,-1.2237,-1.1887,-1.1758,-1.158,-1.1262,-1.1262,-1.1262,-1.1262,-1.1262,-1.1262,-1.1262,-1.1262,-1.1262,-1.1089,-0.9244,-0.8544,-0.8281,-0.6349,-0.5733,-0.5733,-3.1411,-3.1852,-3.2111,-3.2113,-3.1928,-3.1563,-3.0745,-2.9922,-2.9316,-2.9147,-2.8407,-2.78,-2.7522,-2.7301,-2.7231,-2.7231,-2.7231,-2.7644,-2.8632,-2.87,-2.916,-3.017,-3.0216,-3.0216,-3.0216,-2.8991,-2.7955,-2.7189,-2.5964,-2.4922,-2.4152,-2.4152,-2.4152,-2.4152,-2.4152,-2.4152,-2.4152,-2.4152,-2.3969,-2.3648,-2.3253,-2.2841,-2.2428,-2.2025,-2.1814,-2.1741,-2.1741,-2.1741,-2.1741,-2.1741,-2.1741,-2.1741,-2.1741,-2.1741,-2.19,-2.2843,-2.3434,-2.3607,-2.2843,-2.4039,-2.4978,-2.2853,-2.3464,-2.4317,-2.3444,-2.3193,-2.3387,-2.4069,-2.4251,-2.4196,-2.4003,-2.4272,-2.4033,-2.2436,0.0,0.0,0.0,-2.2187,-2.2705,-2.4067,-2.3667,-2.2775,-2.1516,-2.0529,-1.9438,-1.8172,-1.7613,-1.7326,-1.7326,-1.7326,-1.7138,-1.6756,-1.5717,-1.4669,-1.3908,-1.2908,-1.2291,-1.2135,-1.1811,-1.158,-1.1262,-1.1262,-1.1262,-1.1262,-1.1262,-1.1262,-1.1262,-1.1262,-1.1262,-1.1089,-0.9244,-0.8544,-0.8281,-0.6349,-0.5733,-0.5733,-3.0342,-3.1601,-3.244,-3.1469,-3.1132,-3.0745,-2.9922,-2.9106,-2.8498,-2.8327,-2.803,-2.78,-2.7522,-2.7301,-2.7231,-2.7231,-2.7231,-2.7644,-2.8632,-2.87,-2.916,-3.017,-3.0216,-3.0216,-3.0216,-2.8319,-2.7284,-2.7189,-2.5294,-2.4251,-2.4152,-2.4152,-2.4152,-2.4152,-2.4152,-2.4152,-2.4152,-2.4152,-2.4134,-2.407,-2.3666,-2.3167,-2.2765,-2.2437,-2.2052,-2.1741,-2.1741,-2.1741,-2.1741,-2.1741,-2.1741,-2.1741,-2.1741,-2.1741,-2.19,-2.2843,-2.4286,-2.5568,-2.5484,-2.5073,-2.4573,-2.4317,-2.4413,-2.4413,-2.3877,-2.3531,-2.3347,-2.327,-2.3387,-2.3396,-2.2668,-2.3647,-2.4033,-2.2436,0.0,0.0,-2.2208,-2.1711,-2.1898,-2.3371,-2.295,-2.2041,-2.0808,-2.0167,-1.9438,-1.8172,-1.7613,-1.7326,-1.7326,-1.7326,-1.6662,-1.5337,-1.5146,-1.4669,-1.3908,-1.2908,-1.2291,-1.2135,-1.1811,-1.158,-1.1262,-1.1262,-1.1262,-1.1262,-1.1262,-1.1262,-1.1262,-1.1262,-1.1262,-1.1089,-0.9244,-0.8544,-0.8281,-0.6349,-0.5733,-0.5733,-3.2503,-3.1709,-3.0989,-3.1664,-3.1307,-3.0443,-2.9184,-2.9106,-2.9028,-2.8419,-2.8111,-2.7881,-2.7788,-2.7383,-2.7231,-2.7231,-2.7231,-2.7644,-2.8632,-2.87,-2.916,-3.017,-3.0216,-2.9932,-2.9279,-2.9084,-2.8132,-2.6254,-2.6147,-2.5392,-2.4152,-2.4152,-2.4152,-2.4152,-2.4152,-2.4152,-2.4152,-2.4152,-2.4152,-2.4115,-2.3712,-2.3308,-2.2811,-2.2483,-2.208,-2.1741,-2.1741,-2.1741,-2.1741,-2.1741,-2.2078,-2.2589,-2.2589,-2.294,-2.3551,-2.3887,-2.4488,-2.5073,-2.5652,-2.6008,-2.5779,-2.4049,-2.4059,-2.4498,-2.4669,-2.3897,-2.329,-2.3617,-2.356,-2.3406,-2.3135,-2.3493,-2.352,-2.2349,0.0,-2.3353,-2.2366,-2.286,-2.3327,-2.3511,-2.2862,-2.205,-2.1168,-1.9994,-1.9004,-1.855,-1.78,-1.7326,-1.7326,-1.7326,-1.6662,-1.5146,-1.5051,-1.4478,-1.3238,-1.2421,-1.1812,-1.1676,-1.1081,-1.0681,-1.0477,-1.0477,-1.0477,-1.0477,-1.0477,-1.0646,-1.0901,-1.0901,-1.1084,-1.1089,-0.9244,-0.8544,-0.8281,-0.6349,-0.5733,-0.5733,-3.2456,-3.0953,-2.9641,-3.0868,-3.0842,-3.019,-2.8736,-2.8961,-2.9106,-2.8431,-2.8042,-2.78,-2.7731,-2.7394,-2.7231,-2.7231,-2.7231,-2.7644,-2.8632,-2.8999,-2.9481,-3.0181,-3.0216,-2.9749,-2.8724,-2.9095,-2.8049,-2.5693,-2.6061,-2.5577,-2.4152,-2.4152,-2.4152,-2.4152,-2.4152,-2.4152,-2.4152,-2.4152,-2.4152,-2.4134,-2.3849,-2.3419,-2.2829,-2.263,-2.2199,-2.1741,-2.1741,-2.1741,-2.1741,-2.1741,-2.2157,-2.2668,-2.2668,-2.3541,-2.4498,-2.4498,-2.4925,-2.5348,-2.5231,-2.6102,-2.6445,-2.4467,-2.4135,-2.4317,-2.4584,-2.382,-2.3047,-2.3183,-2.3202,-2.3047,-2.2872,-2.3047,-2.3011,-2.2633,-2.3473,-2.3852,-2.3012,-2.3494,-2.3657,-2.3222,-2.2325,-2.1516,-2.0898,-1.9637,-1.8735,-1.855,-1.78,-1.7326,-1.7326,-1.7326,-1.6662,-1.5146,-1.5051,-1.4345,-1.2657,-1.1931,-1.1553,-1.14,-1.0561,-1.0171,-1.0038,-1.0038,-1.0038,-1.0038,-1.0125,-1.0381,-1.0636,-1.0727,-1.0992,-1.1089,-0.9244,-0.8544,-0.8281,-0.6349,-0.5733,-0.5733,-2.9366,-2.9106,-2.8562,-2.8839,-2.9584,-2.9764,-2.8681,-2.851,-2.8351,-2.7962,-2.7893,-2.7719,-2.7231,-2.7231,-2.7231,-2.7231,-2.7231,-2.7644,-2.8632,-2.9642,-3.0216,-3.0216,-3.0216,-2.9749,-2.8724,-2.7767,-2.6723,-2.5693,-2.4735,-2.4251,-2.4152,-2.4152,-2.4152,-2.4152,-2.4152,-2.4152,-2.4152,-2.4152,-2.4152,-2.4152,-2.4152,-2.3675,-2.2866,-2.2857,-2.2354,-2.1741,-2.1741,-2.1741,-2.1741,-2.1741,-2.1741,-2.1731,-2.1731,-2.3028,-2.4498,-2.4498,-2.5779,-2.6715,-2.4402,-2.5158,-2.6351,-2.5913,-2.4808,-2.3704,-2.3434,-2.3115,-2.253,-2.1624,-2.1961,-2.2227,-2.1535,-2.1961,-2.2668,-2.3406,-2.3503,-2.3754,-2.4368,-2.329,-2.2394,-2.2394,-2.1168,-2.0102,-1.9646,-1.9096,-1.8643,-1.8179,-1.7613,-1.7326,-1.7326,-1.7326,-1.6662,-1.5146,-1.5146,-1.4254,-1.2414,-1.1708,-1.1405,-1.1395,-1.0416,-1.0038,-0.9951,-0.9951,-0.9951,-1.0038,-1.0376,-1.0549,-1.0636,-1.1084,-1.1262,-1.1089,-0.9244,-0.8456,-0.8281,-0.6349,-0.5733,-0.5733,-2.9751,-2.9126,-2.8545,-2.8609,-2.884,-2.8852,-2.851,-2.851,-2.8431,-2.8363,-2.8042,-2.7893,-2.7731,-2.7394,-2.7231,-2.7231,-2.7231,-2.7644,-2.8632,-2.9332,-2.986,-3.0204,-3.0216,-2.9371,-2.7662,-2.8049,-2.7105,-2.4637,-2.502,-2.4932,-2.4152,-2.4152,-2.4152,-2.4152,-2.4152,-2.4152,-2.4152,-2.4152,-2.4152,-2.4152,-2.4152,-2.384,-2.324,-2.2966,-2.2621,-2.2107,-2.1841,-2.1741,-2.1741,-2.1741,-2.2167,-2.2931,-2.4211,-2.4978,-2.5579,-2.6196,-2.6809,-2.6974,-2.5935,-2.6102,-2.6268,-2.5168,-2.4221,-2.3607,-2.3867,-2.2921,-2.1891,-2.1535,-2.1526,-2.1615,-2.1445,-2.1526,-2.1882,-2.2589,-2.2765,-2.2765,-2.3018,-2.2658,-2.2217,-2.1793,-2.1356,-2.0817,-2.0102,-1.9646,-1.9188,-1.8643,-1.78,-1.7326,-1.7326,-1.7326,-1.6662,-1.5146,-1.4961,-1.4072,-1.2414,-1.1708,-1.1141,-1.0614,-0.9902,-0.9519,-0.9519,-0.9174,-0.9174,-0.9519,-0.9607,-0.9864,-1.0207,-1.0641,-1.0641,-1.0212,-0.8982,-0.8105,-0.7404,-0.6171,-0.5733,-0.5733,-2.9696,-2.9085,-2.8512,-2.8486,-2.851,-2.851,-2.851,-2.851,-2.851,-2.8419,-2.8111,-2.7881,-2.7788,-2.7383,-2.7056,-2.6704,-2.654,-2.6708,-2.7469,-2.8455,-2.8959,-2.8969,-2.9371,-2.8899,-2.7284,-2.7389,-2.6446,-2.4152,-2.4824,-2.4833,-2.4152,-2.4152,-2.4152,-2.4152,-2.4152,-2.4152,-2.4152,-2.4152,-2.4152,-2.4152,-2.4152,-2.3904,-2.3501,-2.3012,-2.2694,-2.2272,-2.1878,-2.1741,-2.1731,-2.2157,-2.2843,-2.3877,-2.4904,-2.5326,-2.5411,-2.5946,-2.6113,-2.603,-2.5589,-2.5684,-2.5779,-2.4754,-2.4317,-2.4049,-2.379,-2.2833,-2.1784,-2.1087,-2.1006,-2.1006,-2.1006,-2.1006,-2.1177,-2.1872,-2.1961,-2.2138,-2.2394,-2.2138,-2.1882,-2.1445,-2.1177,-2.0826,-2.0382,-1.992,-1.9271,-1.855,-1.78,-1.7326,-1.7326,-1.7326,-1.6662,-1.5146,-1.4878,-1.3938,-1.2269,-1.1757,-1.1111,-1.0249,-0.9786,-0.9519,-0.9257,-0.8999,-0.9174,-0.9607,-0.9607,-0.9864,-1.0294,-1.0727,-1.0467,-0.9772,-0.8894,-0.7929,-0.6962,-0.6086,-0.5733,-0.5733,-2.9323,-2.9046,-2.8469,-2.8486,-2.8419,-2.8419,-2.851,-2.8431,-2.8339,-2.8259,-2.795,-2.7708,-2.7522,-2.729,-2.6704,-2.5913,-2.5358,-2.5295,-2.5771,-2.7115,-2.7688,-2.7358,-2.8049,-2.806,-2.7189,-2.6254,-2.5216,-2.4152,-2.4152,-2.4152,-2.4152,-2.4152,-2.4152,-2.4152,-2.4152,-2.4152,-2.4152,-2.4152,-2.4152,-2.4152,-2.4152,-2.3932,-2.3556,-2.3067,-2.274,-2.2327,-2.1933,-2.1768,-2.182,-2.2677,-2.3627,-2.4402,-2.4402,-2.4413,-2.4498,-2.4498,-2.4498,-2.4413,-2.3973,-2.4402,-2.4935,-2.4498,-2.4765,-2.4765,-2.3444,-2.2658,-2.1961,-2.0555,-2.0292,-2.0292,-2.0292,-2.0292,-2.0555,-2.1177,-2.1266,-2.1526,-2.2138,-2.1704,-2.1266,-2.1266,-2.0736,-2.0292,-2.0292,-1.9828,-1.9188,-1.8272,-1.7613,-1.7326,-1.7326,-1.7232,-1.656,-1.5114,-1.4746,-1.3731,-1.2113,-1.1785,-1.1216,-1.031,-1.0124,-0.9864,-0.9432,-0.9349,-0.9607,-1.0038,-1.0038,-1.0294,-1.0636,-1.1084,-1.0738,-0.9772,-0.8894,-0.7929,-0.6962,-0.6086,-0.5733,-0.5733,-2.8825,-2.8648,-2.8469,-2.8486,-2.7695,-2.7418,-2.8327,-2.7926,-2.7684,-2.8339,-2.7499,-2.7092,-2.7708,-2.6775,-2.5997,-2.583,-2.5083,-2.4964,-2.5751,-2.6076,-2.688,-2.8297,-2.7115,-2.6638,-2.7189,-2.6254,-2.5216,-2.4152,-2.4152,-2.4152,-2.4152,-2.4152,-2.4152,-2.4152,-2.4152,-2.4152,-2.4152,-2.4152,-2.4152,-2.4152,-2.4152,-2.4097,-2.3978,-2.3565,-2.3162,-2.2767,-2.2346,-2.1997,-2.1731,-2.19,-2.2589,-2.3357,-2.3357,-2.3887,-2.4498,-2.4498,-2.4498,-2.4413,-2.3973,-2.3973,-2.3973,-2.356,-2.3993,-2.4413,-2.3357,-2.2315,-2.1356,-2.0464,-2.0292,-2.0292,-2.0292,-2.0292,-2.0382,-2.0464,-2.0555,-2.0555,-2.0727,-2.0645,-2.0555,-2.0555,-2.0382,-2.0292,-2.0292,-1.9463,-1.892,-1.8643,-1.78,-1.7326,-1.7326,-1.6763,-1.5893,-1.4833,-1.3995,-1.3001,-1.1774,-1.1542,-1.1071,-1.0532,-1.0487,-1.0376,-1.0294,-0.9951,-1.0125,-1.0463,-1.0463,-1.0549,-1.0636,-1.1084,-1.0738,-0.9772,-0.8894,-0.7929,-0.6962,-0.6086,-0.5733,-0.5733,-2.8709,-2.85,-2.8231,-2.7382,-2.7036,-2.7023,-2.7151,-2.6835,-2.6835,-2.7765,-2.7092,-2.667,-2.7185,-2.6423,-2.5484,-2.4628,-2.3704,-2.3477,-2.4104,-2.4796,-2.5502,-2.6189,-2.5866,-2.5684,-2.5771,-2.5206,-2.4735,-2.4152,-2.4152,-2.4152,-2.4152,-2.4152,-2.4152,-2.4152,-2.4152,-2.4152,-2.4152,-2.4152,-2.4152,-2.4152,-2.4152,-2.4152,-2.4106,-2.3703,-2.3299,-2.2802,-2.2474,-2.2603,-2.294,-2.2501,-2.327,-2.42,-2.3347,-2.3444,-2.3714,-2.329,-2.3202,-2.3115,-2.2853,-2.3105,-2.3444,-2.3202,-2.3541,-2.3704,-2.2658,-2.2306,-2.1882,-2.0555,-2.0292,-2.0292,-2.0292,-2.0292,-2.0292,-2.0292,-2.0292,-2.0292,-2.0292,-2.0292,-2.0292,-2.0292,-2.0292,-2.0292,-2.0292,-1.9371,-1.8827,-1.8827,-1.7893,-1.7326,-1.7326,-1.6567,-1.5772,-1.4743,-1.372,-1.2739,-1.1704,-1.1467,-1.1176,-1.0906,-1.0906,-1.0814,-1.0549,-1.0376,-1.0554,-1.0906,-1.0727,-1.0727,-1.0992,-1.1176,-1.0738,-0.9772,-0.8894,-0.7929,-0.6962,-0.6086,-0.5733,-0.5733,-2.8179,-2.8066,-2.7591,-2.6099,-2.6349,-2.6505,-2.5913,-2.5652,-2.5913,-2.6846,-2.6434,-2.6091,-2.6235,-2.5724,-2.4713,-2.327,-2.2246,-2.1906,-2.23,-2.3528,-2.4133,-2.3808,-2.4889,-2.5118,-2.444,-2.4251,-2.4152,-2.4152,-2.4152,-2.4152,-2.4152,-2.4152,-2.4152,-2.4152,-2.4152,-2.4152,-2.4152,-2.4152,-2.4152,-2.4152,-2.4152,-2.4152,-2.4115,-2.3776,-2.34,-2.2902,-2.2584,-2.3188,-2.4145,-2.3357,-2.42,-2.5316,-2.378,-2.327,-2.2931,-2.2157,-2.182,-2.1741,-2.1909,-2.2422,-2.2921,-2.3008,-2.3173,-2.2999,-2.1784,-2.2217,-2.2306,-2.0645,-2.0292,-2.0292,-2.0292,-2.0292,-2.0292,-2.0292,-2.0292,-2.0292,-2.0292,-2.0292,-2.0292,-2.0292,-2.0292,-2.0292,-2.0292,-1.9371,-1.8827,-1.8827,-1.7893,-1.7232,-1.7138,-1.6331,-1.5511,-1.4482,-1.3471,-1.2496,-1.1639,-1.1445,-1.1262,-1.1262,-1.1262,-1.1084,-1.0722,-1.0722,-1.0906,-1.1262,-1.0906,-1.0906,-1.1262,-1.1262,-1.0738,-0.9772,-0.8894,-0.7929,-0.6962,-0.6086,-0.5733,-0.5733,-2.6013,-2.6202,-2.6058,-2.5859,-2.5305,-2.5084,-2.5746,-2.5158,-2.4999,-2.5913,-2.4893,-2.4478,-2.5316,-2.42,-2.3347,-2.3096,-2.2246,-2.1906,-2.23,-2.2806,-2.3683,-2.482,-2.4598,-2.4735,-2.5499,-2.4637,-2.4152,-2.4152,-2.4152,-2.4152,-2.4152,-2.4152,-2.4152,-2.4152,-2.4152,-2.4152,-2.4152,-2.4152,-2.4152,-2.4152,-2.4152,-2.4152,-2.4143,-2.4088,-2.3813,-2.3409,-2.2921,-2.2994,-2.327,-2.3096,-2.379,-2.4659,-2.4402,-2.3714,-2.3096,-2.2931,-2.2334,-2.1909,-2.2668,-2.2413,-2.1989,-2.257,-2.2736,-2.2473,-2.1087,-2.1266,-2.1347,-2.0464,-2.0292,-2.0292,-2.0292,-2.0292,-2.0292,-2.0292,-2.0292,-2.0292,-2.0292,-2.0292,-2.0292,-2.0292,-2.0292,-2.0292,-2.0292,-1.9371,-1.8827,-1.8827,-1.7893,-1.7044,-1.6379,-1.5384,-1.4469,-1.3459,-1.24,-1.1722,-1.1402,-1.1278,-1.1262,-1.1262,-1.1262,-1.1262,-1.1176,-1.1176,-1.1262,-1.1262,-1.1262,-1.1262,-1.1262,-1.1262,-1.0738,-0.9772,-0.8894,-0.7929,-0.6962,-0.6086,-0.5733,-0.5733,-2.419,-2.4829,-2.5071,-2.4429,-2.4395,-2.4488,-2.4317,-2.3983,-2.4069,-2.4988,-2.4307,-2.3963,-2.4392,-2.3193,-2.2334,-2.2334,-2.1909,-2.1814,-2.1979,-2.2373,-2.2963,-2.3834,-2.3873,-2.411,-2.4824,-2.444,-2.4152,-2.4152,-2.4152,-2.4152,-2.4152,-2.4152,-2.4152,-2.4152,-2.4152,-2.4152,-2.4152,-2.4152,-2.4152,-2.4152,-2.4152,-2.4152,-2.4152,-2.4152,-2.3895,-2.3464,-2.3382,-2.3709,-2.42,-2.3967,-2.4145,-2.4498,-2.4498,-2.3454,-2.2501,-2.3541,-2.2853,-2.1909,-2.2843,-2.2334,-2.1562,-2.19,-2.1802,-2.1436,-2.0826,-2.0736,-2.0645,-2.0382,-2.0292,-2.0292,-2.0292,-2.0292,-2.0292,-2.0292,-2.0292,-2.0292,-2.0292,-2.0292,-2.0292,-2.0292,-2.0292,-2.0201,-1.992,-1.9279,-1.8735,-1.8458,-1.7707,-1.7138,-1.6857,-1.5445,-1.4412,-1.3851,-1.2439,-1.1585,-1.1267,-1.1262,-1.1262,-1.1262,-1.1262,-1.1262,-1.1262,-1.1262,-1.1262,-1.1262,-1.1262,-1.1262,-1.1262,-1.1262,-1.0738,-0.9772,-0.8894,-0.7577,-0.626,-0.5822,-0.5733,-0.5733]}]]